GFSGL_prec_cloud_003.txt.gz
Cloud_Cover
5 5 5 25 5 5 5 4 0 4 5 5 3 1 2 5 5 5 5 5 5 5 5 0 0 0 0 0 0 0 4 5 47 5 5 5 5 5 5 5 98 100 99
5 5 5 66 27 5 5 2 5 5 57 1 1 4 5 5 5 5 5 5 5 5 5 3 0 0 0 0 0 0 5 5 91 95 5 4 4 5 5 5 76 81 5
84 92 97 25 5 5 5 5 5 5 0 1 5 5 5 5 5 5 5 5 5 5 3 0 0 0 0 0 3 5 5 93 95 43 11 5 6 5 19 99 10 0 1
100 91 10 5 5 5 5 5 5 8 5 5 5 6 16 5 5 5 5 5 5 3 0 0 0 0 0 5 5 40 89 31 5 33 89 67 5 72 74 23 2 5 5
84 45 5 5 5 5 5 61 14 12 5 5 65 84 13 5 5 5 5 5 5 0 2 0 0 0 5 23 100 61 59 63 84 100 92 99 89 6 5 5 61 58 76
45 5 5 5 5 49 78 22 11 18 99 81 6 4 5 5 62 11 5 5 5 0 0 0 0 0 0 3 5 14 100 100 100 100 100 63 5 5 34 100 100 100 98
5 5 5 5 92 82 49 81 100 100 76 5 5 5 57 46 5 5 5 5 0 0 0 0 0 0 2 5 3 21 100 100 100 100 91 6 95 91 100 93 100 100 100
5 5 60 87 98 100 81 99 71 5 5 5 5 78 46 5 5 5 5 5 0 2 0 0 2 4 5 86 98 65 5 5 1 3 88 88 100 100 100 100 100 100 100
45 87 90 99 91 93 46 5 5 5 5 29 93 10 5 5 5 0 5 5 5 5 0 5 14 60 37 100 100 78 5 4 2 45 96 78 21 44 100 100 100 100 100
90 82 92 90 99 50 56 5 5 10 100 67 67 26 5 3 5 4 5 5 5 5 21 17 5 75 100 100 100 96 34 5 98 82 5 6 62 85 100 100 100 100 100
94 98 98 100 62 5 5 5 90 84 39 77 31 5 5 5 5 3 10 63 5 95 15 5 18 76 100 100 100 57 52 100 63 5 10 75 86 79 97 98 100 100 100
76 68 5 5 5 5 24 73 50 95 88 20 5 86 66 5 1 2 52 97 96 73 68 32 53 98 100 85 52 99 100 98 8 92 100 100 92 98 100 98 98 100 100
5 5 5 5 6 76 44 68 77 15 5 15 93 44 10 5 5 1 5 82 97 100 75 98 87 85 7 5 49 100 94 55 100 100 100 100 100 100 84 100 100 100 100
5 5 21 60 8 5 13 5 5 5 33 51 5 5 5 5 5 6 62 100 100 100 100 61 5 4 5 16 20 5 59 100 100 100 100 100 100 100 100 100 100 100 100
5 36 9 5 5 5 5 5 5 5 5 5 5 5 5 6 35 100 100 100 100 100 100 9 4 5 30 58 57 87 100 100 100 100 100 100 100 100 100 100 100 99 100
10 5 5 5 5 5 5 5 6 5 5 5 2 5 5 24 85 100 100 100 100 100 69 12 57 74 100 100 100 100 98 100 98 100 100 100 100 100 100 98 100 100 100
5 5 5 5 5 5 5 42 8 5 2 0 4 5 5 50 96 100 100 100 36 69 14 95 100 100 100 100 100 100 100 100 100 100 100 100 100 100 100 100 100 100 100
5 5 5 5 6 44 17 5 2 1 3 5 3 1 5 44 94 100 100 51 11 27 99 100 100 100 100 100 100 100 100 100 100 100 100 100 100 100 100 97 100 100 100
9 5 6 15 26 5 5 4 4 5 2 0 0 0 0 15 95 34 32 14 100 100 100 100 100 100 100 100 100 100 100 100 100 100 100 100 100 100 93 100 100 95 100
5 6 28 7 5 5 5 4 1 0 0 0 0 5 5 89 15 5 16 99 100 100 100 100 100 100 100 100 100 100 100 100 100 100 100 100 100 100 100 100 100 100 93
19 43 5 5 5 5 0 0 0 0 0 0 5 12 97 99 5 79 100 100 100 100 100 100 100 100 100 100 100 100 100 100 100 100 100 100 100 100 100 100 100 100 89
17 5 5 5 5 4 0 0 0 0 0 5 5 8 82 7 78 100 100 100 100 100 100 100 100 100 100 100 100 100 100 100 100 100 100 100 100 100 100 100 98 92 81
5 5 5 1 0 1 3 4 0 0 5 5 8 45 10 84 100 100 100 100 100 100 100 100 100 100 100 100 100 100 100 100 100 100 100 100 100 99 100 99 99 84 82
5 2 0 3 5 5 5 4 0 5 5 53 78 71 90 100 100 100 100 100 100 100 100 100 100 100 100 100 100 100 100 100 100 100 100 100 100 100 100 98 98 89 79
3 4 5 5 10 17 5 2 5 5 68 80 75 98 100 100 100 100 100 100 100 100 100 100 100 100 100 100 100 100 100 100 100 100 100 100 100 100 100 100 94 84 85
5 11 26 25 26 5 5 5 5 33 71 80 100 100 100 100 100 100 100 100 100 98 100 100 100 100 100 100 100 100 100 100 100 100 97 100 100 100 100 100 100 97 74

GFSGL_prec_cloud_006.txt.gz
Cloud_Cover
5 5 24 87 72 23 5 20 5 5 5 5 5 3 5 0 0 4 5 12 99 57 5 2 5 0 0 0 0 0 4 5 31 5 5 5 5 0 5 5 15 95 63
5 16 74 100 94 92 74 5 5 5 5 5 5 5 2 0 5 5 97 32 6 4 0 5 4 0 0 0 0 5 5 5 32 5 5 5 5 5 5 5 5 16 52
5 50 96 99 96 79 8 5 5 5 5 5 5 5 4 20 82 23 5 2 0 1 5 0 0 0 0 0 1 5 5 75 88 43 10 5 5 14 57 8 6 5 5
50 100 86 88 94 20 5 5 5 5 5 5 5 5 30 6 5 3 0 0 5 5 5 5 0 0 0 5 5 24 35 5 5 5 19 70 97 53 75 5 5 5 66
72 73 83 100 58 5 41 69 5 5 66 36 44 5 5 5 1 0 1 5 5 5 4 1 4 3 5 5 66 6 22 16 87 100 98 92 53 5 5 5 95 100 100
80 65 96 9 10 96 70 6 5 74 79 5 5 5 2 0 0 2 5 5 5 3 5 5 5 5 0 5 5 30 100 100 74 72 95 78 11 5 6 100 100 100 90
49 73 12 74 75 59 80 37 84 66 5 5 2 0 0 0 4 5 5 5 5 5 5 5 5 5 2 5 5 48 100 32 22 36 5 7 85 78 100 99 100 100 100
59 7 57 68 94 76 61 73 76 5 5 5 0 0 3 6 5 5 4 15 46 30 17 8 5 4 5 94 87 91 5 5 0 5 48 78 100 100 100 100 99 100 100
5 51 66 47 45 74 98 18 5 4 0 0 2 5 5 5 5 5 56 50 31 10 73 11 5 53 74 100 100 92 48 4 2 41 96 56 24 62 100 100 92 100 100
62 78 86 56 72 42 5 5 5 1 0 5 5 5 5 3 5 5 5 72 17 5 64 34 5 96 100 100 100 98 29 4 82 83 5 5 5 5 70 89 100 100 100
36 16 56 21 5 5 5 4 1 5 5 5 5 4 5 5 5 5 6 64 44 100 48 14 5 42 100 100 100 44 41 100 81 8 50 28 67 5 11 68 100 100 100
12 7 5 5 5 5 0 4 5 5 5 5 5 5 5 5 5 5 5 82 98 98 64 19 86 100 100 64 40 95 100 98 7 83 99 100 76 78 74 79 78 80 100
5 5 5 5 5 5 5 5 5 5 5 5 5 5 5 1 3 1 5 23 91 100 86 99 77 83 5 5 60 100 93 18 99 100 100 100 100 85 66 93 54 45 100
63 7 5 5 5 5 5 5 5 4 5 5 5 5 5 5 5 6 14 11 71 48 96 38 5 4 5 8 10 6 18 98 100 100 100 100 100 92 92 91 100 99 100
5 5 5 5 5 5 5 5 5 5 3 5 5 5 5 5 17 98 100 99 100 99 100 5 3 5 5 21 14 58 98 100 100 100 100 100 100 100 96 98 99 99 100
5 27 5 5 5 5 5 5 4 5 0 5 2 5 5 18 73 100 100 100 100 98 53 5 47 76 100 100 100 100 98 100 100 100 100 100 100 100 100 91 99 100 100
5 5 5 5 5 5 5 5 5 5 4 0 0 5 5 5 86 100 100 98 27 44 12 77 100 100 100 100 100 100 100 100 100 100 100 100 100 96 100 100 99 100 100
15 6 5 5 5 4 5 5 5 2 0 0 0 0 2 6 76 100 99 20 5 10 85 100 100 100 100 100 100 100 100 100 100 100 100 100 100 100 100 100 100 100 99
57 5 5 4 5 5 5 5 0 0 0 0 0 0 0 9 99 35 6 5 85 100 100 100 100 100 100 100 100 100 100 100 100 100 100 100 100 100 94 100 100 98 99
7 5 5 5 5 5 1 0 0 0 0 0 0 2 5 88 22 5 5 53 98 100 100 100 100 100 100 100 100 100 100 100 100 100 100 100 100 100 100 100 98 100 91
5 5 5 5 4 0 0 4 0 0 2 5 4 5 92 97 5 6 90 91 100 100 100 100 100 100 100 100 100 100 100 100 100 100 100 100 100 98 98 100 100 100 100
5 5 5 0 1 4 5 1 5 5 5 5 5 5 75 5 7 74 92 98 100 100 100 100 100 100 100 100 100 100 100 100 100 100 100 100 100 100 100 95 96 100 100
5 5 1 5 4 5 5 5 5 5 5 5 5 5 5 16 84 86 90 100 100 100 95 100 100 98 94 100 100 100 100 100 100 100 100 100 100 91 93 100 100 97 99
5 5 5 5 5 5 5 5 5 5 5 33 63 46 60 97 99 97 100 100 100 96 100 99 100 100 100 100 100 100 100 100 100 100 100 100 100 100 100 95 91 99 97
5 5 5 5 5 5 5 5 5 5 32 76 72 95 100 100 100 100 100 100 100 100 79 76 96 99 100 99 99 100 100 100 100 100 100 100 100 100 100 99 84 91 94
5 5 5 5 5 5 5 5 25 58 83 87 100 95 100 100 100 100 100 100 100 87 72 75 86 98 100 99 100 100 100 100 100 100 99 100 100 100 100 100 74 92 91

GFSGL_prec_cloud_009.txt.gz
Cloud_Cover
100 88 22 5 72 94 92 77 76 34 5 57 5 5 5 5 5 5 1 5 5 5 5 5 3 0 4 0 0 0 4 5 5 5 5 5 5 5 5 89 100 92 87
86 5 5 49 91 66 76 88 100 41 70 56 15 5 5 5 5 5 5 5 5 5 5 0 1 5 5 0 0 0 5 5 5 5 5 5 5 55 99 96 100 99 78
92 97 80 98 100 77 72 100 64 82 74 82 21 5 5 5 5 3 5 5 5 2 0 5 2 1 0 0 3 5 5 38 94 97 8 5 84 92 74 27 13 5 16
95 100 100 100 100 82 71 35 92 100 94 10 5 5 15 26 5 5 5 3 0 1 5 2 0 0 0 5 19 77 99 85 57 36 100 77 28 5 5 5 5 11 99
100 100 100 100 100 22 5 95 100 74 57 20 38 26 78 5 5 3 0 0 4 5 0 0 0 0 5 15 97 98 98 89 98 100 100 64 10 5 10 48 99 94 79
5 99 100 100 65 5 99 95 57 51 59 72 47 100 8 4 0 0 0 5 2 5 0 0 0 0 5 31 42 84 98 100 100 100 99 62 5 98 37 100 100 100 97
77 100 89 44 31 100 94 67 55 76 80 70 95 5 0 0 0 4 5 5 5 0 0 2 5 5 4 5 9 88 100 79 21 5 7 37 99 91 100 99 100 99 100
100 100 100 75 100 87 73 86 93 78 87 40 4 0 0 2 5 5 4 5 5 5 5 5 5 5 19 100 100 100 54 7 11 5 96 73 100 100 100 100 97 100 92
100 100 100 100 96 95 99 71 63 73 5 1 0 0 5 5 4 0 5 5 5 5 2 5 5 98 100 100 100 35 96 38 3 14 97 84 33 45 100 100 92 100 100
100 100 100 100 99 60 51 69 5 5 0 0 1 5 5 3 0 5 5 10 60 31 99 100 46 100 100 100 100 99 95 5 96 95 5 5 5 5 66 95 100 100 100
100 100 85 66 48 52 12 5 4 2 1 5 5 4 0 0 4 5 5 22 92 99 100 100 69 78 100 100 100 64 45 100 94 6 10 52 65 60 5 79 100 100 100
99 87 63 45 35 5 5 5 5 5 5 5 4 1 3 0 0 4 7 93 100 100 98 58 53 100 98 58 21 94 100 97 12 93 99 100 82 81 70 71 91 100 100
100 100 70 32 55 5 5 5 5 5 2 0 1 4 1 0 0 0 5 45 84 100 42 99 91 71 5 5 43 80 86 80 100 100 100 100 100 91 89 100 79 90 100
100 100 100 86 5 5 5 5 1 0 0 0 0 1 3 5 5 7 26 8 81 48 84 77 5 4 5 5 13 9 70 99 100 100 100 98 96 89 100 100 100 100 100
96 56 19 5 5 5 4 2 0 0 0 3 1 4 5 5 12 92 94 97 100 100 100 19 5 5 14 27 31 68 100 97 98 100 100 100 99 100 93 99 100 100 100
5 2 5 5 5 5 5 2 0 0 0 0 0 5 5 5 61 97 100 100 100 97 69 5 34 77 97 100 100 98 100 100 100 100 100 100 100 100 100 93 100 100 100
5 5 5 5 5 0 4 5 4 0 0 0 0 0 5 5 76 100 100 96 25 23 5 64 100 100 100 100 100 100 100 100 100 100 100 100 100 100 100 100 100 100 100
10 44 8 8 5 5 5 3 0 0 0 0 0 0 5 6 79 100 91 36 5 5 74 99 100 100 100 100 100 100 100 100 100 100 100 100 100 100 100 100 99 100 100
6 5 6 6 5 3 0 0 0 0 0 0 0 3 1 6 98 34 5 7 80 87 99 100 100 100 100 100 100 100 100 100 100 100 100 100 100 100 94 99 100 99 100
5 5 5 5 5 4 0 0 0 0 0 4 5 5 5 70 75 5 5 68 98 100 100 100 98 100 100 100 100 100 100 100 100 100 100 100 100 100 100 100 100 100 98
5 5 5 5 5 3 0 0 0 0 5 5 1 5 80 100 5 7 80 97 100 100 100 100 100 100 100 100 100 100 100 100 100 100 100 100 100 100 100 100 100 100 100
5 5 5 5 5 0 0 1 5 4 2 5 5 5 63 5 25 89 100 99 100 100 100 100 100 100 100 100 100 100 100 100 100 100 100 100 100 100 100 99 100 100 97
5 5 5 5 3 5 5 5 0 4 5 5 9 60 38 64 96 100 100 97 100 97 100 100 100 100 93 100 100 100 100 100 100 100 100 100 100 100 99 100 100 92 65
12 30 5 5 5 5 5 4 5 5 5 53 72 82 93 100 100 97 90 100 100 100 100 100 95 100 100 100 100 100 100 100 100 100 100 100 100 100 100 100 100 100 93
5 5 5 5 5 5 5 5 5 25 73 82 88 98 99 99 100 100 100 100 100 100 90 83 90 98 100 98 100 99 100 100 100 100 100 100 100 100 100 100 99 100 93
5 5 5 5 5 5 5 9 63 73 88 86 100 99 99 100 100 100 100 100 100 94 79 94 98 99 96 100 98 100 100 100 100 100 98 95 98 93 100 93 62 73 84

GFSGL_prec_cloud_012.txt.gz
Cloud_Cover
50 56 97 100 96 100 100 98 80 94 100 100 98 76 82 27 5 5 5 5 5 2 0 0 0 0 0 0 0 0 0 0 0 0 0 4 5 61 94 100 98 80 5
79 97 100 100 100 100 100 95 100 100 100 93 85 66 85 70 5 5 5 5 5 0 0 0 0 0 0 0 0 0 0 5 5 5 5 5 66 100 100 100 100 57 25
96 100 100 100 93 93 96 100 100 99 93 95 63 100 98 16 5 5 5 5 2 0 2 0 0 0 0 0 0 4 5 18 74 59 5 9 96 100 95 30 63 65 97
100 100 71 56 90 88 99 100 100 88 91 70 100 87 55 6 5 5 5 5 0 5 3 0 0 0 0 2 5 21 66 90 83 62 63 78 98 46 93 36 92 86 100
100 82 63 66 100 100 100 100 100 90 67 100 81 84 81 50 5 5 4 0 5 5 1 0 0 1 5 6 84 91 100 97 61 91 100 94 7 36 62 84 100 96 69
100 67 98 100 100 96 100 100 97 62 100 86 95 91 100 14 5 5 3 5 5 3 0 0 2 5 19 85 98 100 100 100 100 100 91 98 95 90 100 100 100 98 88
100 96 100 100 100 100 100 97 76 100 100 99 93 92 9 5 5 5 7 5 5 4 3 5 5 11 91 93 97 100 100 98 100 95 100 100 100 99 98 95 90 94 100
100 100 100 100 100 100 100 100 100 100 100 100 47 49 5 5 6 8 5 5 5 5 5 5 55 86 90 100 99 87 100 78 100 100 100 100 99 100 100 99 100 100 98
100 100 100 100 100 100 100 100 100 100 98 59 8 64 10 5 5 5 6 5 8 5 5 30 84 100 100 100 100 89 94 100 100 100 100 100 100 100 100 100 89 100 99
100 100 100 100 100 100 100 100 100 75 19 84 5 5 5 5 14 9 35 66 5 5 13 87 96 98 100 100 100 100 100 100 98 87 100 67 94 100 100 100 100 100 100
100 100 100 100 100 100 99 98 86 98 76 6 5 5 13 42 14 74 11 5 12 72 99 99 100 100 100 100 100 96 100 100 100 100 100 100 100 100 90 96 100 100 100
100 100 100 100 100 100 100 100 98 33 5 5 5 5 5 38 28 0 5 68 93 100 100 100 89 100 98 60 38 75 100 100 98 99 98 100 99 84 89 83 92 95 100
100 100 100 100 100 100 85 10 5 5 5 5 5 13 13 1 2 2 42 73 100 100 100 100 100 76 8 5 44 100 100 100 100 100 100 94 100 76 89 98 94 99 99
100 100 100 89 21 5 5 5 5 5 5 5 5 5 5 4 4 5 67 88 100 100 99 91 53 20 5 45 60 94 100 99 100 100 100 100 99 96 86 100 100 100 100
100 97 79 84 10 5 5 32 9 3 5 4 5 4 5 3 7 45 87 100 100 100 95 71 5 5 5 81 87 99 98 100 100 100 100 100 100 100 100 100 100 98 100
61 69 21 5 43 88 48 9 6 5 5 8 5 4 0 5 43 91 100 100 100 89 78 15 14 79 96 100 100 99 98 100 100 100 100 100 100 100 100 88 100 100 100
9 23 49 63 61 36 5 9 63 59 5 5 1 0 4 5 68 99 100 75 67 44 5 10 94 100 100 100 100 100 100 100 100 100 100 100 100 97 100 100 100 100 97
32 75 84 38 5 5 5 5 5 5 5 0 0 0 0 5 79 100 94 12 5 8 67 85 100 100 100 100 100 100 100 100 100 100 100 100 100 100 99 100 100 100 100
5 14 5 5 5 5 13 6 5 5 5 5 1 2 0 4 29 77 11 5 20 78 87 100 100 100 99 100 100 100 100 100 100 100 100 100 100 100 100 100 100 97 100
5 5 5 10 5 5 5 5 5 5 5 4 0 0 2 32 34 5 5 43 80 89 97 100 100 96 99 100 100 100 100 100 100 100 100 100 100 100 100 100 100 100 100
5 5 5 5 43 47 7 5 5 5 5 5 5 4 79 100 37 14 53 86 98 100 100 100 100 100 100 100 100 100 100 100 100 100 100 100 100 100 100 100 100 100 100
5 16 58 73 30 20 26 6 5 5 5 5 5 5 73 42 28 75 86 91 96 100 100 100 100 100 100 100 100 100 100 100 100 100 100 100 100 100 100 100 100 100 100
54 51 55 28 21 6 5 5 5 4 5 5 5 5 5 5 9 53 78 81 100 100 100 100 100 95 99 100 100 100 100 100 100 100 100 100 100 100 100 100 100 100 100
40 49 11 5 5 5 5 5 4 5 5 5 5 5 5 5 5 55 99 100 100 100 100 100 96 100 100 100 100 100 100 100 100 100 100 100 100 100 100 100 100 100 100
29 5 5 5 5 5 5 3 5 5 5 5 6 5 5 38 98 100 100 100 100 100 97 85 96 100 100 96 100 100 100 100 100 100 100 100 100 98 96 91 100 100 100
5 5 5 5 5 4 5 5 5 5 62 99 93 90 81 100 100 100 100 100 100 99 99 95 95 99 100 100 100 100 100 100 100 100 73 97 100 97 34 78 98 100 100

GFSGL_prec_cloud_015.txt.gz
Cloud_Cover
100 99 97 95 100 72 100 100 100 100 59 73 68 75 96 5 42 5 67 11 5 5 5 5 3 0 0 0 0 0 0 0 0 0 0 0 3 3 5 26 5 2 4
73 45 100 100 82 99 100 100 100 85 98 56 37 7 21 84 26 75 85 5 5 5 5 5 0 0 0 0 0 0 0 0 4 5 5 5 5 1 21 26 5 5 5
49 77 96 100 100 100 100 100 100 63 72 67 66 82 28 5 57 100 8 5 24 5 5 2 0 0 0 0 0 0 4 5 5 5 5 5 4 5 95 12 5 11 5
87 99 100 100 100 88 98 100 55 70 87 85 99 87 20 55 100 14 5 72 8 5 5 0 0 0 0 0 4 5 6 5 32 8 5 5 33 100 72 15 5 5 5
100 100 100 100 100 100 100 53 100 100 100 100 99 97 77 100 76 48 68 13 5 3 3 3 0 0 0 17 62 67 77 68 57 50 68 99 61 13 18 50 24 75 5
100 100 100 100 100 99 91 97 100 100 93 81 100 100 100 100 99 93 53 5 5 5 5 5 0 0 5 57 86 98 99 100 100 98 100 78 32 5 70 73 63 100 93
81 100 100 84 34 73 82 100 100 100 100 80 100 100 100 100 100 100 53 5 5 5 5 4 5 5 5 68 88 95 14 65 100 88 93 99 64 5 51 25 100 95 95
100 100 100 99 93 99 100 100 100 100 100 100 100 100 100 100 100 59 5 8 5 5 3 5 5 5 34 96 15 34 61 52 58 97 100 43 6 71 100 100 97 33 30
100 100 100 100 100 100 100 100 100 100 100 100 100 100 100 99 99 97 11 5 5 1 2 5 5 41 44 100 100 94 19 5 6 68 71 95 100 100 99 100 8 91 85
100 100 100 100 100 100 100 100 100 100 100 100 100 100 100 100 61 5 5 4 5 5 5 5 49 54 100 100 100 52 6 5 6 35 7 6 35 14 99 99 94 100 100
95 100 100 100 100 100 100 100 100 100 100 100 100 100 92 24 5 4 5 5 11 8 5 5 5 95 97 100 100 64 18 100 99 73 5 5 5 29 88 33 97 100 100
100 100 100 100 100 100 100 100 100 100 100 100 99 23 5 5 4 5 5 64 59 69 22 18 39 99 98 77 64 74 100 100 54 86 66 33 81 83 78 85 21 87 100
95 98 100 100 100 100 100 100 100 100 76 9 5 27 18 5 5 4 5 39 61 30 82 91 84 78 72 9 17 100 98 67 97 100 100 78 63 13 5 78 97 100 99
100 100 100 100 100 100 100 80 45 14 44 99 84 70 29 28 10 43 5 5 17 73 37 10 5 45 5 5 10 5 18 89 100 100 74 53 76 83 95 98 100 98 100
100 100 100 100 100 100 81 55 93 93 77 69 46 14 38 34 14 5 29 27 85 83 95 8 5 5 5 5 5 10 78 100 99 100 100 100 100 100 100 100 100 100 100
100 100 100 100 93 90 69 28 13 25 73 36 6 10 12 9 6 37 71 94 99 97 37 5 5 5 5 37 82 81 96 100 100 100 100 100 100 100 100 90 100 100 100
100 93 97 54 6 5 5 5 22 92 96 32 5 10 16 11 5 62 89 91 45 28 5 5 5 14 81 99 97 99 100 100 100 100 100 100 100 100 100 100 100 100 100
43 16 5 5 5 5 5 5 6 23 25 18 6 15 9 5 8 90 100 39 5 5 5 5 6 60 73 94 99 100 100 100 100 100 100 100 100 100 100 100 100 100 100
5 5 5 5 5 5 5 6 20 37 36 31 28 6 3 2 39 87 82 5 5 5 5 5 19 68 73 100 98 100 100 100 100 100 100 100 100 100 96 98 100 99 100
5 5 5 5 20 46 11 23 11 15 13 5 3 0 0 5 5 5 5 5 5 5 5 5 9 5 77 98 100 100 100 100 100 100 100 100 100 100 100 100 100 100 98
5 5 19 71 54 12 6 11 5 5 4 0 0 1 31 88 5 5 5 5 5 5 5 5 7 51 88 100 100 100 100 100 100 100 100 100 100 100 100 100 100 99 100
10 60 56 57 32 21 6 5 4 0 0 0 1 5 24 5 5 5 5 5 5 5 5 71 69 89 100 100 100 100 100 100 100 100 100 100 100 100 100 99 89 100 100
60 58 36 15 29 5 5 0 0 0 0 5 5 5 5 0 5 5 5 5 36 61 57 82 91 84 92 100 100 100 100 95 100 100 100 100 100 100 100 100 100 100 100
32 38 12 5 5 0 0 0 0 3 5 5 5 5 4 5 5 5 54 81 79 66 88 98 96 95 99 100 100 100 100 100 100 99 100 100 100 100 95 100 100 100 100
5 5 5 0 0 0 0 0 1 5 5 5 7 6 6 5 5 32 95 100 94 100 100 97 100 94 100 100 100 92 100 100 100 100 99 100 100 100 100 100 100 100 99
5 5 2 0 0 0 0 4 5 5 9 72 86 82 63 28 19 95 93 79 98 97 95 95 86 98 100 100 100 99 100 100 100 49 5 18 57 99 100 100 100 84 73

GFSGL_prec_cloud_018.txt.gz
Cloud_Cover
100 100 91 99 100 97 99 100 100 100 100 100 100 8 28 55 58 72 88 64 5 5 37 5 5 5 5 5 1 0 0 0 0 0 0 3 5 5 5 2 2 5 4
100 100 100 100 100 100 73 69 100 100 100 100 96 61 100 97 95 59 80 5 5 33 45 5 5 5 5 5 0 0 0 0 0 5 5 5 5 3 0 5 5 5 0
100 100 100 100 100 98 100 100 96 100 100 100 81 94 84 80 78 98 96 54 59 61 6 5 10 51 5 5 0 0 0 0 5 5 5 5 3 3 5 5 4 0 5
100 100 100 100 100 100 100 89 100 100 100 100 98 87 72 87 100 73 100 88 71 54 50 56 16 5 5 5 0 2 5 17 44 5 5 46 83 30 65 5 4 5 0
78 100 100 100 100 100 98 100 100 100 100 100 76 55 96 100 97 91 96 100 97 93 98 51 5 5 5 2 16 59 87 99 64 90 81 83 99 11 11 50 7 5 2
85 100 100 100 100 100 100 100 100 100 82 65 100 100 100 100 100 100 100 100 95 76 87 31 5 5 2 5 29 63 93 100 99 87 100 87 6 54 99 5 5 6 88
100 100 100 100 100 100 100 100 100 91 100 100 100 100 100 100 100 100 100 98 99 98 65 5 5 4 1 5 8 87 13 10 67 99 23 56 99 69 28 43 71 100 100
100 100 100 100 100 100 100 100 100 100 96 100 100 100 100 100 100 68 97 99 100 88 5 5 2 1 5 44 68 46 72 5 5 37 99 97 98 77 100 100 99 82 5
100 100 100 100 100 100 100 100 100 100 100 100 100 100 100 100 92 96 100 100 45 55 8 5 4 5 48 80 82 12 5 5 5 5 51 97 100 100 100 100 48 69 94
100 100 100 100 100 100 100 100 98 89 100 100 99 77 100 91 100 100 100 98 14 100 94 8 5 5 61 100 100 97 60 5 7 29 5 2 2 5 6 26 83 100 100
100 100 100 100 86 100 100 100 100 100 96 97 100 100 100 100 73 88 16 78 34 23 31 6 5 11 99 100 100 82 31 97 85 9 5 5 5 5 5 5 15 98 100
100 100 100 100 100 100 100 89 80 100 100 100 100 83 95 90 45 90 90 65 44 26 5 5 5 67 86 83 70 35 99 100 16 5 5 5 26 5 5 5 5 76 86
100 100 100 98 96 90 99 100 100 100 92 47 52 72 25 29 44 83 64 43 5 5 5 48 87 48 35 31 5 76 93 5 5 45 99 66 5 5 5 57 5 57 61
95 61 98 100 99 100 100 98 56 26 5 7 5 5 21 75 78 43 10 5 5 5 5 5 9 5 4 4 4 4 5 5 88 82 63 83 89 100 95 94 100 91 100
100 100 100 100 96 61 15 11 5 5 5 5 5 56 78 41 28 8 45 9 22 93 97 5 2 2 0 4 5 5 5 9 88 86 100 100 95 100 99 96 100 100 100
100 82 62 26 10 15 12 11 62 23 5 5 5 38 74 61 44 33 60 77 100 99 54 5 5 5 5 5 5 5 5 29 94 99 100 100 100 100 100 92 99 100 100
50 58 52 38 41 50 53 36 10 5 5 39 54 43 6 5 5 43 88 97 88 19 4 0 5 5 5 5 5 5 73 86 100 100 100 100 100 100 100 100 100 100 99
62 36 70 72 73 32 6 5 5 66 97 64 66 67 6 2 5 71 94 16 0 0 5 5 5 5 5 5 5 77 100 100 100 100 100 100 100 100 100 100 100 100 100
80 94 67 59 31 5 5 18 72 59 58 53 12 2 0 0 5 43 23 1 5 5 5 5 5 5 5 5 24 98 100 100 100 100 99 100 100 100 95 100 100 100 100
66 23 5 8 5 30 65 62 67 24 6 4 0 0 0 5 5 1 0 3 5 5 5 5 5 8 51 54 93 100 100 100 100 100 100 100 100 100 100 100 100 100 99
8 18 36 66 62 96 56 11 5 5 2 0 0 0 7 38 2 0 0 0 5 5 5 5 5 32 41 87 100 100 100 100 100 100 100 100 100 100 100 100 100 100 100
100 99 90 80 53 5 5 5 4 0 0 0 0 0 5 0 0 0 0 5 5 5 5 5 12 71 87 100 100 100 100 100 99 100 100 100 100 100 100 100 100 100 98
58 30 14 5 5 5 3 0 0 0 0 0 0 0 0 0 0 2 5 5 5 5 5 35 84 90 88 100 100 100 100 98 100 100 100 100 100 100 100 100 94 72 96
5 5 5 5 0 0 0 0 0 0 0 0 0 1 5 4 5 5 5 5 41 61 82 88 98 96 98 100 100 100 100 100 100 100 100 100 100 100 100 100 96 83 100
5 4 1 0 0 0 0 0 0 0 3 4 5 5 5 5 5 5 5 35 83 81 83 95 100 97 93 90 97 94 100 100 100 100 70 98 99 100 100 98 100 100 100
5 4 3 0 0 0 0 0 1 5 5 5 5 23 5 5 5 5 5 6 71 91 92 98 98 98 96 97 100 98 100 100 100 99 100 100 99 100 100 100 100 100 100

GFSGL_prec_cloud_021.txt.gz
Cloud_Cover
0 1 11 17 5 62 100 77 100 100 100 100 100 100 100 76 100 72 20 19 14 6 5 98 57 5 5 5 5 5 5 1 0 0 0 0 0 0 0 0 0 0 2
2 0 14 92 59 100 100 100 100 100 100 100 100 100 100 100 94 99 75 97 61 72 86 98 71 5 5 5 5 5 5 5 0 0 0 4 1 0 0 4 5 5 2
0 1 96 98 100 100 100 100 100 100 100 100 100 100 100 100 100 94 90 98 91 100 85 68 62 15 68 5 5 5 5 5 5 5 5 5 5 5 15 8 5 5 5
64 84 82 100 100 100 100 100 100 100 100 100 100 100 100 100 76 70 95 100 100 81 100 67 69 73 40 5 5 5 43 45 15 66 72 5 5 5 48 5 5 5 5
100 99 99 100 100 100 100 100 100 100 100 100 100 100 100 86 74 96 100 100 99 100 100 100 100 77 23 33 29 78 87 15 59 91 16 26 98 52 5 5 5 5 5
100 100 100 100 100 100 100 100 100 100 100 100 100 100 72 83 100 100 100 100 100 100 100 99 72 100 100 100 100 48 66 63 100 100 98 96 16 5 5 5 5 12 97
100 100 100 100 100 100 100 100 100 100 100 100 100 100 100 100 100 100 92 100 100 93 49 100 100 100 100 90 5 7 42 79 100 100 27 5 53 5 7 15 86 100 95
100 100 100 100 100 100 100 100 100 100 100 100 100 100 100 100 98 100 100 94 100 100 100 100 100 100 27 8 55 91 100 82 5 5 6 35 44 82 100 100 97 91 10
100 100 100 100 100 100 100 100 100 100 100 100 100 100 100 100 100 100 100 66 98 100 100 100 81 29 52 89 99 94 5 5 5 3 6 79 100 75 82 100 13 95 80
100 100 100 100 100 100 100 100 100 100 100 100 100 98 44 100 92 80 72 100 96 95 94 16 5 40 92 99 100 99 55 5 5 27 7 4 3 5 5 8 52 100 100
100 100 100 100 100 100 100 100 96 100 84 59 44 100 99 97 82 69 18 39 21 5 30 89 84 56 98 100 100 98 80 90 85 6 4 0 3 5 5 5 5 99 100
100 100 100 100 100 100 100 100 100 98 74 100 100 100 100 29 5 5 5 5 26 5 9 11 13 70 99 82 60 49 97 96 6 5 5 5 5 5 5 5 6 24 44
96 100 100 100 100 89 94 100 100 100 100 100 96 37 5 5 5 5 5 5 42 14 5 53 100 98 11 4 4 45 20 4 5 5 53 20 61 15 5 88 6 5 35
96 100 100 100 100 100 100 100 100 100 74 7 5 5 5 5 5 8 29 6 5 5 13 99 63 3 4 3 0 0 5 5 41 67 87 98 100 98 69 69 100 100 100
66 29 61 100 100 100 100 86 30 5 5 5 5 4 5 5 7 19 34 9 46 86 100 11 3 0 0 2 5 5 5 5 35 73 100 100 98 100 100 85 100 100 100
100 100 91 97 96 56 13 5 6 5 5 3 3 5 12 61 24 5 50 87 100 100 5 1 0 5 5 5 5 5 5 14 60 100 100 100 100 100 100 98 99 100 100
83 72 29 6 5 5 22 55 6 5 3 5 5 5 5 5 5 61 84 96 28 5 0 3 5 5 5 5 5 5 46 62 93 100 100 100 100 100 100 100 100 100 99
5 5 5 5 5 5 6 10 8 5 5 5 16 5 5 1 27 72 65 9 0 0 0 5 5 5 5 5 5 29 87 100 100 100 100 100 100 100 100 100 100 100 100
25 40 68 82 78 71 64 56 18 5 16 6 5 3 0 2 18 4 2 0 0 0 5 5 5 5 5 5 21 76 100 100 100 100 95 100 100 100 93 99 100 99 100
89 97 74 63 60 46 15 5 5 5 5 5 1 0 1 5 5 0 0 0 0 5 5 5 5 5 5 39 79 100 100 100 100 99 99 100 100 100 100 100 100 100 95
42 44 34 30 5 5 5 5 5 1 0 0 0 0 27 17 0 0 0 0 5 5 5 5 9 61 68 97 100 100 100 100 100 100 100 100 100 99 100 100 100 100 100
43 26 17 5 5 5 5 1 0 0 0 0 0 0 4 0 0 0 0 4 5 5 12 61 92 99 100 100 100 100 100 100 97 99 100 100 100 100 100 99 100 100 100
5 5 5 5 5 5 5 0 0 0 0 0 0 0 0 4 5 5 5 5 5 5 48 83 100 100 98 99 100 100 100 98 99 100 100 100 100 100 100 100 100 100 100
25 5 5 5 5 5 0 0 0 0 0 0 0 2 5 5 5 5 5 5 5 38 64 96 98 93 87 99 100 100 100 100 100 98 100 100 100 100 100 100 100 100 100
18 5 5 5 5 1 0 0 0 0 0 2 5 5 5 5 5 5 5 5 14 55 76 55 79 87 90 89 99 100 100 100 100 100 100 100 100 100 100 100 100 100 100
5 5 5 5 0 0 0 0 1 5 5 5 24 41 15 5 5 5 5 8 29 63 60 56 66 72 80 92 100 100 100 100 100 100 100 100 100 100 100 100 100 100 100

GFSGL_prec_cloud_024.txt.gz
Cloud_Cover
15 67 6 0 1 0 4 5 8 61 72 100 100 100 100 100 100 100 99 84 100 75 34 6 62 85 76 74 5 5 5 4 0 0 0 0 3 5 5 5 5 5 1
37 6 1 0 0 10 0 47 22 100 100 100 100 100 100 100 100 100 100 100 100 95 45 82 99 93 100 90 98 99 84 60 5 0 5 5 5 5 5 5 4 1 5
100 100 27 10 0 11 11 100 68 100 100 100 100 100 100 100 100 100 100 100 85 68 41 14 99 99 93 100 100 90 63 34 5 5 5 5 5 6 16 6 5 5 5
34 11 69 6 23 99 43 100 100 100 100 100 100 100 100 100 100 100 100 99 70 6 77 100 99 95 100 97 84 100 87 21 13 10 6 25 100 71 5 13 5 5 5
4 92 86 38 100 96 96 98 100 100 100 100 100 100 100 100 100 100 100 100 68 99 100 69 95 87 13 92 16 79 85 82 95 84 100 38 73 6 10 5 5 5 5
88 84 100 100 100 100 98 100 58 100 100 100 100 100 100 100 100 100 100 100 100 100 100 74 100 100 100 81 42 74 84 57 100 94 84 83 16 5 5 8 5 79 93
100 100 100 100 100 100 100 100 100 100 100 100 100 100 100 100 100 100 100 100 100 100 78 100 95 35 27 70 26 56 100 99 77 100 90 5 5 5 11 23 72 99 95
100 100 100 100 100 100 100 100 100 100 100 100 100 100 100 100 100 100 100 100 100 100 100 98 95 48 5 18 95 29 12 18 41 5 5 44 86 93 100 100 75 56 5
100 100 100 100 100 100 100 100 100 100 100 100 100 100 100 100 100 100 98 100 100 97 100 90 32 5 5 28 5 60 26 5 5 5 15 59 63 61 23 92 10 68 85
100 100 100 100 100 100 100 100 100 100 100 100 100 100 100 100 100 98 100 98 100 100 98 62 5 5 6 73 100 97 57 5 16 41 5 3 0 0 5 5 5 100 100
100 100 100 100 100 100 100 100 100 100 100 100 100 100 100 100 100 100 100 100 100 100 37 0 0 7 96 100 100 85 12 90 72 5 0 0 0 5 5 5 5 97 100
100 100 100 100 100 100 100 100 100 100 100 100 100 84 46 13 100 100 100 100 81 8 4 5 7 81 100 74 28 12 70 73 3 0 4 5 5 5 5 5 5 36 44
100 100 100 100 100 97 97 77 100 100 100 82 18 13 94 100 100 100 100 14 5 5 5 54 96 86 41 2 1 5 6 0 4 5 44 5 29 10 5 78 26 5 72
76 75 44 22 5 95 99 84 20 29 62 97 100 100 100 100 97 29 5 5 5 5 13 77 69 5 0 0 0 0 0 5 20 25 37 75 99 91 80 79 100 98 100
79 57 79 96 94 100 100 100 100 100 100 100 98 100 69 14 8 36 20 7 43 84 99 22 0 0 0 1 1 3 5 5 5 20 99 99 98 100 100 92 100 100 100
100 100 73 35 84 100 100 100 85 92 82 27 8 5 53 52 26 5 57 88 99 94 9 0 3 5 5 5 5 5 5 13 40 99 100 100 100 100 100 100 100 100 100
100 100 100 99 69 10 7 5 5 20 66 67 41 72 28 5 5 38 65 85 6 5 0 3 5 5 5 5 5 10 62 52 71 100 100 100 100 100 100 100 100 100 100
31 5 5 7 16 44 60 39 62 90 87 46 5 5 5 5 34 87 5 4 0 0 0 1 5 5 5 5 13 75 96 100 100 100 100 97 100 100 100 96 98 100 100
6 34 55 54 70 66 65 77 58 11 5 5 3 0 0 4 26 2 0 0 0 0 1 5 5 5 5 21 78 94 100 100 100 99 100 98 98 100 88 100 100 100 100
67 60 71 86 24 42 10 5 5 5 5 1 0 0 1 5 4 0 0 0 0 2 5 5 5 12 71 94 98 100 100 100 100 100 95 100 100 100 100 100 98 100 93
94 98 91 48 5 5 5 5 5 5 0 0 0 0 23 5 0 0 0 0 5 5 5 6 74 95 94 97 100 100 100 100 100 99 100 100 100 100 100 100 100 94 100
5 6 5 5 5 5 5 4 0 0 0 0 0 0 4 0 0 2 4 5 5 5 69 84 100 98 99 100 98 100 100 100 99 100 100 99 100 100 100 100 100 100 100
5 5 5 5 5 5 5 0 0 0 0 0 0 0 0 5 5 5 5 5 5 5 9 68 97 100 82 88 95 100 100 92 96 100 100 99 100 100 100 100 100 100 100
5 5 5 5 5 5 5 1 0 0 0 0 0 5 5 5 5 5 5 35 5 30 6 57 72 78 81 88 92 100 100 98 100 94 98 100 100 100 100 100 100 100 100
5 5 5 5 5 5 5 2 0 0 2 5 5 5 5 5 11 43 40 40 44 52 5 5 62 29 72 94 99 100 100 100 100 100 100 100 100 100 100 100 100 100 100
5 11 14 5 5 5 5 2 3 5 5 5 26 60 29 47 20 40 5 36 49 45 5 5 5 5 27 88 100 100 100 100 100 100 100 100 100 100 100 100 100 100 100

GFSGL_prec_cloud_027.txt.gz
Cloud_Cover
8 19 43 57 38 15 5 5 9 92 100 96 5 15 79 100 100 100 100 100 100 100 100 100 98 100 100 50 86 16 60 5 5 12 44 5 4 2 5 3 2 0 3
8 26 100 55 33 43 47 6 7 63 99 99 100 96 100 100 100 100 100 100 100 100 100 100 100 100 100 100 97 77 16 5 5 5 5 5 5 5 5 5 1 0 3
100 79 92 68 94 41 64 80 95 41 67 100 100 100 100 100 100 100 100 100 100 100 100 100 100 100 100 96 76 24 9 5 5 5 5 5 5 5 5 5 5 5 5
100 92 61 91 98 100 100 100 100 100 100 100 97 100 100 100 100 100 100 100 100 100 100 100 100 100 96 99 69 58 43 6 10 5 5 5 5 5 5 5 5 5 5
100 100 100 100 100 100 100 100 100 100 100 100 100 100 100 100 100 100 100 100 100 100 100 100 100 100 98 87 70 97 35 94 46 8 53 31 8 5 5 5 5 5 5
4 53 100 100 100 100 100 100 100 100 100 100 100 100 100 100 100 100 100 100 100 100 100 100 99 100 99 100 88 100 86 66 61 97 79 82 35 5 5 5 5 100 93
6 87 100 100 100 100 100 100 100 100 100 100 100 100 100 100 100 100 100 100 100 100 100 100 100 100 100 100 100 85 16 48 35 91 51 5 5 5 7 31 87 100 100
92 95 100 100 100 100 100 100 100 100 100 100 100 100 100 100 100 100 100 100 100 100 100 100 100 100 100 100 100 77 73 5 5 5 5 5 5 62 100 100 100 78 16
100 100 100 100 100 100 100 100 100 100 100 100 100 100 100 100 100 100 100 100 100 100 100 100 100 100 100 100 100 99 55 5 5 3 5 9 64 66 30 28 7 71 94
100 100 100 100 100 100 100 100 100 100 100 100 100 100 100 100 100 100 100 100 100 100 100 94 100 100 100 100 100 75 5 5 5 5 5 5 0 0 5 5 22 98 100
100 100 100 100 100 100 100 100 100 100 100 100 100 100 100 100 100 100 98 74 70 21 30 96 100 100 100 99 90 7 5 34 75 6 3 0 0 4 5 5 5 84 100
100 100 100 100 100 100 100 100 100 100 100 100 100 99 100 100 97 100 57 68 62 99 100 100 100 100 87 82 44 5 11 71 9 0 4 5 5 5 5 5 5 16 53
100 100 100 100 100 100 100 100 100 100 100 73 99 91 74 52 65 59 82 96 100 83 100 100 94 54 10 4 0 5 9 2 5 5 5 5 5 5 5 5 5 51 78
100 100 99 96 53 64 56 74 80 72 63 96 88 88 95 98 28 53 69 100 100 100 99 82 78 5 0 0 0 0 0 4 12 7 8 48 79 68 39 54 96 97 100
63 92 97 94 95 93 93 86 91 98 94 100 100 100 100 100 100 100 100 100 92 92 97 5 4 0 3 2 1 3 5 5 5 5 94 99 97 97 88 41 99 100 100
37 67 82 83 92 82 83 77 66 47 96 79 73 97 100 100 100 100 96 89 100 74 5 1 3 5 5 5 5 5 5 14 22 87 100 100 100 100 100 98 100 100 100
99 99 11 5 5 5 8 55 90 80 88 100 100 100 100 98 56 23 79 58 5 2 0 3 5 5 5 5 5 41 81 56 64 100 100 100 100 99 100 100 100 100 100
21 5 5 5 12 31 48 66 98 100 100 100 95 74 21 5 26 86 5 1 0 0 0 1 5 5 5 32 68 93 100 100 100 100 100 94 96 100 96 100 100 100 100
5 5 20 81 96 96 100 95 68 65 60 45 11 5 5 5 5 5 0 0 0 0 1 5 5 9 56 90 98 98 99 100 100 98 99 98 100 100 94 100 100 100 100
5 6 60 77 86 73 60 45 8 5 5 5 5 5 5 5 5 0 0 0 0 0 5 5 5 62 91 96 94 93 96 100 100 100 95 100 100 100 100 100 100 100 97
52 35 6 18 29 33 6 5 5 28 27 5 5 5 17 5 2 0 0 0 2 5 5 5 54 94 90 89 88 86 99 100 100 94 100 100 100 100 100 100 100 100 100
85 88 72 60 59 23 5 5 5 5 5 5 5 3 3 0 1 5 5 5 5 5 5 7 74 83 85 95 99 92 99 100 88 93 100 100 100 94 100 100 98 100 100
77 94 85 52 9 5 5 5 5 0 1 0 0 0 0 5 5 5 5 5 5 5 5 31 74 74 26 65 100 100 100 100 100 100 100 99 99 89 100 100 100 100 99
80 77 36 5 5 5 2 0 0 0 0 0 1 4 5 5 5 5 5 57 34 54 6 46 44 49 36 6 80 100 100 100 100 100 98 100 100 100 100 100 100 100 100
82 51 22 5 5 5 5 5 3 0 4 5 5 5 5 5 13 45 42 33 60 53 5 5 5 5 5 5 77 100 100 100 100 100 100 100 100 100 100 100 100 100 100
52 30 5 5 5 5 5 5 5 5 5 5 25 58 54 51 25 51 18 49 55 27 6 5 5 5 5 5 79 100 100 100 100 100 100 100 100 100 100 100 100 100 88

GFSGL_prec_cloud_030.txt.gz
Cloud_Cover
0 0 0 18 98 99 64 43 53 100 100 100 100 100 100 100 100 100 100 100 100 100 100 100 100 100 100 100 100 100 100 100 84 69 91 24 5 5 5 4 4 2 4
5 67 99 100 100 100 100 100 99 88 77 100 100 100 100 100 100 100 100 100 100 100 100 100 100 100 100 100 100 100 100 91 59 22 9 5 5 5 5 5 4 5 0
17 99 100 100 100 100 100 100 100 100 100 100 100 100 100 100 100 100 100 100 100 100 100 100 100 100 100 100 100 100 100 100 99 81 54 5 5 5 5 5 37 5 5
89 81 94 100 100 100 100 100 100 100 100 100 100 100 100 100 100 100 100 100 100 100 100 100 100 100 100 100 100 100 100 100 100 96 13 7 5 5 5 6 7 5 5
100 100 100 100 100 100 100 100 100 100 100 100 100 100 100 100 100 100 100 100 100 100 100 100 100 100 100 100 100 100 97 100 95 96 83 22 14 75 5 42 5 5 5
98 86 99 100 87 100 100 100 100 100 100 100 100 100 100 100 100 100 100 100 100 100 100 100 100 100 100 100 100 100 97 100 100 100 100 100 97 5 86 74 5 93 94
100 87 47 100 78 98 100 100 100 100 100 100 100 100 100 100 100 100 100 100 100 100 100 100 100 100 100 100 100 97 100 100 100 100 100 32 21 99 28 78 50 88 92
100 100 100 100 100 100 100 100 100 100 100 100 100 100 100 100 100 100 100 100 100 100 100 100 100 100 100 97 100 100 100 100 100 53 19 96 88 93 100 99 66 68 32
100 100 100 100 100 100 100 100 100 100 100 100 100 100 100 100 100 100 100 100 100 100 100 100 100 100 100 100 100 100 100 27 71 97 100 95 86 20 10 5 5 64 93
100 100 100 100 100 100 100 100 100 100 100 100 100 100 100 100 100 100 100 100 100 100 100 100 92 64 19 57 96 98 100 97 87 96 35 5 4 0 3 5 23 88 100
100 100 100 100 100 100 100 100 100 100 100 100 100 100 100 100 100 100 100 100 95 93 47 47 48 98 100 100 100 65 5 40 66 5 3 0 0 2 5 5 5 82 100
100 100 100 100 100 100 100 100 100 100 100 100 100 100 100 100 100 100 91 100 100 100 100 100 55 90 100 90 99 41 56 70 3 0 4 5 5 5 5 5 5 6 55
100 100 97 98 100 98 31 37 100 97 94 42 100 98 100 100 100 100 98 94 100 98 100 100 99 68 12 5 3 5 6 4 5 5 5 5 5 5 5 5 5 5 6
49 10 40 88 100 98 98 92 95 83 80 73 63 40 83 88 97 99 100 100 94 74 30 5 5 5 5 5 0 0 0 2 9 7 13 20 8 38 5 5 80 76 100
5 51 50 53 80 99 88 98 100 100 93 84 88 86 86 96 93 84 94 67 73 21 25 5 5 5 5 1 0 1 3 5 5 5 87 100 87 66 66 14 87 100 100
9 23 45 56 45 23 9 8 9 5 10 27 54 53 54 80 98 96 77 72 73 20 5 4 3 5 5 5 5 5 5 14 9 82 100 100 100 100 100 85 98 100 100
77 18 5 5 5 5 32 54 52 8 21 5 13 90 76 57 23 54 90 46 5 5 3 3 5 5 5 5 5 65 86 60 45 99 100 99 100 100 100 91 97 98 100
5 5 5 8 57 36 38 12 5 5 5 5 5 5 5 5 7 62 6 5 5 2 0 1 5 5 5 64 85 95 98 88 90 90 96 97 99 100 96 98 100 100 96
7 7 20 7 5 5 5 5 5 5 5 9 6 32 28 6 6 5 5 3 0 0 0 5 5 9 58 88 90 88 92 99 100 94 90 100 100 100 99 100 100 100 100
23 32 5 5 6 20 26 53 17 5 16 5 17 13 5 5 5 1 0 0 0 0 1 5 5 40 72 93 87 90 98 90 92 99 95 97 99 99 100 100 100 100 100
24 32 48 75 93 67 16 5 5 5 5 5 5 5 12 21 4 0 0 0 2 5 5 5 30 39 63 78 99 97 98 88 94 99 97 99 100 99 99 100 100 100 100
60 70 89 98 61 8 5 5 5 5 5 5 5 1 4 3 1 5 5 5 5 5 5 10 38 51 48 65 77 100 98 99 98 100 92 98 100 100 100 100 92 100 100
89 98 61 76 68 6 5 5 5 5 5 2 0 0 0 3 5 5 5 5 5 5 5 20 63 37 19 41 54 96 100 92 100 100 100 96 99 91 94 98 100 100 100
89 100 72 40 12 26 6 5 5 5 5 4 1 4 5 5 5 5 5 20 6 47 5 38 31 14 5 5 5 92 100 100 100 100 100 100 100 99 100 100 100 100 100
100 100 98 70 32 7 5 5 5 5 4 5 5 5 5 5 11 20 35 33 50 39 24 5 5 7 8 5 5 81 100 100 100 100 100 100 100 99 100 100 100 100 92
100 100 100 34 18 5 5 5 5 5 5 5 16 57 26 30 5 42 18 46 40 44 44 17 5 5 5 5 59 90 100 100 100 100 100 100 100 100 100 100 100 100 100

GFSGL_prec_cloud_033.txt.gz
Cloud_Cover
0 0 0 0 49 81 100 100 100 96 99 98 94 63 46 96 100 100 100 100 100 100 100 100 100 100 100 100 100 100 100 100 100 100 100 100 100 96 86 80 69 8 16
0 0 1 8 49 100 100 100 100 100 100 100 100 100 100 100 100 100 100 100 100 100 100 100 100 100 100 100 100 100 100 100 100 100 100 100 100 100 100 70 86 72 8
1 2 4 7 75 100 100 100 100 100 100 100 100 100 100 100 100 100 100 100 100 100 100 100 100 100 100 100 100 100 100 100 100 100 100 100 100 100 100 100 81 98 81
10 24 18 41 100 100 100 50 100 100 100 100 88 91 78 100 100 100 100 100 100 100 100 100 100 100 100 100 100 100 100 100 100 100 100 100 100 100 96 100 100 100 100
50 48 67 47 98 86 84 100 100 100 100 100 100 96 97 100 100 100 100 100 100 100 100 100 100 100 100 100 100 100 100 100 100 100 100 100 99 100 100 100 96 100 100
100 76 5 5 5 33 64 100 100 100 100 100 100 100 100 100 100 100 100 100 100 100 100 100 100 100 100 100 100 100 100 100 100 100 100 100 96 100 99 100 100 89 100
100 98 80 97 99 100 100 100 100 100 100 100 100 100 100 100 100 100 100 100 100 100 100 100 100 100 100 100 100 100 100 100 100 100 100 100 100 100 100 100 97 100 100
100 100 98 99 100 100 100 100 100 100 100 100 100 100 100 100 100 100 100 100 100 100 100 100 100 100 100 100 100 100 100 100 100 100 98 100 100 100 100 98 82 86 88
100 100 100 100 100 100 100 100 100 100 100 100 100 100 100 100 100 100 100 100 100 100 100 100 100 100 100 100 100 100 95 48 92 100 100 100 100 44 26 52 84 88 86
100 100 100 100 100 100 100 100 100 100 100 100 100 100 100 100 100 100 100 100 100 100 100 100 100 100 100 100 100 100 92 99 97 76 5 5 5 3 4 5 61 99 100
100 100 100 100 100 100 100 100 100 100 100 100 100 100 100 100 100 100 100 100 100 100 100 100 100 100 90 98 98 66 22 46 28 5 3 0 5 5 5 5 34 90 100
100 100 100 100 100 97 92 100 100 100 100 100 100 100 100 100 100 100 100 100 100 100 100 69 21 17 90 69 32 16 30 35 5 0 4 5 5 5 5 59 23 41 69
100 100 92 52 71 92 47 80 99 75 100 100 100 100 100 100 100 100 100 100 100 100 100 97 90 56 38 66 87 54 5 0 3 5 5 57 53 36 34 60 64 83 82
5 5 5 5 5 14 27 41 46 63 99 100 100 100 100 100 100 100 100 100 100 100 100 100 100 97 82 9 5 0 0 5 25 73 56 25 13 71 85 83 99 88 86
6 5 5 5 10 5 5 5 5 57 90 90 89 79 88 88 82 77 78 100 99 91 46 15 5 5 5 1 1 5 5 8 57 86 98 96 78 81 88 80 89 93 98
52 55 33 6 5 5 5 5 5 5 7 15 5 10 6 19 70 71 79 80 59 6 5 5 5 4 5 5 5 7 6 58 77 99 100 100 93 99 99 86 89 95 100
69 23 5 36 5 5 5 5 5 5 5 5 5 5 5 6 19 45 55 25 5 5 4 0 5 5 5 75 95 100 98 89 86 100 100 100 100 100 100 95 91 97 97
42 26 53 40 5 5 5 5 5 5 5 5 5 5 12 48 41 63 5 5 5 0 0 3 5 5 36 97 98 100 100 100 100 100 100 100 100 100 98 99 94 100 100
49 31 32 11 28 40 43 55 9 5 5 5 5 5 5 9 5 5 5 1 0 0 0 4 5 5 42 95 100 100 100 100 100 100 100 100 100 100 99 100 100 98 100
77 93 78 65 92 100 86 55 5 5 5 5 5 5 5 5 5 0 0 0 0 0 1 5 5 5 34 78 88 100 100 100 99 100 100 100 100 100 100 100 100 100 96
100 85 88 96 95 46 29 5 5 5 5 5 5 5 5 5 5 0 0 4 5 5 5 5 5 5 5 59 69 78 91 100 98 100 100 100 100 100 99 100 100 100 100
100 99 75 90 48 15 28 5 5 5 5 5 5 5 5 5 0 5 5 5 5 5 5 5 13 5 27 57 51 80 89 93 94 100 100 100 100 100 94 100 100 92 79
100 100 96 64 100 93 82 10 8 5 5 11 5 5 5 5 5 5 5 5 5 5 5 13 59 31 30 8 36 77 92 75 100 100 100 100 100 99 98 100 99 100 100
100 100 79 100 100 100 54 28 11 5 8 31 5 5 5 5 5 5 5 5 5 5 5 5 7 5 5 5 10 33 62 100 100 100 100 100 98 94 100 100 100 100 100
100 100 96 100 100 100 40 5 5 5 50 41 5 5 5 5 5 5 5 7 24 45 5 5 5 5 5 5 5 19 84 100 100 100 100 100 100 100 100 100 100 100 100
100 100 100 100 66 52 43 11 6 51 62 39 5 5 5 15 9 47 32 50 60 48 30 5 5 5 5 18 68 90 100 100 100 100 100 100 100 100 100 100 100 100 100

GFSGL_prec_cloud_036.txt.gz
Cloud_Cover
0 0 0 0 0 0 14 100 100 100 100 100 100 100 100 100 100 100 100 100 100 100 100 100 100 100 100 100 100 100 100 100 100 100 100 100 100 100 100 100 86 88 100
0 0 0 0 0 2 99 100 100 100 100 100 100 100 100 100 100 100 100 100 100 100 100 100 100 100 100 100 100 100 100 100 100 100 100 100 100 100 100 100 100 100 100
0 0 0 1 1 3 39 75 81 100 100 100 100 100 100 100 100 100 100 100 100 100 100 100 100 100 100 100 100 100 100 100 100 100 100 100 100 100 100 100 100 100 100
2 0 0 36 54 35 5 56 74 100 100 100 100 100 100 100 100 100 100 100 100 100 100 100 100 100 100 100 100 100 100 100 100 100 100 100 100 100 100 100 100 100 100
25 10 5 5 38 43 21 29 34 34 88 100 92 100 100 100 100 100 100 100 100 100 100 100 100 100 100 100 100 100 100 100 100 100 100 100 100 100 100 100 100 100 100
16 7 96 58 27 95 69 56 90 64 10 24 100 100 100 100 100 100 100 100 100 100 100 100 100 100 100 100 100 100 86 100 99 100 100 100 100 100 100 100 100 100 100
70 68 87 100 68 99 100 100 100 96 98 100 100 100 100 100 100 100 100 100 100 100 100 100 100 100 100 100 100 100 100 100 100 100 100 87 90 100 100 100 100 100 100
100 98 88 78 79 100 100 100 100 100 100 100 100 100 100 100 100 100 100 100 100 100 100 100 100 100 100 100 100 100 100 100 100 100 96 100 100 100 100 100 92 93 93
100 100 91 99 99 100 100 100 100 100 100 100 100 100 100 100 100 100 100 100 100 100 100 100 100 100 100 100 88 100 100 100 100 100 100 100 100 51 48 76 67 98 95
100 100 100 100 100 100 100 100 100 100 100 100 100 100 100 100 100 100 100 100 100 100 100 100 100 100 92 100 100 100 100 100 100 100 59 24 5 15 17 5 82 96 100
100 100 100 100 100 99 100 100 100 100 100 100 100 100 100 100 100 100 100 100 100 100 100 100 100 100 100 100 100 100 100 100 100 100 73 83 51 5 5 21 57 82 100
100 96 91 92 97 83 66 69 66 33 81 100 100 100 100 100 100 100 100 100 100 100 100 100 100 100 100 100 100 100 100 100 98 34 2 5 5 54 87 88 89 87 90
84 100 24 14 6 5 5 5 5 5 5 8 17 51 86 100 100 100 100 100 100 100 100 100 100 100 68 59 30 10 5 2 0 4 5 52 91 85 88 87 83 97 100
5 4 5 5 5 5 5 2 5 5 5 17 37 30 27 28 20 18 52 56 43 17 24 32 34 14 5 4 0 0 0 2 5 38 61 16 5 56 96 97 94 93 93
5 5 10 15 17 5 0 5 5 4 5 5 5 5 5 5 5 5 5 18 43 65 60 31 6 5 0 0 0 3 5 5 35 96 93 88 80 79 90 93 94 96 100
67 44 46 41 28 5 5 5 5 5 5 5 5 5 5 5 8 40 50 62 62 26 8 5 0 0 0 1 5 8 58 85 98 90 94 100 98 99 98 97 100 100 100
98 66 34 34 5 5 14 5 5 5 7 5 5 28 6 5 6 6 43 23 5 5 2 0 0 5 5 46 99 99 95 100 92 99 100 100 100 100 100 100 100 100 100
100 98 67 14 17 7 9 15 32 51 7 11 5 5 9 44 29 25 5 5 5 2 0 1 5 5 36 94 96 100 99 99 100 100 100 100 100 100 100 100 100 100 100
100 100 73 65 75 62 63 80 83 24 12 14 5 5 6 48 75 41 36 5 2 0 0 1 5 5 82 99 100 100 99 95 96 100 100 100 100 100 100 100 100 100 100
100 100 99 92 97 95 100 100 100 51 56 10 5 5 5 23 31 71 10 5 0 0 5 5 5 5 67 96 100 100 100 95 96 98 100 100 100 100 100 100 100 100 100
100 100 100 100 100 82 100 100 100 99 42 8 5 5 5 5 60 18 5 4 1 5 5 5 5 5 48 76 94 82 80 81 87 94 97 100 100 100 100 100 100 100 100
100 100 100 100 100 81 100 100 100 41 44 6 5 5 5 17 16 5 5 5 5 5 5 5 5 5 32 68 69 69 69 61 15 61 96 100 100 100 100 100 100 100 100
100 100 100 100 100 96 100 100 100 78 40 27 10 5 5 45 6 5 5 5 5 5 5 5 5 5 5 51 77 94 86 9 17 91 100 100 100 100 100 100 100 100 100
100 100 100 100 100 100 100 100 100 35 55 48 5 5 8 10 5 5 5 5 5 5 5 5 5 5 5 5 6 12 14 48 90 100 100 100 100 100 100 100 100 100 100
100 100 100 100 100 100 100 100 65 61 67 7 5 5 5 5 5 5 5 5 33 52 8 6 10 7 6 5 43 94 100 100 100 100 100 100 100 100 100 100 100 91 100
100 100 100 93 81 100 100 82 83 58 21 18 9 12 7 59 60 86 98 97 99 98 88 83 67 32 41 92 100 100 100 100 100 100 100 100 100 100 100 100 100 97 100

GFSGL_prec_cloud_039.txt.gz
Cloud_Cover
5 5 5 5 5 2 0 6 69 92 93 86 100 100 100 100 100 100 100 100 100 100 100 100 100 100 100 100 100 100 100 100 100 100 100 100 100 100 100 100 100 100 100
72 11 1 0 3 33 34 58 100 100 100 100 100 100 99 100 100 100 100 100 100 100 100 100 100 100 100 100 100 100 100 100 100 100 100 100 100 100 100 100 100 100 100
0 0 0 17 49 59 8 3 30 52 54 38 38 97 98 95 100 100 100 100 100 100 100 100 100 100 100 100 100 100 100 100 100 100 100 100 100 100 100 100 100 100 69
2 0 7 35 18 0 0 4 4 2 8 42 24 19 38 100 100 100 100 100 100 100 100 100 100 100 100 100 100 100 100 100 100 100 100 100 100 100 100 100 100 96 100
21 10 29 43 29 5 4 9 9 2 12 38 27 40 70 76 100 100 100 100 100 100 100 100 100 100 100 100 100 100 100 100 100 100 100 100 100 100 96 97 99 100 100
71 94 94 96 81 61 62 55 73 99 100 100 100 100 80 93 99 100 100 100 100 100 100 100 100 100 100 100 100 100 100 100 100 100 99 92 100 100 100 100 100 100 100
100 98 96 91 87 73 73 100 100 100 100 100 100 100 100 100 100 100 100 100 100 100 100 100 100 100 100 100 100 100 100 100 90 100 97 100 100 100 100 100 100 100 100
100 100 88 84 78 97 100 100 100 100 100 100 100 100 100 100 100 100 100 100 100 100 100 100 100 100 100 100 100 100 100 100 100 100 100 100 100 100 99 98 100 100 100
100 100 100 98 100 100 100 100 100 100 100 100 100 100 100 100 100 100 100 100 100 100 100 100 100 100 100 100 100 100 100 100 100 100 100 100 100 100 100 100 98 58 62
100 100 100 100 100 100 100 100 100 100 100 100 100 100 99 98 92 99 100 100 100 100 100 100 100 100 100 100 100 100 100 100 100 100 100 100 100 71 46 41 10 5 90
100 100 100 100 100 99 100 100 100 100 98 78 67 79 94 48 97 100 100 100 100 100 100 100 100 100 100 100 100 100 100 100 100 100 100 94 61 4 5 5 5 20 81
100 99 100 100 93 84 71 63 28 4 0 0 0 1 5 5 70 100 99 100 100 100 100 100 87 98 55 66 64 46 40 11 9 2 0 0 4 5 8 83 93 97 100
73 21 7 5 0 4 0 4 0 0 0 0 0 0 0 0 3 4 5 5 5 5 5 14 61 88 88 76 14 6 5 0 0 0 2 5 34 62 9 9 88 99 99
5 21 5 0 0 2 5 5 0 0 0 0 0 4 5 5 5 5 5 5 21 19 30 81 30 5 5 5 0 0 0 0 1 5 5 5 5 5 5 47 100 100 100
10 98 32 5 4 13 22 5 0 1 5 5 5 5 5 5 5 5 11 6 5 6 7 5 5 5 5 1 0 0 2 5 6 76 93 79 84 87 90 95 100 100 100
5 20 68 46 46 95 48 5 5 5 5 5 5 5 5 5 5 5 25 37 56 85 34 5 5 5 0 1 4 7 47 91 90 99 100 100 100 100 100 100 100 100 100
31 35 68 100 100 66 19 22 5 6 5 5 5 5 5 5 7 21 58 57 49 5 5 5 5 2 5 5 40 87 100 100 100 100 100 100 100 100 100 100 100 100 100
12 88 100 100 100 93 67 58 62 34 15 24 6 5 5 5 5 5 5 5 5 5 5 5 4 5 5 5 66 100 100 100 100 100 100 100 100 100 100 100 100 100 100
62 48 76 93 97 100 100 96 98 98 99 96 42 20 5 29 21 5 5 17 5 5 5 5 0 4 5 5 59 100 100 100 100 100 100 100 100 100 99 99 100 99 100
71 74 97 96 100 100 100 100 98 62 56 51 25 40 19 41 44 20 5 6 5 5 5 2 2 5 5 5 17 87 95 87 74 79 82 98 100 100 100 99 100 100 100
84 68 68 100 100 100 100 100 83 72 61 55 48 25 34 54 41 5 5 5 5 5 5 3 5 5 5 5 5 54 58 54 53 58 72 69 90 100 99 99 100 100 100
94 79 97 100 100 100 90 100 100 100 100 100 38 47 76 37 5 5 5 5 5 5 5 5 5 5 5 5 19 64 72 60 7 5 9 47 98 100 100 100 100 100 100
94 85 100 99 100 100 100 100 100 100 100 91 56 59 17 5 5 5 5 5 5 5 5 5 5 5 5 5 5 60 100 82 44 93 100 100 100 100 100 100 100 100 100
94 92 100 100 100 100 100 100 100 100 100 94 71 44 22 29 13 6 5 5 5 5 16 5 5 5 5 5 5 5 19 96 100 100 100 100 100 100 100 99 99 99 99
93 98 100 100 100 100 100 100 100 100 100 100 94 50 31 18 10 5 5 5 6 15 10 6 5 5 5 5 5 8 43 100 100 100 100 100 100 100 100 100 100 100 100
100 100 100 100 100 100 100 100 100 100 100 94 54 30 21 5 5 26 82 99 97 95 82 64 42 5 16 54 69 97 100 100 100 100 100 100 100 100 100 100 100 100 100

GFSGL_prec_cloud_042.txt.gz
Cloud_Cover
100 100 97 56 92 86 77 7 28 78 77 69 51 5 13 98 100 100 100 100 100 100 100 100 100 100 100 100 100 100 100 100 100 100 100 100 100 100 100 100 100 100 100
100 100 46 99 51 100 85 5 31 100 100 48 92 91 100 100 100 100 100 100 100 100 100 100 100 100 100 100 100 100 100 100 100 100 100 100 100 100 100 100 100 100 100
100 100 81 8 5 53 5 5 0 2 0 0 0 7 76 94 99 100 73 70 100 100 100 100 100 100 100 100 100 100 100 100 100 100 100 100 100 100 100 100 100 100 100
100 97 38 5 3 5 1 0 0 0 0 0 0 7 17 36 43 64 97 98 100 100 100 100 100 100 100 100 100 100 100 100 100 100 100 100 100 100 100 100 100 100 100
49 24 52 48 1 5 0 1 2 30 65 39 41 66 53 96 84 78 26 95 95 100 100 100 100 100 100 100 100 100 100 100 100 100 100 100 100 100 100 100 100 100 97
100 100 100 69 100 100 98 100 52 44 36 92 98 74 100 86 99 100 47 85 89 100 100 100 100 100 100 100 100 100 100 100 100 100 100 100 100 100 100 99 90 100 100
100 71 83 100 100 100 100 100 100 100 100 100 100 100 100 100 100 100 89 100 100 100 100 100 100 100 100 100 100 100 100 100 100 100 100 100 100 100 89 94 99 100 100
100 100 100 100 100 100 100 100 100 100 100 100 100 100 100 100 100 100 87 64 66 99 100 100 100 100 100 100 100 100 100 100 100 100 100 100 100 100 100 100 100 100 100
100 100 100 100 100 100 100 100 100 100 100 100 100 100 100 100 100 87 39 65 58 86 100 100 100 100 100 100 100 100 100 100 100 100 100 100 100 100 100 100 100 100 100
100 100 100 100 100 100 100 100 100 100 100 100 100 97 45 19 58 10 5 5 34 67 78 100 100 100 100 100 100 100 100 100 100 100 98 96 91 92 71 49 25 5 64
100 98 97 100 100 100 100 100 100 96 25 16 97 86 58 13 5 5 2 0 0 0 2 4 4 5 5 30 32 5 7 13 5 5 5 5 5 3 1 5 5 5 64
100 100 100 100 86 88 50 99 68 12 4 0 0 2 1 1 3 4 5 3 4 5 5 5 5 7 5 5 5 5 6 5 5 5 5 5 5 4 5 5 14 52 91
18 5 0 5 91 10 4 5 0 0 5 0 0 0 1 4 0 0 5 5 5 5 5 5 41 28 8 6 5 5 5 5 5 5 0 5 5 5 5 5 5 63 98
0 0 0 9 100 96 16 1 2 6 5 5 2 0 4 5 4 3 5 5 5 5 10 5 5 5 5 5 5 5 3 5 4 4 5 5 5 5 5 9 44 97 100
0 0 3 5 46 55 6 5 20 58 46 12 5 5 5 5 5 5 5 5 5 5 5 5 5 5 5 5 0 0 0 5 5 5 6 77 97 99 100 100 100 100 100
1 4 3 5 11 8 72 70 92 99 99 21 5 5 5 7 6 5 5 5 10 39 5 5 5 5 5 0 0 1 5 48 88 98 100 100 97 98 100 100 100 100 100
5 5 5 5 28 100 100 100 100 100 100 91 60 30 76 47 39 6 5 5 5 5 5 5 5 5 5 5 5 5 92 100 100 100 100 100 100 100 100 100 100 100 98
5 5 8 6 5 32 77 100 100 100 100 100 81 75 72 36 13 5 5 5 13 7 14 5 5 5 5 5 5 5 98 100 100 100 100 100 100 100 100 100 100 100 100
37 10 5 5 9 59 81 100 100 100 100 90 89 79 49 21 56 46 5 14 7 16 13 5 5 5 5 5 5 28 62 98 100 100 98 88 86 100 100 100 92 98 100
80 76 65 28 5 47 99 86 100 100 100 88 98 95 63 66 75 46 20 24 20 5 5 5 5 5 5 5 7 31 33 9 6 15 5 5 34 56 100 100 99 100 100
97 91 79 64 81 69 98 100 100 97 81 92 90 56 75 100 49 22 5 5 5 5 5 5 5 5 5 5 47 12 5 5 22 5 24 26 80 99 100 100 100 100 100
100 96 92 75 91 83 77 98 100 100 100 100 100 86 63 68 94 29 5 19 5 5 5 5 5 5 5 5 5 32 53 63 64 31 44 84 100 100 100 100 100 100 100
100 98 100 100 97 97 84 96 100 99 100 100 100 100 95 100 67 22 44 10 7 7 5 5 5 5 5 5 5 5 18 75 65 69 98 100 100 100 100 100 100 100 100
100 100 100 99 93 91 87 92 83 98 100 100 100 100 100 100 100 96 49 7 35 7 5 5 5 5 5 5 5 5 5 48 89 99 100 100 100 100 100 100 100 100 100
98 100 100 88 100 99 99 86 100 100 100 100 100 100 100 100 98 61 33 21 21 61 18 5 5 5 5 11 55 70 81 100 100 100 100 100 100 100 100 100 99 100 100
100 100 100 92 100 100 88 96 94 100 100 100 100 97 70 71 53 18 43 51 99 98 48 11 16 40 79 65 57 71 100 100 100 100 100 100 100 100 100 100 100 100 100

GFSGL_prec_cloud_045.txt.gz
Cloud_Cover
100 100 100 95 76 100 94 58 100 100 100 74 44 52 19 13 6 1 10 12 92 98 93 100 100 100 100 100 100 100 100 100 100 100 100 100 100 100 100 100 100 100 100
100 100 99 49 100 100 100 100 100 100 90 87 47 76 0 7 99 97 100 100 100 93 96 95 100 100 100 100 100 100 100 100 100 100 100 100 100 100 100 100 100 100 100
100 100 100 100 100 100 100 100 87 7 5 5 5 1 0 1 35 99 100 97 100 100 100 100 100 100 100 100 100 100 100 100 100 100 100 100 100 100 100 100 100 100 100
100 100 100 100 100 100 100 31 5 2 3 0 0 0 0 0 0 2 24 75 80 93 100 100 100 100 100 100 100 100 100 100 100 100 100 100 100 100 100 100 100 100 100
100 100 100 100 100 98 68 4 5 2 39 83 35 68 44 48 46 0 9 29 43 94 100 100 100 100 100 100 100 100 100 100 100 100 100 100 100 100 100 100 100 100 100
100 100 100 100 100 100 100 100 100 100 86 63 89 67 77 100 100 100 66 86 78 100 100 100 100 100 100 100 100 100 100 100 100 100 100 100 100 100 100 100 97 97 100
100 100 100 100 100 100 100 100 100 100 100 100 100 100 100 100 100 100 79 100 100 100 100 99 93 100 100 100 100 100 100 100 100 100 90 100 99 99 100 94 100 97 100
100 100 100 100 100 100 100 100 100 100 100 100 100 100 100 100 100 100 56 21 51 57 47 35 33 75 67 90 100 100 96 100 100 100 99 99 100 100 100 100 100 100 100
100 100 100 100 100 100 100 100 100 100 100 100 100 100 100 100 65 9 28 13 15 32 29 7 5 5 7 7 16 15 56 94 100 100 100 100 100 100 100 100 100 92 77
100 100 100 100 100 100 100 100 100 100 100 100 57 32 5 5 5 2 5 5 5 5 4 0 1 2 5 5 5 5 5 16 45 74 75 25 5 5 5 5 5 49 70
94 100 100 100 100 99 100 100 77 13 53 100 100 90 7 1 5 5 2 0 0 0 0 0 4 6 5 14 65 5 7 85 8 5 5 5 5 5 5 5 5 5 57
100 100 100 60 72 100 99 93 100 78 5 1 1 0 4 0 0 4 5 5 5 0 0 5 5 7 5 5 5 5 5 5 5 4 2 2 5 5 5 5 5 8 11
62 34 6 3 0 0 6 85 100 99 10 3 0 3 17 5 5 0 4 5 5 5 5 11 5 5 5 5 5 5 5 1 0 2 0 5 21 5 6 16 5 5 5
5 5 0 0 0 0 4 5 8 37 7 5 5 30 32 38 6 5 5 5 7 39 5 5 5 5 5 5 5 5 5 0 2 5 5 5 5 8 21 41 67 81 41
5 4 0 0 0 2 2 5 5 7 13 5 6 18 50 27 18 43 53 89 73 41 20 33 20 6 5 5 5 5 0 4 13 33 70 89 99 100 98 98 100 90 97
5 5 5 4 4 5 5 5 6 45 39 39 62 89 99 93 92 100 100 100 100 94 64 45 6 5 5 5 4 0 5 6 58 100 100 100 100 100 100 100 100 93 96
13 56 6 5 5 5 5 5 9 19 9 48 91 100 100 100 100 100 100 100 71 9 7 5 5 5 5 5 5 48 35 12 100 100 100 100 100 100 100 98 98 94 100
73 85 66 40 58 65 63 62 62 81 90 72 69 100 100 100 100 100 78 18 15 5 5 5 5 5 5 5 5 32 7 5 46 99 100 100 100 100 92 89 87 99 100
100 84 78 77 77 68 58 21 47 81 92 95 97 96 64 58 79 85 65 50 9 6 5 5 5 5 5 5 5 5 58 30 14 73 79 80 42 64 100 99 99 92 100
100 100 88 83 96 86 69 67 61 78 70 90 99 100 100 100 100 98 85 62 52 8 5 9 5 5 5 5 5 5 40 10 21 33 40 50 48 61 100 100 98 100 100
100 100 100 100 100 96 82 84 72 64 73 90 96 100 100 94 89 42 32 61 56 5 12 12 11 5 5 6 50 56 53 12 24 63 72 91 76 100 85 100 100 100 100
100 100 100 100 100 99 92 100 92 74 92 86 95 100 99 100 67 37 14 5 5 37 34 28 41 5 5 5 5 9 52 33 46 45 69 70 85 99 100 100 100 100 100
100 100 100 100 100 100 100 100 97 95 91 85 98 98 100 93 56 12 28 9 18 38 5 5 5 5 5 9 5 5 46 55 17 87 97 100 100 100 100 100 100 100 100
100 100 100 100 100 100 100 98 96 86 88 100 100 100 100 98 95 50 48 14 7 5 5 5 5 9 5 5 12 46 54 86 87 96 100 100 100 100 100 100 100 100 100
100 100 100 100 100 100 100 100 100 100 74 90 96 100 100 100 87 37 20 17 47 62 71 5 40 22 22 5 18 32 82 100 100 100 100 100 100 100 99 100 100 100 100
100 100 100 100 100 100 100 100 100 100 99 100 100 100 100 99 89 35 60 58 26 5 5 16 15 9 16 27 54 73 100 100 100 100 100 100 100 100 100 100 100 100 100

GFSGL_prec_cloud_048.txt.gz
Cloud_Cover
99 100 100 100 100 100 100 100 100 100 100 70 88 93 19 5 5 30 18 16 42 99 88 100 100 100 100 100 100 99 89 100 100 100 100 100 100 100 100 100 100 100 100
100 100 100 100 100 100 100 100 100 86 83 100 93 10 5 5 5 7 2 1 15 95 100 100 100 100 100 100 100 100 100 100 100 100 100 100 100 100 100 100 100 100 100
100 100 100 100 100 100 100 100 100 98 99 60 25 21 53 10 18 0 31 67 95 100 98 100 100 100 100 100 100 100 100 100 100 100 100 100 100 100 100 100 100 100 100
100 100 100 100 93 100 100 100 100 99 77 31 50 31 12 3 0 0 0 0 6 96 100 100 100 98 100 100 100 100 100 100 100 100 100 100 100 100 100 100 100 100 100
100 98 96 100 100 100 62 100 100 100 100 70 13 27 83 99 70 15 39 86 93 99 99 100 95 99 97 100 100 99 100 100 100 100 100 100 100 100 100 100 100 100 100
100 100 100 100 100 100 100 100 100 100 100 95 87 100 100 100 100 100 100 100 100 100 100 100 100 100 100 100 100 100 100 100 100 100 100 100 100 100 98 100 100 96 77
100 100 100 100 100 100 100 100 100 100 100 100 100 100 100 98 100 99 100 100 100 100 89 53 79 81 70 59 70 86 90 100 85 69 59 70 70 33 9 20 87 84 74
100 100 100 100 100 100 100 100 100 100 100 100 100 100 100 100 99 68 28 40 52 59 45 40 31 20 41 32 24 7 5 5 4 9 49 10 5 5 8 92 92 99 93
100 100 100 100 100 100 100 100 100 100 100 100 100 100 92 12 5 5 28 33 9 14 8 5 4 4 5 5 5 5 5 5 5 23 12 5 8 39 22 43 66 63 23
100 100 100 100 100 100 100 100 100 100 100 36 16 54 7 5 5 5 2 5 5 3 0 0 4 5 7 31 5 5 5 5 5 5 6 5 5 2 5 5 5 44 77
100 100 100 100 100 100 100 100 90 99 100 100 96 74 5 4 4 5 4 5 5 5 0 0 5 5 9 5 5 5 5 46 5 5 5 3 0 0 0 2 3 5 51
100 100 100 100 100 100 94 97 87 25 11 19 23 67 11 3 0 3 5 64 71 37 5 5 6 6 5 5 5 5 5 5 5 2 0 0 2 5 5 7 5 15 43
100 100 100 50 74 100 61 28 5 4 0 2 5 5 5 5 5 10 72 69 64 39 48 68 66 49 5 5 18 5 5 5 2 3 0 5 20 5 40 15 5 5 5
100 100 97 42 5 5 5 0 0 0 0 1 5 5 5 46 44 57 98 99 60 62 85 66 26 5 5 21 5 5 5 4 2 5 5 5 5 47 73 90 96 100 90
100 100 80 55 5 5 5 0 0 0 5 1 2 5 5 5 40 65 78 78 80 100 76 57 53 14 31 5 5 5 5 5 5 15 66 95 100 100 100 96 100 100 96
100 100 100 98 29 5 5 5 5 5 5 5 5 5 29 5 5 30 89 100 80 89 98 91 32 40 40 33 5 5 5 7 5 89 100 100 100 100 100 100 94 82 98
100 100 100 100 100 5 5 5 5 5 5 5 45 52 91 98 83 79 98 100 100 100 100 98 51 55 11 5 5 53 42 5 5 6 100 100 100 100 100 98 64 90 83
100 100 100 100 100 60 54 16 5 6 5 5 5 5 49 100 99 96 100 100 100 94 36 62 56 31 20 5 5 39 6 5 41 5 43 71 98 96 94 99 100 99 100
100 98 100 100 100 78 67 68 42 28 34 5 5 5 9 60 100 97 47 23 26 42 71 62 14 5 5 5 5 5 54 15 50 71 75 85 82 89 94 98 97 48 73
100 100 100 100 100 100 78 76 80 76 74 56 17 14 47 44 56 55 34 63 52 53 78 33 6 12 23 15 5 12 25 10 36 54 63 66 59 77 100 99 91 100 99
100 100 100 100 100 100 99 88 91 70 84 66 56 92 100 69 56 51 40 52 22 37 17 14 14 68 60 5 5 5 5 5 23 24 55 60 68 98 86 94 100 100 100
100 100 100 100 100 100 100 100 100 75 77 76 66 100 100 94 93 67 58 90 58 17 48 34 69 70 18 6 5 17 57 59 19 43 62 64 81 98 100 100 100 100 100
100 100 100 100 100 100 100 100 100 86 92 75 100 100 100 88 72 79 82 77 30 80 66 78 70 15 11 7 7 19 87 86 54 93 94 100 100 100 100 100 100 100 100
100 100 100 100 100 100 100 100 96 100 100 100 100 100 100 100 100 100 92 85 66 97 76 32 26 55 29 13 12 50 74 85 89 92 94 100 100 100 100 100 100 100 100
100 100 100 100 100 100 100 100 100 100 100 100 100 100 100 100 100 100 100 100 100 99 83 75 59 22 18 70 52 74 98 100 100 100 100 100 100 100 100 100 100 100 100
100 100 100 100 100 100 100 100 100 100 100 100 100 100 100 100 100 100 100 100 100 98 98 92 46 74 100 56 61 94 100 100 100 100 100 100 100 100 100 100 100 100 99

GFSGL_prec_cloud_051.txt.gz
Cloud_Cover
89 83 82 92 78 71 94 100 100 100 100 100 95 88 87 69 51 5 23 37 91 100 77 56 100 100 96 100 100 100 100 100 100 100 100 100 100 100 100 100 100 100 100
25 65 98 93 92 95 98 100 86 100 100 90 100 100 71 27 14 5 48 67 68 59 67 100 100 99 100 100 100 100 100 100 100 100 100 100 100 100 100 100 100 100 100
72 62 19 63 89 87 96 100 100 100 100 98 70 15 38 54 5 40 54 61 93 86 74 45 4 8 57 100 100 100 100 100 99 100 100 100 100 100 100 100 100 100 100
100 99 100 100 100 100 100 100 100 99 96 97 25 61 44 5 14 62 67 82 87 94 89 70 31 37 78 100 95 75 63 61 88 100 100 100 100 100 100 100 100 100 100
100 100 100 100 100 100 100 100 100 100 83 27 92 100 100 100 100 100 100 100 100 100 100 100 100 100 99 94 100 100 100 100 100 100 100 100 100 100 100 100 100 100 100
100 100 100 100 100 100 100 100 100 100 100 100 100 100 100 100 100 100 100 100 100 100 100 100 95 100 100 100 100 100 100 50 90 64 97 99 100 97 70 85 62 47 61
100 100 100 100 100 100 100 100 100 100 100 100 100 96 76 100 100 100 100 100 97 36 19 22 55 11 71 60 20 6 75 94 97 33 7 17 20 6 5 8 5 5 5
100 100 100 100 100 100 100 100 100 100 100 100 100 49 35 78 65 51 19 20 64 100 76 51 16 5 5 8 5 5 5 4 5 5 5 5 5 5 5 5 5 5 5
100 100 100 100 100 100 100 100 100 100 100 100 100 74 5 5 5 5 12 28 5 5 4 2 4 5 5 34 5 5 5 5 8 40 5 5 5 8 9 5 5 45 17
100 100 100 100 100 100 100 100 100 100 100 60 19 74 7 5 5 5 1 0 4 2 0 0 5 6 17 19 5 5 5 20 12 5 4 20 4 3 2 1 5 40 74
100 100 100 100 100 100 100 100 100 99 100 50 29 14 7 3 5 5 5 5 0 0 0 5 5 6 12 5 37 14 20 12 5 5 5 5 0 0 2 5 4 5 57
100 100 100 100 100 100 100 100 100 98 95 68 7 2 0 0 0 2 5 5 5 5 5 26 47 47 18 17 26 48 42 8 5 5 5 2 3 7 5 6 5 27 5
100 100 100 100 100 100 100 100 100 62 59 3 0 0 0 0 0 5 5 5 6 47 90 66 71 96 100 100 99 54 6 5 5 5 5 5 21 5 42 15 5 5 5
100 100 100 100 100 100 98 100 100 90 13 4 0 0 0 0 0 0 2 10 20 32 61 100 100 100 63 46 18 7 5 30 20 5 5 5 5 50 52 100 100 88 93
100 100 100 100 100 100 100 100 100 8 5 5 3 0 5 5 5 5 5 5 5 5 41 100 98 99 100 81 18 30 49 23 11 17 46 59 100 100 100 100 100 100 94
100 100 100 100 100 100 100 100 100 68 5 5 5 5 5 5 5 5 18 88 98 58 5 5 60 80 54 11 12 6 5 24 28 39 5 73 98 100 100 100 100 100 73
100 100 100 100 100 100 100 100 100 71 48 16 5 5 18 8 5 5 5 6 97 100 100 82 64 71 86 41 5 30 6 44 38 67 68 69 14 18 100 100 100 92 96
100 100 100 100 100 100 100 100 100 86 89 37 5 5 9 47 19 5 24 16 12 37 44 64 48 70 23 5 16 5 6 62 45 6 72 65 67 92 100 98 96 94 96
100 100 100 100 100 100 100 100 91 69 55 22 7 14 37 39 57 99 73 6 5 5 17 68 48 60 51 50 14 54 93 54 46 54 79 81 67 93 99 87 85 61 73
100 100 100 100 100 100 100 100 100 100 85 71 94 88 77 76 87 99 99 89 10 20 58 75 100 100 94 21 46 71 65 27 8 6 25 58 45 69 99 93 92 97 92
100 100 100 100 100 100 100 100 100 100 97 98 100 99 99 100 100 100 98 73 51 70 96 100 100 79 97 59 65 68 44 16 19 18 46 23 56 97 82 96 98 97 100
89 100 100 100 100 100 100 100 100 100 100 100 100 100 100 100 100 100 86 82 84 100 100 100 79 81 74 45 49 25 56 74 58 49 66 68 86 96 99 99 94 98 97
100 100 100 100 100 100 100 100 100 100 100 100 100 100 100 100 100 100 99 100 100 100 100 100 100 99 80 100 99 53 98 95 74 99 92 94 94 95 98 99 93 98 99
100 100 100 100 100 100 100 100 100 100 100 100 100 100 100 100 100 100 100 100 100 100 100 100 100 100 100 94 68 96 72 80 95 94 100 99 95 90 100 100 100 100 100
92 100 100 100 100 100 100 100 100 100 100 100 100 100 100 100 100 100 99 82 84 100 100 100 93 97 100 100 85 44 36 100 100 100 100 100 100 95 100 100 99 98 99
100 100 100 100 100 100 100 100 100 100 100 100 100 100 100 100 100 100 100 100 100 100 100 97 62 85 100 68 6 48 77 100 100 100 100 100 100 100 100 100 92 100 100

GFSGL_prec_cloud_054.txt.gz
Cloud_Cover
0 1 5 5 92 100 100 100 100 100 100 100 100 100 100 98 72 65 58 68 100 95 74 40 84 100 94 76 100 100 98 100 100 100 100 100 100 100 100 100 100 100 100
2 0 0 0 5 26 90 91 100 100 100 100 100 100 89 37 67 77 5 5 5 6 5 100 100 89 57 100 100 100 100 100 100 100 100 95 80 100 100 100 100 100 100
7 5 2 4 1 4 6 6 6 18 58 51 73 66 81 74 77 27 75 61 55 54 26 100 64 4 26 33 90 100 100 98 83 97 100 100 98 100 100 100 100 100 100
100 23 30 52 65 86 38 60 68 51 99 94 69 100 88 100 95 100 100 100 100 100 100 100 82 32 21 38 69 74 84 100 100 100 100 96 99 100 100 100 100 100 100
100 100 100 100 100 100 100 100 100 100 100 100 100 100 100 100 100 100 100 100 100 100 100 100 100 100 100 100 100 100 100 100 100 100 99 91 92 100 100 100 100 100 100
100 100 100 100 100 100 100 100 100 100 100 100 100 100 100 100 100 100 100 100 98 65 100 67 99 98 85 100 100 100 100 100 98 75 48 32 23 21 14 23 19 13 11
100 100 100 100 100 100 100 100 100 100 100 100 100 100 100 100 100 100 100 39 8 5 7 11 6 5 25 8 5 5 12 20 35 26 5 5 5 7 5 5 5 5 5
100 100 100 100 100 100 100 100 100 100 100 100 100 100 100 100 100 73 10 11 99 100 55 60 6 5 12 5 5 5 5 26 15 5 5 5 5 5 5 5 5 5 5
100 100 100 100 100 100 100 100 100 100 100 100 100 100 100 100 47 5 11 5 5 5 4 5 5 8 18 62 5 5 5 64 51 40 13 20 9 12 6 5 8 55 18
100 100 100 100 100 100 100 100 100 100 100 100 100 100 100 76 5 0 0 0 0 0 5 5 5 5 24 20 5 7 70 71 81 75 46 55 6 5 5 5 22 55 74
100 100 100 100 100 100 100 100 100 100 100 100 100 100 96 93 8 5 3 0 0 0 2 5 5 5 7 29 65 84 71 60 69 67 54 5 5 5 5 5 5 5 56
100 100 100 100 100 100 100 100 100 100 100 100 100 100 100 82 4 1 5 4 5 0 0 3 5 8 46 63 54 77 99 100 85 16 5 5 5 5 7 10 5 21 5
100 100 100 100 100 100 100 100 100 100 100 100 100 100 56 61 5 1 5 4 1 0 2 3 5 4 5 5 50 99 100 45 5 5 17 14 5 5 50 18 5 5 5
100 100 100 100 100 100 100 100 100 100 100 100 100 100 100 13 5 5 5 5 5 5 8 96 84 37 12 34 99 94 95 70 57 68 31 15 8 51 58 100 100 97 85
100 100 100 100 100 100 100 100 100 100 100 100 100 100 84 39 6 47 5 5 5 5 48 6 53 99 100 100 100 100 100 80 98 99 69 58 36 59 96 100 100 95 96
100 100 100 100 100 100 100 100 100 100 100 100 100 100 100 66 56 17 5 5 5 5 5 5 5 5 26 86 100 100 100 100 100 100 77 68 66 59 50 46 100 100 98
100 100 100 100 100 100 100 100 100 100 100 100 100 100 100 80 67 60 9 5 5 5 5 5 5 5 34 82 96 100 100 100 100 100 74 75 71 81 93 78 23 93 65
100 100 100 100 100 100 100 100 100 100 100 100 100 83 65 57 69 84 91 64 10 5 5 5 5 5 23 67 97 100 100 100 77 93 97 78 67 85 89 98 71 88 95
100 100 100 100 100 100 100 100 100 100 100 100 100 82 78 76 82 92 92 47 45 30 17 13 26 6 13 76 100 100 64 56 76 90 80 78 64 96 84 69 73 65 79
100 100 100 100 100 100 100 100 100 100 100 100 84 66 90 100 75 90 95 76 74 92 86 80 81 61 95 80 76 72 71 48 26 11 53 47 68 64 91 80 81 92 81
100 100 100 100 100 100 100 100 100 100 100 100 100 100 100 100 100 100 100 100 100 100 100 100 80 91 96 82 97 75 78 100 67 69 100 100 64 99 88 92 94 99 94
100 100 94 100 100 100 100 100 100 100 100 100 100 100 100 100 89 100 100 100 100 100 100 100 79 75 59 79 100 100 100 94 91 60 80 84 94 96 98 98 100 100 100
100 100 100 100 100 100 100 100 100 100 100 100 100 100 100 98 100 100 100 100 100 100 98 93 84 97 100 100 100 96 79 78 36 97 90 92 100 100 98 98 99 100 100
100 100 100 100 100 100 100 100 100 100 100 100 100 100 100 100 100 100 100 100 100 99 80 98 100 100 100 55 36 39 58 56 72 93 97 99 96 88 100 100 100 100 100
90 100 100 100 100 100 100 100 100 100 100 100 100 100 100 100 100 100 100 96 100 100 100 100 100 100 62 23 16 19 29 98 100 100 100 100 94 91 100 100 100 99 93
100 67 97 100 90 99 100 100 100 100 100 100 100 100 100 100 100 100 99 100 100 100 100 99 100 99 55 45 73 94 100 100 100 100 100 100 100 100 100 100 94 100 96

GFSGL_prec_cloud_057.txt.gz
Cloud_Cover
0 0 5 16 42 37 58 100 100 100 100 100 100 100 100 100 100 100 100 100 100 100 99 100 98 84 100 100 100 100 100 88 99 100 100 90 94 39 100 100 99 100 100
5 0 0 5 5 5 8 78 100 100 100 100 100 100 100 100 97 95 87 96 90 70 100 98 67 84 33 34 59 97 80 100 99 100 98 98 100 71 100 98 85 100 77
7 2 0 0 0 3 21 69 91 97 96 70 39 36 41 47 32 43 95 92 100 97 100 100 100 82 32 50 48 56 42 78 71 88 97 95 92 99 84 70 100 99 100
99 25 5 5 15 38 32 21 10 5 8 24 80 98 56 100 100 100 100 100 100 100 100 100 98 23 93 73 72 72 96 100 100 100 100 96 100 100 100 100 78 100 100
97 88 98 73 40 86 100 90 59 93 76 100 100 100 100 100 100 100 100 100 100 100 100 100 100 100 100 100 100 100 100 92 87 100 100 94 77 77 100 83 44 16 36
72 99 95 100 100 96 88 100 100 100 100 100 100 100 100 100 100 100 100 100 100 100 100 100 99 98 99 100 100 100 100 75 83 95 30 15 7 16 55 6 5 11 5
7 85 100 100 100 100 100 100 100 100 100 100 100 100 100 100 100 100 98 100 100 100 100 61 5 5 3 5 5 5 5 5 5 5 5 5 38 73 43 34 39 11 5
100 92 100 100 100 100 100 100 100 100 100 100 100 100 100 100 100 100 100 100 94 98 87 6 5 5 6 5 5 5 5 10 5 5 5 7 75 99 72 62 16 6 5
100 100 100 100 100 100 100 100 100 100 100 100 100 100 100 100 100 100 100 87 100 100 23 5 3 5 26 5 3 0 2 5 9 6 9 63 80 34 8 6 46 5 5
100 100 100 100 100 100 100 100 100 100 100 100 100 100 100 100 100 100 100 100 100 100 5 0 5 5 6 5 5 3 5 5 5 7 25 5 5 5 44 34 5 5 5
100 100 100 100 100 100 100 100 100 100 100 100 100 100 100 100 100 100 100 100 100 56 4 0 0 11 5 7 5 0 4 5 5 5 6 28 67 70 71 52 55 14 6
100 100 100 100 100 100 100 100 100 100 100 100 100 100 100 100 100 100 100 100 100 78 5 5 5 5 5 30 5 5 5 5 6 70 99 88 95 100 100 98 51 39 5
100 100 100 100 100 100 100 100 100 100 100 100 100 100 100 100 100 100 100 100 99 11 5 5 5 5 5 5 5 5 5 64 100 89 91 100 100 100 100 100 75 60 8
100 100 100 100 100 100 100 100 100 100 100 100 100 100 100 100 100 100 100 100 100 10 5 55 8 5 5 5 5 5 5 5 5 20 94 100 98 71 99 100 100 92 89
100 100 100 100 100 100 100 100 100 100 100 100 100 100 100 100 100 100 100 100 100 100 37 28 11 5 5 5 5 5 5 5 5 6 7 65 71 54 90 87 97 95 94
100 100 100 100 100 100 100 100 100 100 100 100 100 100 100 100 100 100 100 100 100 53 20 36 24 8 12 5 5 5 5 15 25 63 76 80 82 61 65 57 74 93 79
100 100 100 100 100 100 100 100 100 100 100 100 100 100 100 100 100 100 100 86 100 67 57 56 11 16 60 27 5 5 21 13 61 74 94 100 87 22 11 6 19 65 42
100 100 100 100 100 100 100 100 100 100 100 100 100 100 100 100 100 100 100 79 100 100 100 78 62 74 75 65 44 14 5 17 68 50 88 93 68 76 38 52 26 64 11
100 100 100 100 100 100 100 100 100 100 100 100 100 100 100 100 100 100 100 100 100 100 91 100 95 99 100 100 74 10 32 53 57 90 100 100 85 87 24 9 40 38 87
100 100 100 100 100 100 100 100 100 100 100 100 100 100 100 100 100 99 100 100 100 100 100 100 100 100 100 100 75 91 100 92 94 100 100 96 33 85 97 94 99 100 100
100 100 100 100 100 100 100 100 100 100 100 100 100 100 100 100 100 100 100 100 100 100 100 100 100 99 88 100 100 100 100 73 56 14 30 79 99 100 99 100 100 100 100
100 97 96 94 100 100 100 100 100 100 100 100 100 100 98 100 100 100 100 100 100 100 100 100 100 84 98 100 100 99 92 50 72 81 94 100 100 100 100 100 100 100 100
100 100 100 100 100 100 100 100 100 100 100 100 100 100 100 99 100 100 100 100 100 100 100 100 100 100 100 100 91 94 96 41 23 60 98 100 100 100 100 100 100 100 100
100 100 100 100 100 100 100 100 100 100 100 100 100 99 100 100 100 100 100 100 100 100 100 100 100 100 100 100 75 35 60 52 78 92 94 100 100 100 100 99 100 100 100
100 100 100 73 68 98 100 100 99 100 100 100 100 100 100 100 100 100 100 100 100 100 100 100 100 100 100 100 77 50 68 88 93 98 100 100 100 94 100 100 100 98 100
100 100 100 100 100 87 100 96 93 94 100 100 100 100 100 100 100 100 100 100 100 100 100 100 100 100 100 88 100 100 41 98 100 100 100 100 100 100 100 100 99 100 96

GFSGL_prec_cloud_060.txt.gz
Cloud_Cover
72 66 68 56 26 27 91 100 100 100 100 100 100 100 100 100 100 100 100 100 100 100 100 100 100 100 100 100 100 100 88 100 100 100 100 100 96 41 58 90 99 98 98
70 42 66 99 99 68 97 71 40 81 100 100 100 100 100 100 100 100 100 100 100 100 42 26 24 9 100 100 100 63 12 67 56 99 90 98 81 66 95 100 91 100 99
100 100 98 15 96 98 12 83 86 92 89 91 100 100 100 100 100 100 100 100 41 5 18 100 100 100 100 100 80 60 74 77 98 100 100 85 100 71 100 98 67 72 65
100 100 100 96 96 100 69 30 9 5 7 20 36 30 26 49 91 100 96 98 96 100 100 100 100 100 100 99 90 79 98 64 85 94 100 97 100 100 100 100 88 43 19
82 76 100 100 100 100 96 87 77 100 71 93 100 100 100 98 100 100 100 100 100 100 100 100 100 99 92 92 99 63 53 72 93 98 98 98 98 100 80 67 29 8 52
5 87 37 34 97 100 100 100 100 100 100 100 100 100 100 100 100 100 100 100 100 100 100 100 100 100 100 100 92 86 49 74 94 98 84 39 43 5 5 5 5 51 99
1 1 29 83 92 100 100 100 100 100 100 100 100 100 100 100 100 100 100 100 100 100 100 78 100 92 96 5 98 9 5 5 4 1 0 1 2 5 5 11 48 76 56
86 72 71 88 88 100 100 100 100 100 100 100 100 100 100 100 100 100 100 100 100 100 100 100 100 100 90 5 14 4 5 5 5 5 5 5 5 5 7 21 51 28 72
100 100 99 100 98 100 100 100 100 100 100 100 100 100 100 100 100 100 100 100 100 100 100 100 100 100 61 100 37 4 0 4 5 5 3 4 5 5 5 5 6 5 14
100 100 100 99 100 100 100 100 100 100 100 100 100 100 100 100 100 100 100 100 100 100 100 100 100 84 54 66 6 3 5 1 5 5 5 5 5 5 5 5 14 5 42
98 96 100 100 100 100 100 100 100 100 100 100 100 100 100 100 100 100 100 100 100 100 100 73 81 87 100 99 5 5 5 5 5 5 5 5 5 5 5 5 5 9 30
100 100 100 100 100 100 100 100 100 100 100 100 100 100 100 100 100 100 100 100 100 100 100 100 100 100 100 23 6 5 5 5 5 5 5 5 5 5 5 6 5 6 50
100 100 100 100 100 100 100 100 100 100 100 100 100 100 100 100 100 100 100 100 100 100 100 100 100 100 100 93 15 5 5 4 4 5 5 5 5 5 6 25 64 83 76
100 100 100 100 100 100 100 100 100 100 100 100 100 100 100 100 100 100 100 100 100 100 100 100 100 100 100 100 23 5 4 5 5 5 5 5 5 5 42 81 91 90 96
100 100 100 100 100 100 100 100 100 100 100 100 100 100 100 100 100 100 100 100 100 100 100 100 100 100 100 47 5 5 5 5 5 5 5 5 8 47 11 36 74 80 89
100 100 100 100 100 100 100 100 100 100 100 100 100 100 100 100 100 100 100 100 100 100 100 100 88 85 53 54 5 5 7 5 5 26 5 12 5 5 5 10 62 77 73
100 100 100 100 100 100 100 100 100 100 100 100 100 100 100 100 100 100 100 100 100 100 100 100 100 80 85 7 5 5 5 5 20 5 5 6 54 57 68 35 8 47 5
100 100 100 100 98 100 100 100 100 100 100 100 100 100 100 100 100 100 100 100 100 100 100 100 100 87 31 5 22 33 13 77 29 40 96 89 37 66 47 5 5 52 9
100 100 100 100 100 100 98 100 100 100 100 100 100 100 100 100 100 100 100 100 100 100 100 98 99 68 58 62 63 60 88 35 78 96 97 50 65 100 53 42 66 84 92
100 100 100 100 100 100 100 100 100 100 100 100 100 100 100 100 100 100 100 100 100 100 84 91 70 79 96 97 80 97 75 83 68 70 60 78 85 92 96 99 99 99 98
100 100 100 100 100 100 100 100 100 100 100 100 100 100 100 100 100 100 100 100 100 100 83 66 94 100 100 88 98 98 99 82 45 68 94 99 98 100 100 100 100 100 100
100 100 100 100 100 100 100 100 100 100 100 100 100 100 100 100 100 100 100 100 100 100 100 100 100 100 100 100 100 100 100 76 78 91 97 97 100 100 100 100 100 100 100
100 100 100 100 100 100 100 100 100 100 100 100 100 100 100 100 99 100 100 100 100 100 100 100 100 100 100 100 100 78 100 93 89 97 100 97 100 100 100 100 100 100 100
100 100 100 100 100 100 100 100 100 100 100 100 100 96 100 100 99 100 100 100 100 100 100 100 100 100 100 96 89 100 100 100 100 100 93 98 99 100 100 100 100 100 100
100 100 100 100 100 100 100 100 100 99 98 100 99 90 96 100 100 100 100 100 100 100 100 100 100 100 100 100 100 100 100 100 100 94 100 100 100 100 100 100 100 100 100
100 57 70 100 100 100 100 100 100 97 98 100 99 98 100 100 100 100 100 100 100 100 100 100 100 100 100 100 100 100 100 100 92 100 100 100 100 100 100 100 100 100 100

GFSGL_prec_cloud_066.txt.gz
Cloud_Cover
100 100 100 100 99 100 100 100 100 100 72 87 82 100 93 100 99 52 99 82 100 100 100 100 100 100 100 100 100 100 100 100 100 99 100 100 100 100 100 99 100 100 100
100 100 100 100 100 100 100 100 100 87 98 100 80 91 100 100 100 100 39 80 100 100 100 100 100 100 100 100 100 100 94 99 36 100 100 100 100 100 94 100 100 100 100
44 57 92 88 100 100 100 100 100 98 100 100 100 100 89 99 99 88 78 34 6 29 87 94 90 76 94 63 96 100 100 100 98 100 100 100 100 100 100 98 90 4 0
1 98 62 17 44 99 100 100 100 100 100 100 100 100 100 100 93 94 29 13 50 31 70 56 68 57 87 100 100 100 100 100 100 100 100 100 100 100 100 36 6 0 5
0 41 100 70 37 25 10 100 100 100 100 100 100 100 100 100 100 100 100 100 100 100 100 100 92 100 100 100 100 100 100 100 100 100 100 100 100 100 97 31 5 2 0
0 0 0 0 0 0 0 2 40 100 100 59 100 100 100 100 100 100 100 100 100 100 100 100 100 100 100 100 100 100 100 100 100 100 100 100 100 100 9 94 3 5 5
0 0 0 0 0 0 0 90 44 2 56 100 100 100 100 100 100 100 100 100 100 100 100 100 100 100 99 99 100 100 100 100 100 100 100 100 100 95 57 21 5 5 5
0 0 0 0 0 0 55 100 94 19 88 100 100 100 100 100 100 100 100 100 100 100 100 100 100 100 100 100 100 100 100 100 100 100 100 100 100 100 99 5 5 5 4
5 5 5 5 5 5 99 99 42 72 100 100 100 100 100 100 100 98 69 100 100 100 100 100 92 100 100 100 100 100 100 100 100 100 100 100 100 100 43 14 5 5 5
93 37 5 5 5 25 100 88 51 95 100 100 100 100 100 100 100 82 58 100 100 100 100 100 100 100 100 100 100 100 100 100 100 100 100 100 100 100 79 49 5 5 17
25 63 68 38 15 100 90 87 82 100 100 100 100 100 100 100 100 100 100 100 100 100 100 100 100 100 100 100 100 100 100 100 100 100 100 100 100 100 100 25 5 21 68
70 98 83 83 94 100 97 100 100 100 100 100 100 100 100 100 100 100 100 100 100 100 100 100 100 100 100 100 100 100 100 100 100 100 100 100 100 100 94 5 8 12 10
88 58 38 73 100 100 100 100 100 100 100 100 100 100 100 100 100 100 100 100 100 100 100 100 100 100 100 100 100 100 100 100 100 100 100 100 93 72 6 5 6 5 5
92 100 27 100 100 100 100 100 100 100 100 100 100 100 100 100 100 100 100 100 100 100 100 100 100 100 100 100 100 100 100 100 100 100 100 100 85 15 38 6 7 6 55
100 100 100 100 100 99 100 100 100 100 100 100 100 100 100 100 100 100 100 100 100 100 100 100 100 100 100 100 100 100 100 100 100 100 100 80 58 33 5 14 13 12 51
100 100 100 100 100 100 100 100 100 100 100 100 100 100 100 100 100 100 100 100 100 100 100 100 100 100 100 100 100 100 100 100 100 100 95 83 48 7 28 8 5 32 46
100 100 100 100 100 100 100 100 100 100 100 100 100 100 100 100 100 100 100 100 100 100 100 100 100 100 100 100 100 100 100 100 100 98 74 42 48 39 7 12 14 22 42
100 100 100 100 100 100 100 100 100 100 100 100 100 100 100 99 100 100 100 100 100 100 100 100 100 100 100 100 100 100 100 100 100 98 57 35 52 52 65 40 36 55 54
100 100 100 100 100 100 100 100 100 100 100 100 100 99 100 100 99 100 100 100 100 100 100 100 100 98 97 99 100 100 100 100 92 76 75 66 70 54 70 53 69 22 65
100 100 100 100 100 100 100 100 100 100 100 100 100 100 100 100 100 100 92 91 99 100 100 100 100 100 100 100 100 100 100 100 100 100 96 98 63 100 65 62 64 76 72
100 100 100 100 100 100 100 100 100 100 100 100 100 100 100 100 100 100 92 88 89 89 95 85 100 99 100 98 100 100 100 100 100 100 100 100 100 96 64 98 97 100 100
100 100 100 100 100 100 100 100 100 100 100 100 100 100 100 100 100 100 100 100 100 100 100 100 95 91 96 93 93 95 100 100 99 100 100 100 100 100 100 100 100 100 100
100 100 100 100 100 100 100 100 100 100 100 100 100 100 100 100 100 100 100 100 100 100 100 90 66 84 96 100 100 94 94 100 100 100 100 100 100 100 100 100 100 100 100
100 100 100 100 100 100 100 100 100 100 100 100 100 100 100 100 98 82 86 90 87 93 100 100 99 99 100 100 100 100 100 100 100 100 100 100 100 100 100 100 100 100 100
100 100 100 100 100 100 100 100 100 100 100 100 100 100 100 100 100 100 99 95 72 96 93 95 100 96 96 100 100 100 100 100 100 100 100 100 100 100 100 100 98 99 100
100 100 100 100 100 100 100 100 100 100 100 100 100 100 100 100 100 80 86 73 72 86 92 82 93 99 100 100 100 100 100 100 100 100 100 100 100 100 100 100 100 100 99

GFSGL_prec_cloud_072.txt.gz
Cloud_Cover
100 100 100 100 100 100 100 100 100 100 100 100 88 97 76 71 79 91 85 87 63 63 81 46 6 19 99 96 99 100 100 100 100 100 100 100 100 100 100 100 100 100 100
0 1 23 67 90 100 100 100 100 100 100 100 100 100 100 99 96 98 100 98 100 100 98 99 81 95 100 100 100 100 100 100 100 100 100 100 100 100 100 100 78 100 81
0 0 0 1 0 3 49 100 47 2 61 98 100 100 100 100 100 100 100 100 100 99 100 100 100 100 100 100 100 100 100 100 100 100 100 100 100 100 100 100 100 100 100
0 0 0 0 0 0 0 2 26 3 0 4 100 100 100 93 30 100 100 100 100 100 100 100 100 100 100 100 100 100 100 100 100 100 100 100 100 100 100 100 100 100 100
0 0 0 0 0 0 0 0 0 3 2 4 93 70 89 100 90 42 98 100 100 100 100 100 99 97 98 100 100 100 100 100 100 100 100 100 100 100 100 100 100 100 100
0 0 0 0 0 0 0 0 0 0 0 0 0 0 3 16 67 99 100 100 100 100 100 100 100 100 100 100 100 100 100 100 100 100 100 100 100 100 100 100 100 100 100
0 0 0 0 0 0 0 0 0 0 0 0 0 0 0 0 74 100 100 100 100 100 100 100 100 92 9 59 81 93 100 91 74 95 100 100 100 100 100 100 100 100 100
0 0 0 0 0 0 0 0 0 0 0 0 0 0 0 25 98 100 100 100 100 100 100 100 86 5 5 18 92 100 100 100 100 88 92 100 100 100 100 100 100 100 100
4 5 4 0 0 0 0 0 0 4 11 3 4 11 34 78 100 100 100 100 100 100 100 94 62 100 98 100 100 75 100 100 100 100 100 100 100 100 100 100 100 100 100
0 1 1 0 0 5 5 6 5 38 85 81 100 91 99 100 100 100 86 99 100 100 95 72 100 100 100 100 100 100 100 100 100 100 100 100 100 100 100 100 100 100 100
2 2 22 8 5 5 18 39 60 90 100 100 100 100 100 100 100 100 10 15 40 100 94 72 100 100 100 100 100 100 100 100 100 100 100 100 100 100 100 100 100 100 100
4 5 6 5 5 22 88 88 64 100 100 100 100 100 100 100 100 97 13 97 90 92 96 100 100 100 100 100 100 100 100 100 100 100 100 100 100 100 100 100 100 100 100
5 5 8 5 6 79 84 83 95 100 100 100 100 100 100 100 100 42 86 100 97 100 98 100 100 100 100 100 100 100 100 100 100 100 100 100 100 100 100 100 100 100 100
52 25 9 60 99 91 98 98 100 100 100 100 100 100 100 100 100 100 98 99 100 98 100 100 100 100 100 100 100 100 100 100 100 100 100 100 100 100 100 100 100 100 97
70 68 56 52 100 82 88 100 100 100 98 99 100 100 100 100 100 74 88 100 100 100 100 100 99 100 100 100 100 100 100 100 100 100 100 100 100 100 100 100 99 100 100
100 100 100 100 100 100 100 100 100 100 100 100 100 100 100 100 100 92 100 100 100 100 100 100 100 100 100 100 100 100 100 100 100 100 100 100 100 100 100 100 100 100 100
100 100 100 100 100 100 100 100 100 100 100 100 100 100 100 100 100 99 100 100 100 100 100 100 100 100 100 100 100 100 100 100 88 97 94 97 100 100 100 100 100 100 100
100 100 100 100 100 100 100 100 100 100 100 100 100 100 100 100 100 100 100 100 100 100 100 100 100 100 100 100 100 100 100 100 100 100 100 100 100 100 100 100 100 100 100
100 100 100 100 100 100 100 100 100 100 100 100 100 100 100 100 100 100 100 100 100 100 100 100 100 100 100 100 100 96 79 86 80 90 97 91 98 100 99 98 99 100 100
100 100 100 100 100 100 100 100 100 100 100 100 100 100 100 100 100 100 100 100 100 100 100 100 100 100 100 100 100 95 100 93 98 99 100 98 90 76 89 96 88 91 92
100 100 100 100 100 100 100 100 100 100 100 100 100 100 100 100 100 100 100 100 100 100 100 100 100 100 100 100 99 96 93 98 87 85 78 79 80 72 87 87 77 86 98
100 100 100 100 100 100 100 100 100 100 100 100 100 100 100 100 100 100 100 99 100 100 99 100 100 100 100 100 100 92 83 98 92 84 89 97 80 80 80 81 85 100 100
100 100 100 100 100 100 100 100 100 100 100 100 100 100 100 100 100 100 100 100 100 100 100 100 100 100 100 100 100 82 95 100 100 100 100 99 99 92 97 99 95 100 100
100 100 100 100 100 100 100 100 100 100 100 100 100 100 100 100 100 100 100 100 100 100 100 100 100 100 100 100 94 100 100 100 96 97 90 96 100 100 100 100 100 100 100
100 100 100 100 100 100 100 100 100 100 100 100 100 100 100 100 100 100 100 100 100 100 100 100 100 100 100 100 100 100 100 90 73 90 72 80 80 86 100 100 100 100 100
74 100 100 100 100 100 100 100 100 100 100 100 100 100 100 99 98 100 100 100 100 100 100 100 100 100 100 68 67 92 100 100 100 100 92 86 86 91 99 100 100 100 100

GFSGL_prec_cloud_075.txt.gz
Cloud_Cover
100 100 100 92 100 100 100 100 100 100 100 100 100 100 100 100 100 100 100 100 100 100 100 100 92 70 100 95 95 95 100 100 100 100 100 100 100 100 100 100 100 100 100
100 100 100 100 100 100 100 68 100 100 100 100 100 100 100 100 100 100 91 60 89 88 98 71 84 68 100 100 100 100 100 100 100 100 100 100 100 100 100 100 100 100 100
0 0 0 16 85 100 100 100 100 100 100 100 94 68 42 64 95 89 100 100 51 89 100 95 100 100 100 100 100 100 100 100 100 100 100 100 100 100 100 100 100 100 100
0 0 0 0 0 0 1 20 8 37 20 48 29 52 64 54 42 5 4 1 0 26 100 100 100 100 100 100 100 100 100 100 100 100 100 100 100 100 100 100 100 100 100
5 12 5 5 2 0 0 0 0 0 0 0 0 0 0 0 0 0 0 5 20 98 100 96 99 100 100 100 100 100 100 100 100 100 100 100 100 100 100 100 100 100 100
73 10 59 72 5 3 0 0 0 0 0 3 0 0 0 0 0 0 45 97 100 100 100 100 100 100 100 100 100 100 100 100 100 100 100 100 100 100 100 100 100 100 100
100 100 100 27 35 5 4 0 0 0 0 0 0 0 0 0 0 6 25 100 100 100 100 100 100 100 100 85 22 68 94 100 100 100 100 100 89 94 100 100 100 100 100
100 100 97 13 5 4 0 0 0 0 0 0 0 0 0 0 0 56 89 100 100 100 100 100 100 100 63 5 11 5 16 100 100 100 98 100 100 100 100 100 100 100 100
100 100 100 12 5 0 0 0 0 0 2 0 0 0 0 0 3 99 100 100 100 100 100 100 100 94 5 98 53 91 100 100 100 99 100 100 100 100 98 100 100 100 100
100 100 100 51 5 5 1 2 0 0 65 38 100 99 6 16 56 100 100 100 100 100 100 100 94 17 99 9 100 100 100 100 100 100 100 100 100 100 100 100 100 100 100
70 13 5 5 5 0 0 11 5 6 58 95 100 100 100 78 84 100 100 99 37 98 100 58 6 49 91 97 85 100 100 100 100 100 100 100 100 100 100 100 100 100 100
33 42 5 5 2 7 27 100 21 63 95 100 100 100 97 86 100 100 100 88 5 6 5 5 5 53 82 98 100 100 100 100 100 100 100 100 100 100 100 100 100 100 100
10 5 5 5 5 39 72 88 79 62 99 100 100 100 100 96 100 100 100 84 36 5 24 6 57 99 93 98 100 100 100 100 100 100 100 100 100 100 100 100 100 100 100
57 100 47 5 33 23 21 62 100 100 100 100 100 100 100 100 100 100 100 32 36 29 18 5 59 42 100 100 97 100 100 100 100 100 100 100 100 100 100 100 100 100 100
100 89 29 8 22 50 62 78 69 95 100 100 100 98 100 100 99 100 100 66 95 96 38 94 61 42 100 100 100 100 100 100 100 100 100 100 100 100 100 100 100 100 100
100 100 100 100 100 100 100 100 100 100 97 100 100 99 100 100 100 100 100 100 100 100 95 84 100 87 100 100 100 100 100 100 100 100 100 100 100 100 100 100 100 99 100
100 100 100 100 100 100 100 100 100 100 100 100 100 100 100 100 100 100 100 100 100 100 100 100 100 100 100 100 100 100 94 100 100 100 98 88 82 96 100 100 96 84 94
100 100 100 100 100 100 100 100 100 100 100 100 100 100 100 100 100 100 100 100 100 100 99 98 100 100 100 100 99 100 100 100 100 100 88 79 88 66 69 77 80 85 75
100 100 100 100 100 100 100 100 100 100 100 100 100 100 100 100 100 100 100 100 100 100 100 100 100 100 100 100 100 100 100 100 100 98 75 79 81 66 66 75 98 81 71
100 100 100 100 100 100 100 100 100 100 100 100 100 100 100 100 100 100 100 100 100 100 100 100 100 100 100 100 100 100 100 100 92 94 85 81 85 64 87 87 74 78 74
100 100 100 100 100 100 100 100 100 100 100 100 100 100 100 100 100 100 100 100 100 100 100 100 100 100 100 100 100 100 100 100 100 100 96 79 92 99 100 100 99 92 77
100 100 100 100 100 100 100 100 100 100 100 100 100 100 100 100 100 100 100 100 100 100 100 100 100 100 100 100 99 100 100 100 100 100 99 97 100 100 96 93 86 71 89
100 100 100 100 100 100 100 100 100 100 100 100 100 100 100 100 100 100 100 100 100 100 100 100 100 99 100 100 100 100 100 100 100 100 100 84 88 77 74 78 75 96 100
100 100 100 100 100 100 100 100 100 100 100 100 100 100 100 100 100 100 100 100 100 100 100 100 100 100 100 100 100 100 100 100 100 100 99 92 99 97 87 80 78 74 76
100 100 100 100 100 100 100 100 100 100 100 100 100 100 100 100 100 100 100 100 100 100 100 100 100 100 100 100 100 100 100 100 100 100 90 92 83 69 70 79 95 85 78
100 100 100 97 100 100 100 100 100 100 100 100 100 100 100 100 100 100 100 100 100 100 100 100 100 100 100 100 100 100 100 100 100 100 86 84 88 86 80 80 83 84 96

GFSGL_prec_cloud_078.txt.gz
Cloud_Cover
100 100 100 100 100 100 100 100 100 100 100 100 100 100 100 100 100 100 100 100 100 100 100 100 100 98 100 100 100 100 100 97 100 100 98 100 100 100 100 100 100 100 100
100 100 100 100 100 100 100 100 100 100 100 100 100 100 100 100 100 100 100 100 100 100 100 100 100 100 83 100 65 58 75 100 99 100 100 100 100 100 100 100 100 100 100
100 57 58 92 100 100 100 100 100 100 100 100 100 100 100 100 100 100 100 100 100 100 100 100 98 67 15 40 93 53 100 100 100 100 100 100 100 100 100 100 100 100 100
100 100 100 100 100 98 20 48 100 84 94 100 100 100 100 87 29 67 94 92 25 56 44 22 80 100 100 100 100 100 100 100 100 100 100 100 100 100 100 100 100 100 99
22 49 90 100 100 100 100 100 100 84 39 45 39 94 100 98 82 70 31 22 17 25 100 100 100 100 100 100 100 100 100 100 100 100 100 100 100 100 100 100 100 86 65
0 0 0 0 0 10 37 77 99 99 92 99 100 100 100 99 95 9 0 0 0 31 100 100 100 100 100 100 100 100 100 100 100 100 100 100 100 100 100 100 98 99 99
5 2 1 24 6 5 16 100 100 59 7 2 4 5 3 0 0 0 0 10 13 14 100 100 100 100 100 100 99 72 96 100 100 100 100 100 100 100 93 100 100 100 100
7 5 3 18 5 5 28 96 73 17 5 13 5 2 0 0 0 0 89 83 100 100 100 100 100 100 100 100 16 5 5 5 70 36 71 100 53 99 96 100 100 100 100
100 100 92 98 99 82 100 96 96 57 34 5 5 0 0 0 0 47 98 100 100 76 100 100 100 100 100 38 5 5 5 33 18 87 100 100 100 100 100 100 100 100 100
100 100 100 100 100 100 100 100 100 57 24 25 100 81 4 5 0 92 100 100 72 90 100 100 100 100 95 5 3 5 42 74 51 100 100 100 100 100 100 100 100 100 100
100 100 100 100 100 100 100 100 98 22 67 80 100 100 99 37 6 96 100 65 45 54 99 100 100 90 5 5 5 5 6 87 89 100 100 100 100 100 100 100 100 100 100
100 100 100 100 100 100 100 100 87 70 100 100 95 100 100 100 93 79 99 100 100 37 25 78 24 5 16 15 41 64 84 10 77 100 100 100 100 100 100 100 100 100 100
100 100 100 100 100 100 100 100 100 100 100 100 100 100 100 100 100 100 91 100 100 56 5 5 5 61 10 34 30 84 76 72 83 100 99 100 100 98 100 100 100 100 100
100 100 100 100 100 100 100 100 100 100 100 100 100 100 100 100 100 100 100 100 100 50 5 5 11 58 75 86 73 98 83 74 95 99 100 100 100 100 100 100 100 100 100
100 100 100 100 100 100 86 100 100 100 100 100 100 100 100 100 79 84 100 100 100 91 29 86 90 98 84 100 100 90 92 88 100 100 100 100 100 100 100 100 100 100 100
100 100 100 100 100 100 100 100 100 100 100 100 100 98 89 89 93 99 100 100 100 100 100 100 100 100 100 100 100 100 98 100 100 100 100 100 89 84 94 97 97 100 93
100 100 100 100 100 100 100 100 100 100 100 100 100 96 93 100 100 100 100 100 100 100 100 100 100 100 100 100 100 100 100 100 99 82 87 72 86 90 90 78 79 82 100
100 100 100 100 100 100 100 100 100 100 100 100 100 100 100 100 100 100 100 100 100 100 100 99 100 100 100 100 100 100 99 97 98 97 89 96 100 100 63 79 76 76 74
100 100 100 100 100 100 100 100 100 100 100 100 100 100 100 100 100 100 100 100 100 100 100 100 100 100 100 100 100 100 100 100 100 100 100 100 100 100 88 92 98 80 78
98 100 100 100 100 100 100 100 100 100 100 100 100 100 100 100 100 100 100 100 100 100 100 100 100 97 100 100 100 100 100 100 100 100 100 100 100 85 62 90 79 83 75
100 100 100 100 100 100 100 100 100 100 100 100 100 100 100 100 100 100 100 100 100 100 100 100 100 100 100 100 100 100 100 100 100 100 95 98 99 100 100 100 100 96 71
100 99 98 100 100 100 100 100 100 100 100 100 100 100 100 100 100 100 100 100 100 100 100 100 100 100 100 100 100 100 100 100 99 100 100 100 100 100 100 100 100 82 92
84 96 100 100 100 100 100 100 100 100 100 100 100 100 100 100 100 100 100 100 100 100 100 100 100 100 100 100 100 100 100 95 98 100 100 100 100 100 100 100 96 74 78
73 86 96 100 100 100 100 100 100 100 100 100 100 100 100 100 100 100 100 100 100 100 100 100 100 100 100 100 100 100 100 100 100 100 100 100 100 100 100 96 68 79 82
85 94 99 100 100 100 100 100 100 100 100 100 100 100 100 100 100 100 100 100 100 100 100 100 100 100 100 100 100 100 100 100 100 100 100 100 100 100 86 79 92 90 85
100 100 95 98 100 100 100 100 100 100 100 100 100 100 100 100 100 100 100 100 100 100 100 100 100 100 100 100 97 90 100 100 100 100 100 100 100 99 92 92 98 88 99

GFSGL_prec_cloud_081.txt.gz
Cloud_Cover
77 98 100 100 100 100 100 100 100 100 100 100 100 100 100 100 100 100 100 100 100 100 100 100 88 100 100 100 100 97 100 100 100 100 100 100 100 100 100 100 100 100 100
100 100 98 99 100 100 100 100 100 100 100 100 100 100 100 100 100 100 100 100 100 100 91 85 97 100 99 99 100 100 100 100 100 100 98 100 100 100 100 100 100 100 100
100 100 85 75 100 100 100 96 100 100 100 100 100 100 100 100 96 95 100 100 100 100 100 100 100 100 100 100 100 100 100 93 100 100 100 100 97 100 100 100 100 100 100
100 100 78 100 100 100 94 100 99 24 75 100 100 100 100 99 100 100 100 100 100 100 100 100 100 100 86 95 100 100 100 100 100 100 100 100 100 100 100 100 100 100 98
85 99 95 100 100 100 100 100 100 100 100 100 100 100 100 100 100 100 100 100 100 100 100 100 100 100 100 100 100 100 100 100 100 100 100 100 100 100 100 100 100 100 100
100 100 100 100 100 100 100 100 100 100 100 100 100 100 100 100 100 100 100 100 100 99 98 49 80 100 99 100 100 100 100 100 100 100 100 100 100 100 100 100 100 100 95
100 100 100 100 100 100 100 100 100 100 100 100 100 100 100 100 100 84 6 5 5 5 11 28 97 100 100 100 100 100 99 88 100 100 100 100 100 100 100 100 100 59 91
30 96 100 100 100 100 100 100 96 95 76 35 53 6 19 29 54 71 96 83 98 100 100 96 100 100 100 100 100 55 5 5 5 18 63 100 100 100 84 100 78 100 100
97 69 58 22 76 100 100 100 61 30 99 90 98 70 79 91 69 25 96 100 100 94 62 51 100 100 100 100 100 7 5 3 3 3 5 5 9 31 96 97 76 100 100
87 100 100 100 100 100 100 100 100 100 98 92 100 100 100 27 21 57 100 100 100 100 49 89 100 100 100 100 26 5 5 0 5 5 50 8 27 87 100 78 97 100 100
92 98 100 100 100 100 100 100 100 100 100 100 100 100 98 100 100 84 100 100 100 92 100 79 99 100 100 64 5 0 5 5 5 5 5 13 6 8 36 80 100 98 100
100 100 100 100 100 100 100 100 100 100 100 100 100 100 100 100 87 55 100 100 94 23 19 13 100 100 86 5 10 2 5 5 8 5 5 5 13 90 100 100 100 99 97
66 100 100 100 100 100 100 100 96 96 100 100 100 100 100 100 100 100 100 100 100 98 95 5 36 19 5 11 25 5 5 9 52 5 5 39 91 100 100 100 100 100 100
100 99 68 100 100 100 100 100 100 100 100 100 100 100 100 100 100 100 100 100 100 100 100 38 5 5 5 5 6 68 66 59 61 20 37 98 94 98 88 69 85 100 99
84 35 100 100 99 100 100 100 100 100 100 100 100 100 100 100 100 100 100 100 100 100 100 91 12 8 11 5 37 100 100 87 100 99 53 52 94 100 100 91 77 77 85
98 21 73 100 100 100 100 100 100 100 100 100 100 100 100 100 99 100 100 100 100 100 100 100 99 100 94 39 95 100 100 99 98 98 68 73 72 68 97 96 100 86 84
5 5 5 86 100 100 100 100 100 100 100 100 100 100 100 100 100 100 100 100 100 100 100 100 96 96 100 87 100 100 100 100 100 100 100 70 99 100 77 89 76 84 79
20 6 22 68 100 100 100 100 100 100 100 100 100 100 100 100 100 100 100 100 100 100 100 100 95 100 85 99 100 100 100 100 100 100 94 80 88 100 99 94 97 96 89
78 71 33 97 100 100 100 100 100 100 100 100 100 100 100 100 100 100 100 100 100 100 100 100 100 99 94 100 100 100 100 100 100 95 63 88 100 99 100 100 100 100 97
100 97 100 100 100 100 100 100 100 100 100 100 100 100 100 100 100 100 100 100 100 100 100 100 100 97 100 100 100 100 100 100 100 100 97 81 92 100 100 100 100 98 76
92 100 100 100 100 100 100 100 100 100 100 100 100 100 100 100 100 100 100 100 100 100 100 100 100 100 100 100 100 100 100 100 100 100 100 100 100 100 100 100 100 85 86
100 97 100 100 100 100 100 100 100 100 100 100 100 100 100 100 100 100 100 100 100 100 100 100 100 100 100 100 100 100 100 100 98 96 99 99 100 100 100 97 98 100 100
91 100 100 100 100 100 100 100 100 100 100 100 100 100 100 100 100 100 100 100 100 100 100 100 100 100 100 100 100 100 100 100 100 100 100 95 99 93 95 100 100 100 100
87 100 99 81 86 98 100 100 100 100 100 100 100 100 100 100 100 100 100 100 100 100 100 100 100 100 100 100 100 100 100 100 100 100 100 100 100 100 100 100 100 100 100
98 86 97 92 97 100 100 100 100 100 100 100 100 100 100 100 100 100 100 100 100 100 100 100 100 100 100 100 100 100 100 100 82 97 91 93 98 100 100 100 100 100 100
96 100 100 94 83 100 100 100 100 100 100 100 100 100 100 100 100 100 100 100 100 100 100 100 100 100 100 100 100 100 100 100 100 100 96 89 100 100 100 100 100 100 89

GFSGL_prec_cloud_084.txt.gz
Cloud_Cover
100 100 100 100 100 100 100 100 100 100 100 100 100 100 100 100 100 100 100 100 100 100 100 100 100 100 100 100 100 100 100 100 92 99 100 100 100 100 100 100 100 100 100
100 100 100 100 100 100 100 100 100 100 100 100 100 100 100 100 100 100 100 100 100 100 100 100 100 100 100 100 99 100 100 100 92 98 100 100 100 100 100 100 100 100 100
100 100 100 100 100 100 100 100 100 100 100 100 100 100 100 100 100 100 100 100 100 100 100 100 100 100 100 100 100 100 100 98 100 100 100 99 100 100 100 100 100 100 100
100 100 90 88 100 100 100 100 100 100 100 100 100 100 100 100 100 100 100 100 100 100 100 100 100 100 100 100 100 56 61 73 100 94 100 100 100 98 100 100 100 100 100
100 94 68 100 100 100 100 100 100 100 100 100 100 100 100 100 100 100 100 100 100 100 100 100 100 100 100 58 65 58 100 100 100 100 100 100 100 100 100 100 100 100 100
11 5 83 62 91 5 34 100 100 100 100 100 100 100 100 100 100 100 100 94 100 100 100 100 89 6 5 62 99 100 48 100 100 100 100 100 100 100 100 100 100 100 100
100 100 69 88 25 70 23 78 56 44 99 99 100 100 100 100 100 100 89 70 100 100 100 96 78 100 100 98 65 96 100 100 96 93 100 100 100 100 100 100 100 100 100
8 45 46 100 100 95 73 100 100 91 80 58 100 87 82 100 100 100 100 97 100 100 100 98 87 65 100 100 100 99 100 22 3 3 34 93 100 100 100 100 100 100 40
93 100 100 100 100 100 67 88 100 100 100 100 100 100 100 100 100 100 100 47 94 100 100 100 100 100 99 100 58 72 43 73 3 2 1 3 7 60 32 47 29 9 60
0 0 19 50 97 100 100 100 100 100 100 100 100 100 100 100 100 100 95 100 100 100 100 98 100 96 100 94 99 100 13 4 3 3 5 0 2 5 5 5 6 29 53
55 37 11 34 67 41 51 99 96 97 100 100 100 100 100 100 100 100 100 100 100 100 97 100 96 70 100 100 100 53 2 0 0 0 3 5 5 5 5 5 70 46 62
5 55 70 92 87 77 70 100 100 100 100 100 100 100 100 100 100 100 100 100 100 100 98 100 100 85 100 100 92 5 0 2 0 3 5 5 5 5 5 5 5 50 5
5 40 17 6 17 89 88 94 98 100 100 100 100 100 100 100 100 100 100 100 100 100 100 100 17 93 100 100 27 5 5 5 5 5 5 5 5 5 5 5 5 58 68
5 5 23 54 97 53 69 100 100 100 100 100 100 100 100 100 100 100 100 100 100 100 100 98 88 47 98 37 21 67 6 5 5 11 77 32 17 8 5 5 63 87 97
5 5 5 5 54 71 100 91 100 100 100 100 100 100 100 100 100 100 100 100 100 100 100 82 100 58 22 22 13 38 36 7 23 84 100 96 95 100 27 28 33 67 79
5 5 5 5 5 39 100 100 100 100 100 100 100 100 100 100 100 100 100 100 100 100 100 100 100 100 65 100 78 89 81 30 81 99 100 100 100 100 75 28 67 73 63
5 5 7 38 44 63 100 100 100 100 100 100 100 100 100 100 100 100 100 100 100 100 100 100 100 100 100 100 87 100 100 74 90 100 100 100 100 100 72 81 96 49 75
42 67 100 100 100 100 100 100 100 100 100 100 100 100 100 100 100 100 100 100 100 100 100 100 100 100 100 95 99 99 77 88 100 95 100 100 100 100 100 93 100 77 52
79 100 100 100 80 96 100 100 100 100 100 100 100 100 100 100 100 100 100 100 100 100 100 100 100 100 100 97 100 100 80 100 100 99 100 100 100 100 100 100 99 68 74
71 100 100 89 68 100 100 100 100 100 100 100 100 100 100 100 100 100 100 100 100 100 100 100 100 100 100 100 100 100 100 100 100 100 99 100 100 100 100 100 91 93 95
100 100 100 100 82 100 100 100 100 100 100 100 100 100 100 100 100 100 100 100 100 100 100 100 100 100 100 100 100 100 100 100 100 100 100 100 100 100 100 100 100 100 100
100 100 100 89 100 100 92 100 100 100 100 100 100 100 100 100 100 100 100 100 100 100 100 100 100 100 100 100 100 100 100 100 100 100 100 100 100 100 100 92 100 98 85
100 99 100 100 100 100 100 100 100 100 95 100 100 100 100 100 100 100 100 100 100 100 100 100 100 100 100 100 100 100 100 100 100 100 100 100 100 100 100 99 100 100 97
100 100 100 99 87 91 92 89 100 86 72 73 97 100 100 100 100 100 100 100 100 100 100 100 100 100 100 100 100 100 100 100 100 100 100 100 100 100 100 99 98 98 100
99 100 100 100 100 100 99 96 92 80 95 100 100 100 100 100 100 100 100 100 100 100 100 100 100 100 100 100 100 100 100 100 100 100 100 100 100 100 100 100 99 100 100
100 100 100 100 100 100 100 97 100 100 100 100 100 100 100 100 100 100 100 100 100 100 100 100 100 100 100 100 100 100 100 100 100 100 100 100 100 100 100 100 100 100 100

GFSGL_prec_cloud_087.txt.gz
Cloud_Cover
100 100 100 100 100 100 100 100 100 100 100 100 100 100 100 100 100 100 100 100 100 100 100 100 100 100 100 100 100 100 100 100 100 100 100 95 46 100 98 100 100 100 100
100 100 100 100 100 100 100 100 100 100 100 100 100 100 100 100 100 100 100 100 100 100 100 100 100 100 100 100 100 100 100 100 100 100 99 100 100 100 95 100 100 100 100
100 100 100 100 100 100 100 100 100 100 100 100 100 100 100 100 100 100 100 100 100 100 100 100 100 100 100 100 100 100 100 100 100 99 100 100 100 100 100 100 100 100 92
100 100 100 100 100 100 100 100 100 100 100 100 100 100 100 100 100 100 100 100 100 100 100 100 100 100 100 100 100 100 100 100 100 100 90 100 93 98 89 98 98 100 100
100 100 100 100 100 100 100 100 100 100 100 100 100 100 100 100 100 100 100 100 100 100 100 100 100 100 100 100 100 100 100 89 100 100 100 100 100 100 100 100 100 100 100
100 100 100 100 100 100 100 100 100 100 100 100 100 100 100 100 100 100 100 100 100 100 100 100 100 100 100 100 100 100 100 100 100 100 100 100 100 100 100 100 100 100 100
100 100 100 78 100 10 88 100 100 100 100 100 100 97 100 100 100 100 100 100 100 100 100 100 100 100 100 100 100 97 100 94 100 100 100 100 100 100 100 100 100 100 100
100 100 100 100 28 11 5 15 33 97 100 100 100 100 100 100 100 100 100 100 100 100 100 100 100 100 100 100 100 100 100 100 100 100 100 100 100 100 100 100 100 100 100
100 100 100 100 79 54 97 84 85 91 83 28 6 31 100 100 99 100 100 100 100 100 100 100 100 100 100 100 100 100 100 100 100 58 23 75 56 59 98 96 99 68 57
100 79 16 38 73 100 100 100 100 100 100 100 100 98 69 94 100 100 100 100 100 100 100 100 100 100 99 100 83 100 100 97 74 82 33 78 36 37 18 29 64 20 6
73 15 5 5 33 100 100 100 100 100 100 100 100 93 100 100 100 100 100 100 100 100 100 100 100 100 90 100 100 100 100 100 95 98 98 94 90 21 2 2 4 26 18
0 0 0 1 5 4 92 100 100 100 100 100 100 97 76 86 100 100 100 100 100 100 100 100 100 100 100 100 100 100 100 100 99 46 33 18 52 8 3 5 2 5 5
0 0 0 0 0 4 4 87 100 100 100 100 100 100 100 100 100 100 100 100 100 100 100 100 100 100 100 100 100 100 97 100 85 49 5 2 2 4 5 5 5 5 5
0 0 0 0 2 4 5 5 100 100 100 100 100 100 100 100 100 100 100 100 100 100 100 100 100 100 100 100 100 100 100 36 5 5 5 5 5 5 14 38 67 5 5
0 0 0 0 2 3 5 5 7 60 100 100 100 100 100 100 100 100 100 100 100 100 100 100 100 100 100 100 100 96 99 29 5 5 5 5 5 5 80 100 100 66 6
5 5 5 5 5 5 5 5 6 59 100 100 100 100 100 100 100 100 100 100 100 100 100 100 100 100 100 100 100 100 100 86 79 54 5 31 65 83 74 100 100 100 94
5 5 5 6 5 5 5 99 100 36 92 100 100 100 100 100 100 100 100 100 100 100 100 100 100 100 100 100 100 100 100 100 87 67 100 64 99 95 72 90 100 100 100
5 6 62 100 100 82 72 67 99 100 97 100 54 100 100 100 100 100 100 100 100 100 100 100 100 100 100 100 100 100 100 100 84 100 100 100 100 100 100 75 99 100 100
5 6 88 100 100 96 97 100 100 100 100 84 100 100 100 100 100 100 100 100 100 100 100 100 100 100 100 100 100 100 100 93 96 100 100 100 100 100 94 56 99 100 100
5 19 88 100 100 91 99 100 100 100 100 100 100 100 100 100 100 100 100 100 100 100 100 100 100 100 100 100 100 100 99 86 100 100 100 100 99 96 93 95 100 100 100
65 90 100 100 100 66 81 98 99 100 100 100 100 100 100 100 100 100 100 100 100 100 100 100 100 100 100 100 100 100 93 91 100 100 100 100 100 100 98 100 100 100 100
100 100 100 100 100 100 98 100 87 100 100 100 100 100 100 100 100 100 100 100 100 100 100 100 100 100 100 100 100 100 100 100 94 100 100 100 100 100 100 100 100 100 100
100 100 100 100 100 99 96 68 92 100 100 100 100 96 100 100 100 100 100 100 100 100 100 100 100 100 100 100 100 100 100 100 100 100 100 100 100 100 100 100 100 100 100
100 100 100 100 100 100 97 92 94 98 100 100 79 99 100 100 100 100 100 100 100 100 100 100 100 100 100 100 100 100 100 100 100 100 100 100 100 100 100 100 100 100 100
100 100 100 100 99 95 100 95 96 88 69 84 100 100 100 100 100 100 100 100 100 100 100 100 100 100 100 100 100 100 100 100 100 100 100 100 100 100 100 100 100 100 100
100 100 100 86 86 94 98 100 100 99 100 100 98 100 100 88 100 100 100 100 100 100 100 100 100 100 100 100 100 100 100 100 100 100 100 100 100 100 100 100 100 100 100

GFSGL_prec_cloud_090.txt.gz
Cloud_Cover
100 100 100 100 100 100 100 100 100 100 100 100 100 100 100 100 100 100 100 100 100 100 100 100 100 100 100 100 100 100 100 100 100 100 100 100 100 100 100 100 100 100 100
100 100 100 100 100 100 100 100 100 100 100 100 100 100 100 100 100 100 100 100 100 100 100 100 100 100 100 100 100 100 100 100 100 100 100 100 96 100 100 100 93 94 100
100 100 100 100 100 100 100 100 100 100 100 100 100 100 100 100 100 100 100 100 100 100 100 100 100 100 100 100 100 100 100 100 100 100 100 100 100 100 100 100 100 100 100
100 100 100 100 100 100 100 100 100 100 100 100 100 100 100 100 100 100 100 100 100 100 100 100 100 100 100 100 100 100 100 100 100 100 100 100 100 100 100 100 95 100 100
100 100 100 100 100 100 100 100 100 100 100 100 100 100 100 100 100 100 100 100 100 100 100 100 100 100 100 100 100 100 100 100 100 100 100 100 100 100 88 96 100 100 100
100 100 100 100 100 100 100 100 100 100 100 100 100 100 100 100 100 100 100 100 100 100 100 100 100 100 100 100 100 100 100 100 100 100 100 100 93 100 100 100 100 100 100
100 100 100 100 100 100 100 100 100 100 100 100 100 100 100 100 100 100 100 100 100 100 100 100 100 100 100 100 100 100 100 100 100 100 100 100 99 100 100 100 100 100 100
100 100 100 100 100 100 95 99 100 100 100 100 100 82 100 100 100 100 100 56 100 100 100 100 100 100 100 100 100 100 100 100 100 100 100 100 100 100 100 100 100 100 100
100 100 100 100 100 100 100 100 100 100 100 100 100 100 100 100 100 93 46 86 100 100 100 100 100 100 100 100 100 100 100 100 100 100 100 100 100 100 100 99 99 96 100
100 100 100 99 50 45 87 97 100 100 100 100 100 100 100 96 100 100 47 79 100 100 100 100 100 100 100 100 100 100 100 100 100 100 100 96 84 98 56 95 100 99 100
100 100 95 30 12 5 9 57 90 100 100 98 100 100 100 100 100 99 91 100 100 100 100 100 100 100 100 100 100 100 100 100 100 100 100 100 100 93 100 84 66 76 74
3 5 5 37 20 4 4 1 4 55 100 100 100 100 100 100 100 100 100 100 100 100 100 100 100 100 100 100 100 100 100 100 100 100 99 100 100 100 100 100 94 100 36
0 0 0 0 0 0 0 0 0 5 82 100 100 100 100 100 100 100 100 100 100 100 100 100 100 100 99 100 100 100 100 100 100 100 100 100 100 98 96 96 98 7 15
0 0 0 0 0 0 0 0 5 5 5 12 100 100 100 100 100 100 100 100 100 100 100 100 100 100 100 100 100 100 100 100 87 100 100 100 99 70 21 12 20 20 14
0 0 0 0 0 0 0 5 5 17 37 84 100 100 100 100 100 100 100 100 100 100 100 100 100 100 100 100 100 100 100 100 100 100 100 100 96 30 5 5 29 94 97
0 0 0 4 5 5 5 5 5 5 18 100 100 100 100 100 100 100 100 100 100 100 100 100 100 100 100 100 100 100 100 100 100 100 100 100 100 100 46 86 98 100 100
0 0 0 5 5 5 5 31 29 5 7 47 80 80 100 100 100 100 100 100 100 100 100 100 100 100 100 100 100 100 100 100 100 100 100 100 100 100 86 80 100 100 100
5 0 3 5 13 57 99 100 43 100 84 16 99 100 100 100 100 100 100 100 100 100 100 100 100 100 100 100 100 100 100 100 100 100 100 100 100 100 98 99 100 100 100
5 5 5 74 100 100 100 100 56 91 100 100 97 100 100 100 100 100 100 100 100 100 100 100 100 100 100 100 100 100 100 98 100 100 100 100 100 98 100 100 100 100 100
5 5 90 100 100 100 100 91 24 52 81 100 100 100 100 100 100 100 100 100 100 100 100 100 100 100 100 100 100 100 100 100 100 100 100 100 100 100 100 100 100 100 100
100 100 100 100 100 100 100 100 36 42 93 100 100 100 100 100 100 100 100 100 100 100 100 100 100 100 100 100 100 100 100 100 100 100 100 100 100 100 100 100 100 100 100
100 100 100 100 100 100 100 100 100 100 92 98 85 90 98 100 100 100 100 100 100 100 100 100 100 100 100 100 100 100 100 100 100 100 100 100 100 100 100 100 100 100 100
100 100 100 100 100 100 94 96 60 58 38 15 69 80 100 100 100 100 100 100 100 100 100 100 100 100 100 100 100 100 100 100 100 100 100 100 100 100 100 100 100 100 100
100 99 100 97 100 100 100 100 100 100 96 98 94 82 44 100 100 100 100 100 100 100 100 100 100 100 100 100 100 100 100 100 100 100 100 100 100 100 100 100 100 100 100
78 95 100 95 92 100 100 71 58 83 97 98 68 89 100 100 100 100 100 100 100 100 100 100 100 100 100 100 100 100 100 100 100 100 100 100 100 100 100 100 100 100 100
100 100 100 100 100 98 95 99 99 94 94 100 71 82 90 99 100 100 93 100 100 100 100 100 100 100 100 100 100 100 100 100 100 100 100 100 100 100 100 100 100 100 100

GFSGL_prec_cloud_093.txt.gz
Cloud_Cover
100 100 100 100 100 100 100 100 100 100 100 100 100 100 100 100 100 100 100 100 100 100 100 100 100 100 100 100 100 100 100 100 100 100 100 100 100 100 100 100 100 100 100
100 100 100 100 100 100 100 100 100 100 100 100 100 100 100 100 100 100 100 100 100 100 100 100 100 100 100 100 100 100 100 100 100 100 100 100 100 100 100 100 100 93 93
100 100 100 100 100 100 100 100 100 100 100 100 100 100 100 100 100 100 100 100 100 100 100 100 100 100 100 100 100 100 100 100 100 100 100 100 100 100 100 100 100 100 100
100 100 100 100 100 100 100 100 100 100 100 100 100 100 100 100 100 100 100 100 100 100 100 100 100 100 100 100 100 100 100 98 100 100 100 100 100 100 100 96 95 98 100
100 100 100 100 100 100 100 100 100 100 100 100 100 100 100 100 100 100 100 100 100 100 100 100 100 100 100 100 100 100 100 100 100 100 100 100 100 100 100 100 100 100 98
100 100 100 100 100 100 100 100 100 100 100 100 100 100 100 100 100 100 100 100 100 100 100 100 100 100 100 100 100 100 100 100 100 100 100 100 100 100 100 100 100 100 100
100 100 100 100 100 100 100 100 100 100 100 100 100 100 100 100 100 100 100 100 100 100 100 100 100 100 100 100 100 100 100 100 100 100 100 100 100 100 100 100 100 100 100
100 85 95 100 100 100 100 100 100 100 100 100 100 100 100 100 100 100 100 100 100 100 100 100 100 100 100 100 100 100 100 100 100 100 100 100 100 100 100 100 100 100 100
78 100 100 99 88 100 100 100 98 100 99 100 100 100 100 100 100 100 100 100 100 69 78 100 100 100 100 100 100 100 100 100 100 100 100 100 100 100 100 100 100 100 100
100 100 100 100 100 98 98 98 100 100 82 100 100 100 100 100 100 100 100 100 100 100 98 100 100 100 100 100 100 100 100 100 100 100 100 100 99 100 100 100 100 100 100
100 100 100 74 99 98 100 73 5 7 4 38 78 100 99 97 100 100 100 100 100 100 100 100 100 100 100 100 100 100 100 100 100 100 100 100 100 100 100 100 100 100 100
1 0 0 1 1 0 0 1 8 2 0 5 5 44 100 100 100 100 100 100 100 100 100 100 100 100 100 100 100 100 100 100 100 100 100 100 100 100 100 100 100 100 100
0 0 0 0 0 0 0 0 0 0 1 1 5 5 60 100 100 100 100 100 100 100 100 100 100 100 100 100 100 100 100 100 100 100 100 100 100 100 100 100 100 100 100
0 0 0 0 0 0 0 0 2 5 5 8 35 16 21 90 100 100 100 100 100 100 100 100 100 100 100 100 100 100 100 100 100 100 100 100 100 100 100 100 100 99 100
0 0 0 0 0 0 2 5 5 5 8 82 82 100 100 100 97 100 100 100 100 100 100 100 100 100 100 100 100 100 100 100 100 100 100 100 100 100 100 100 100 100 100
0 0 0 0 0 0 5 5 5 5 15 22 71 100 100 100 100 100 100 100 100 100 100 100 100 100 100 100 100 100 100 100 100 100 100 100 100 100 76 100 100 100 100
0 0 0 5 5 5 5 5 5 5 5 5 75 100 100 100 100 100 100 100 100 100 100 100 100 100 100 100 100 100 100 100 100 100 100 100 100 100 100 100 100 100 100
3 0 5 100 25 5 21 38 78 82 17 5 5 42 100 100 100 100 100 100 100 100 100 100 100 100 100 100 100 100 100 100 100 100 100 100 100 100 100 100 100 100 100
5 14 66 84 83 95 100 100 100 100 46 49 16 5 69 100 100 100 100 100 100 100 100 100 100 100 100 100 100 100 100 100 100 100 100 100 100 100 100 100 100 100 100
9 21 88 88 100 100 100 100 100 95 27 56 71 90 83 98 100 100 100 100 100 100 100 100 100 100 100 100 100 100 100 100 100 100 100 100 100 100 100 100 100 100 100
92 72 75 98 95 100 100 100 100 100 99 63 98 38 58 100 100 100 100 100 100 100 100 100 100 100 100 100 100 100 100 100 100 100 100 100 100 100 100 100 100 100 100
99 96 76 71 72 83 92 92 99 99 100 96 84 96 8 56 100 100 100 100 100 100 100 100 100 100 100 100 100 100 100 100 100 100 100 100 100 100 100 100 100 100 100
100 100 84 97 97 70 68 100 87 94 95 86 38 52 96 46 98 89 99 100 100 100 100 100 100 100 100 100 100 100 100 100 100 100 100 100 100 100 100 100 100 100 100
81 74 91 82 80 95 91 88 92 100 100 94 99 91 100 86 85 100 100 100 100 100 100 100 100 100 100 100 100 100 100 100 100 100 100 100 100 100 100 100 100 100 100
85 94 98 100 100 100 100 96 75 84 52 31 81 100 100 100 100 100 100 100 100 98 96 100 100 100 100 100 100 100 100 100 100 100 100 100 100 100 100 100 100 100 100
92 92 84 94 99 100 100 100 94 63 92 95 92 88 82 92 96 100 100 100 90 100 100 100 100 100 100 100 100 100 100 100 100 100 100 100 100 100 100 100 100 100 100

GFSGL_prec_cloud_096.txt.gz
Cloud_Cover
100 100 100 100 100 100 100 100 100 100 100 100 100 100 100 100 100 100 100 100 100 100 100 100 100 100 100 100 100 100 100 100 100 100 100 100 100 100 100 100 100 100 100
100 100 100 100 100 100 100 100 100 100 100 100 100 100 100 100 100 100 100 100 100 100 100 100 100 100 100 100 100 100 100 100 100 100 100 100 100 100 100 100 100 100 100
100 100 100 100 100 100 100 100 100 100 100 100 100 100 100 100 100 100 100 100 100 100 100 100 100 100 100 100 100 100 100 100 100 100 100 100 100 100 100 100 100 100 100
100 100 100 100 100 100 100 100 100 100 100 100 100 100 100 100 100 100 100 100 100 100 100 100 100 100 100 100 100 100 100 100 100 100 100 100 100 100 100 99 100 100 96
100 100 100 100 100 100 100 100 100 100 100 100 100 100 100 100 100 100 100 100 100 100 100 100 100 100 100 100 100 100 100 100 100 100 100 100 100 100 100 100 100 93 100
30 100 100 100 100 100 100 100 100 100 100 100 100 100 100 100 100 100 100 100 100 100 100 100 100 100 100 100 100 100 100 100 100 100 100 100 100 99 100 100 100 100 100
100 100 100 100 100 100 100 100 100 100 100 100 100 100 100 100 100 100 100 100 100 100 100 100 100 100 100 100 100 100 100 100 100 100 100 100 100 100 100 100 100 100 100
100 100 100 100 100 100 100 100 100 100 100 100 100 100 100 100 100 100 100 100 100 100 100 100 100 100 100 100 100 100 100 100 100 100 100 100 100 100 100 100 100 100 100
88 98 100 100 100 100 100 100 100 100 100 100 100 100 100 100 100 100 100 100 100 100 100 100 100 100 100 100 100 100 100 100 100 100 100 100 100 100 100 100 100 100 100
100 94 99 74 96 100 100 100 97 99 100 100 100 100 100 100 100 100 100 100 100 100 100 100 100 100 100 100 100 100 100 100 100 100 100 100 100 100 100 100 100 100 100
100 100 100 100 74 95 100 100 100 100 90 100 100 99 95 68 96 100 100 100 100 100 100 100 100 100 100 100 100 100 100 100 100 100 100 100 100 100 100 100 100 100 100
1 6 2 1 1 3 6 5 4 4 3 0 4 4 5 5 5 30 100 100 100 100 100 100 100 100 100 100 100 100 100 100 100 100 100 100 100 100 100 100 100 100 100
0 0 0 0 0 0 0 0 0 0 0 3 5 5 5 5 5 5 8 100 100 100 100 100 100 100 100 100 100 100 100 100 100 100 100 100 100 100 100 100 100 100 100
0 0 0 0 0 0 0 0 1 4 5 5 5 5 11 5 38 18 9 10 100 100 100 100 100 100 100 100 100 100 100 100 100 100 100 100 100 100 100 100 100 100 100
4 4 0 0 0 0 0 3 5 5 5 5 15 67 100 99 74 98 100 100 100 100 100 100 100 100 100 100 100 100 100 100 100 100 100 100 100 100 94 87 48 88 100
1 0 0 0 0 0 3 5 5 5 5 8 19 68 71 100 100 100 100 100 100 96 100 100 100 100 100 100 100 100 100 100 100 100 100 100 100 100 98 63 100 100 100
5 5 5 5 5 5 8 100 11 19 5 5 5 22 86 100 100 100 100 100 100 94 100 100 100 100 100 100 100 100 100 100 100 100 100 100 100 100 72 98 100 100 100
5 8 12 5 5 5 5 42 98 100 98 82 7 30 63 99 100 100 100 100 98 100 100 100 100 100 100 100 100 100 100 100 100 100 100 100 100 100 100 100 100 100 100
21 86 91 79 52 48 63 66 90 97 100 98 88 36 5 91 97 100 100 100 100 97 100 100 100 100 100 100 100 100 100 100 100 100 100 100 100 100 100 100 100 100 98
66 82 100 98 98 97 65 66 96 100 100 100 100 100 44 24 95 31 80 100 100 100 100 100 100 100 100 100 100 100 100 100 100 100 100 100 100 100 100 100 100 100 100
99 92 96 75 76 97 96 95 100 94 64 76 99 100 100 100 100 90 100 100 100 100 100 100 100 100 100 100 100 100 100 100 100 100 100 100 100 100 100 100 100 100 100
32 79 80 87 12 96 100 100 82 90 85 95 91 100 100 75 63 7 6 55 65 95 100 100 100 100 100 100 100 100 100 100 100 100 100 100 100 100 100 100 100 100 100
74 99 100 100 94 91 98 100 100 98 84 90 88 82 88 71 87 64 60 10 20 98 100 100 100 100 100 100 100 100 100 100 100 100 100 100 100 100 100 100 100 100 100
75 96 100 97 94 99 100 95 100 100 100 92 53 98 100 63 41 80 93 100 100 100 100 100 100 100 100 100 100 100 100 100 100 100 100 100 100 100 100 100 100 100 100
37 100 100 100 100 99 97 90 94 84 76 84 99 98 100 93 88 28 98 100 100 100 100 100 100 100 100 100 100 100 100 100 100 100 100 100 100 100 100 100 100 100 100
94 95 94 96 99 96 97 99 100 99 93 68 92 92 99 86 87 86 83 100 100 100 100 100 100 100 100 100 100 100 100 100 100 100 100 100 100 100 100 100 100 100 100

GFSGL_prec_cloud_099.txt.gz
Cloud_Cover
100 100 100 100 100 100 100 100 100 100 100 100 100 100 100 100 100 100 100 100 100 100 100 100 100 100 100 100 100 100 100 100 100 100 100 100 100 100 100 100 100 100 100
100 100 100 100 100 100 100 100 100 100 100 100 100 100 100 100 100 100 100 100 100 100 100 100 100 100 100 100 100 100 100 100 100 100 100 100 100 100 100 100 100 100 100
100 100 100 100 100 100 100 100 100 100 100 100 100 100 100 100 100 100 100 100 100 100 100 100 100 100 100 100 100 100 100 100 100 100 100 100 100 100 100 100 100 100 100
100 100 100 100 100 100 100 100 100 100 100 100 100 100 100 100 100 100 100 100 100 100 100 100 100 100 100 100 100 100 100 100 100 100 100 100 100 100 100 100 100 100 100
100 100 100 100 100 100 100 100 100 100 100 100 100 100 100 100 100 100 100 100 100 100 100 100 100 100 100 100 100 100 100 100 100 100 100 100 100 100 100 100 100 100 100
94 100 100 100 100 100 100 100 100 100 100 100 100 100 100 100 100 100 100 100 100 100 100 100 100 100 100 100 100 100 100 100 100 100 100 100 100 100 100 100 100 100 100
5 88 99 100 100 100 100 100 100 100 100 100 100 100 100 100 100 100 100 100 100 100 100 100 100 100 100 100 100 100 100 100 100 100 100 100 100 100 100 100 100 84 85
72 100 100 100 100 100 100 100 100 100 100 100 100 100 100 100 100 100 100 100 100 100 100 100 100 100 100 100 100 100 100 100 100 100 100 100 100 100 100 100 100 100 99
5 29 10 85 100 100 100 100 98 37 97 100 100 100 100 100 100 100 100 100 100 100 100 100 100 100 100 100 100 100 100 100 100 100 100 100 100 100 100 100 100 100 100
56 36 5 25 86 31 18 7 57 98 100 100 100 100 100 100 100 100 100 100 100 100 100 100 100 100 100 100 100 100 100 100 100 100 100 100 100 100 100 100 100 100 100
13 14 61 93 92 97 98 99 100 100 100 27 10 43 66 78 64 24 15 30 100 100 100 100 100 100 100 100 100 100 100 100 100 100 100 100 100 100 100 100 100 100 100
17 6 2 0 0 0 3 4 4 10 32 29 3 4 5 4 5 5 5 32 80 100 100 100 100 100 100 85 100 100 100 100 100 100 100 100 100 100 100 100 98 100 100
0 0 0 2 5 5 5 0 4 0 0 5 5 5 5 5 5 5 5 19 93 80 99 100 100 100 100 97 100 100 100 100 100 100 100 100 100 100 100 100 100 100 100
0 0 4 5 5 5 5 0 1 5 5 5 6 38 16 78 54 13 53 100 100 100 37 96 100 100 100 100 100 100 100 100 100 100 100 100 100 100 100 100 100 100 100
5 3 5 5 5 5 4 3 4 5 8 26 11 38 32 43 32 100 100 100 100 100 100 77 88 100 100 100 100 100 100 100 100 100 99 100 100 100 100 100 100 100 100
5 5 5 5 5 5 5 5 5 5 64 6 16 82 39 41 76 100 100 100 100 100 100 100 94 100 100 100 100 100 100 100 100 100 100 100 100 100 100 100 100 98 100
5 5 9 11 5 5 8 67 80 13 5 5 6 69 100 76 77 59 100 100 100 100 100 100 100 100 100 100 100 100 100 100 100 100 100 100 100 100 100 100 100 100 100
5 5 25 21 37 80 90 91 94 92 74 6 55 100 85 99 55 68 100 100 97 90 100 100 100 100 100 100 100 100 100 100 100 100 100 100 100 100 100 100 100 100 100
6 84 90 96 89 96 66 95 100 100 100 100 64 46 100 73 10 44 97 93 99 97 100 100 100 100 100 100 100 100 100 100 100 100 100 100 100 100 100 100 100 100 100
75 92 97 82 83 50 28 88 100 100 83 92 81 36 39 70 38 73 71 7 91 100 100 100 100 97 100 100 100 100 100 100 100 100 100 100 100 100 100 100 100 100 100
75 76 85 90 100 100 99 96 94 99 100 100 100 74 81 100 99 78 90 58 5 13 87 73 96 100 100 100 100 100 100 100 100 100 100 100 100 100 100 100 100 100 100
94 98 93 100 100 100 100 100 100 97 95 99 100 99 92 99 66 36 65 80 31 50 84 43 88 95 100 100 100 100 100 100 100 100 100 100 100 100 100 100 100 100 100
100 95 90 100 100 96 82 92 96 100 100 100 99 96 93 76 70 55 77 78 58 39 71 100 100 76 100 100 100 100 100 100 100 100 100 100 100 100 100 100 100 100 100
99 86 100 100 97 100 87 99 98 66 93 98 81 90 93 87 92 85 48 52 21 97 100 100 100 100 100 100 100 100 100 100 100 100 100 100 100 100 100 100 100 100 100
94 100 100 100 100 100 100 100 99 97 98 99 98 97 100 92 98 96 100 90 90 100 100 100 100 100 100 100 100 100 100 100 100 100 100 100 100 100 100 100 100 100 100
88 100 100 100 100 100 100 100 97 99 99 98 98 99 97 97 100 100 100 100 100 99 100 100 100 100 100 100 100 100 100 100 100 100 100 100 100 100 100 100 100 100 100

GFSGL_prec_cloud_102.txt.gz
Cloud_Cover
100 100 100 100 100 100 100 100 100 100 100 100 100 100 100 100 100 100 100 100 100 100 100 100 100 100 100 100 100 100 100 100 100 100 100 100 100 100 100 100 100 100 100
100 100 100 100 100 100 100 100 100 98 100 100 100 100 100 100 100 100 100 100 100 100 100 100 100 100 100 100 100 100 100 100 100 100 100 100 100 100 100 100 100 100 100
100 100 100 100 100 100 100 100 100 100 100 100 100 100 100 100 100 100 100 100 100 100 100 100 100 100 100 100 100 100 100 100 100 100 100 100 100 100 100 100 100 100 100
100 100 100 100 100 100 100 100 100 100 100 100 100 100 100 100 100 100 100 100 100 100 100 100 100 100 100 100 100 100 100 100 100 100 100 100 100 100 100 100 100 100 100
100 100 100 100 100 100 100 100 100 100 100 100 100 100 100 100 100 100 100 100 100 100 100 100 100 100 100 100 100 100 100 100 100 100 100 100 100 100 100 100 100 100 100
21 100 100 100 100 100 100 100 100 100 100 100 100 100 100 100 100 100 84 99 100 100 100 100 100 100 100 100 100 100 100 100 100 100 100 100 100 100 100 100 100 100 100
14 59 93 100 100 100 100 44 76 100 93 89 100 100 100 100 100 100 100 100 100 100 100 100 100 100 100 100 100 100 100 100 100 100 100 100 100 100 100 100 100 100 100
0 0 0 0 12 17 5 27 5 52 85 98 100 79 83 97 96 100 100 95 80 100 100 100 100 100 100 100 100 100 100 100 100 100 100 100 100 100 100 100 100 100 100
0 0 0 0 1 2 10 20 48 23 26 32 30 78 45 7 55 75 72 74 100 97 100 100 100 100 100 100 100 100 100 100 100 100 100 100 100 100 100 100 100 100 100
5 5 8 13 14 8 5 5 6 5 46 25 6 5 5 5 48 40 73 88 95 100 100 100 100 100 100 100 100 100 100 100 100 100 100 100 100 100 100 100 100 100 100
21 53 59 40 48 85 24 46 85 84 71 47 81 55 8 5 5 5 5 5 5 9 21 38 35 100 100 100 100 100 97 100 100 100 100 100 100 100 100 100 100 100 100
5 5 5 4 5 5 5 5 10 7 10 5 5 5 5 5 5 5 7 36 41 100 100 98 73 94 100 100 100 100 100 100 100 100 100 100 100 100 100 100 100 100 100
50 5 5 3 0 4 1 0 0 0 5 5 5 5 5 5 5 5 12 68 98 100 100 100 100 58 42 100 100 100 100 100 100 100 100 100 100 100 100 100 100 100 100
12 44 36 11 28 17 5 5 5 5 5 8 29 9 8 6 5 5 5 87 100 100 100 100 100 88 12 22 100 100 100 100 100 100 100 100 100 100 100 100 100 100 100
100 74 75 30 5 7 5 5 20 5 61 100 100 100 100 98 34 70 92 100 100 100 100 100 100 100 100 74 100 100 100 100 100 100 100 100 100 100 100 100 100 100 100
5 5 5 8 5 12 42 78 12 79 64 35 10 55 93 100 100 100 100 92 100 100 100 100 100 100 100 100 100 100 100 100 100 100 100 100 100 100 100 100 100 100 100
33 28 98 41 98 83 100 100 100 88 87 68 73 75 100 100 100 100 100 96 100 100 97 96 100 100 100 100 100 100 100 100 100 100 100 100 100 100 100 100 100 100 100
75 76 100 98 100 91 97 100 97 100 100 100 92 95 84 89 77 80 100 100 97 100 100 100 100 100 98 81 100 100 100 100 100 100 100 100 100 100 100 100 100 100 100
100 100 82 94 50 97 98 98 100 100 100 100 83 22 5 11 72 64 85 96 75 84 100 100 100 100 95 46 100 100 100 100 100 100 100 100 100 100 100 100 100 100 100
100 100 98 83 91 98 100 100 100 93 100 100 96 94 85 56 61 6 21 80 41 48 100 99 59 97 95 95 100 100 100 100 100 100 100 100 100 100 100 100 100 100 100
100 97 100 82 86 100 100 100 96 100 100 100 99 65 100 100 100 100 72 5 5 66 70 83 100 100 17 50 100 100 100 100 100 100 100 100 100 100 100 100 100 100 100
100 100 98 99 98 93 100 100 99 100 100 100 95 96 96 87 57 34 62 86 46 36 82 89 68 41 91 90 72 100 100 100 100 100 100 100 100 100 100 100 100 100 100
100 100 98 96 100 100 100 95 98 100 99 82 86 90 74 77 77 86 97 91 93 96 80 92 100 100 95 90 78 99 100 100 100 100 100 100 100 100 100 100 100 100 100
100 100 100 100 100 100 87 95 99 96 100 76 79 92 100 97 84 94 95 99 100 100 97 99 100 100 100 100 100 100 98 100 100 100 100 100 100 100 100 100 100 100 100
100 71 98 94 91 100 96 90 100 100 100 100 100 98 100 100 100 100 100 100 100 100 100 93 99 100 100 100 100 100 100 100 100 100 100 100 100 100 100 100 100 100 100
92 100 91 85 94 100 100 100 100 100 100 100 100 100 100 100 100 100 100 100 96 95 84 83 99 90 100 100 100 100 100 100 100 100 100 100 100 100 100 100 100 100 100

GFSGL_prec_cloud_108.txt.gz
Cloud_Cover
100 100 100 100 100 100 100 100 100 100 100 100 100 100 100 100 100 100 100 100 100 100 100 100 100 100 100 100 100 100 100 100 100 100 100 100 100 100 100 100 100 100 100
100 100 100 100 100 100 100 100 100 100 100 100 99 100 100 100 100 100 100 100 100 100 100 100 100 100 100 100 100 100 100 100 100 100 100 100 100 100 100 100 100 100 100
100 100 100 100 100 100 100 100 100 99 100 100 100 100 100 98 100 100 100 100 100 100 100 100 100 100 100 100 100 100 100 100 100 100 100 100 100 100 100 100 100 100 100
100 100 100 100 100 100 100 100 100 100 100 100 100 100 100 100 100 100 100 100 100 100 100 100 100 100 100 100 100 100 100 100 100 100 100 100 100 100 100 100 100 100 100
100 100 100 100 100 100 100 100 100 100 100 100 96 83 92 91 99 85 99 100 100 100 100 100 91 100 100 100 100 100 100 100 100 100 100 100 100 100 100 100 100 100 100
36 71 89 99 100 99 100 100 100 100 100 100 98 100 100 100 98 88 100 99 100 100 100 100 100 100 100 100 97 100 100 100 100 100 100 100 100 100 100 100 100 100 100
0 0 0 2 4 6 58 13 17 96 100 100 100 100 100 100 53 100 100 100 100 100 100 100 100 100 100 100 100 100 100 100 100 100 100 100 100 100 100 100 100 100 100
0 0 0 0 0 0 0 1 5 5 9 7 35 31 16 6 23 5 22 36 100 71 41 93 52 36 61 80 42 80 100 100 100 100 100 100 100 100 100 100 100 100 100
5 4 3 0 0 0 0 0 0 0 0 0 0 0 1 0 5 5 5 19 39 54 18 16 61 97 14 39 19 88 100 100 100 100 100 100 100 100 100 100 100 100 100
5 5 5 5 2 0 0 0 0 0 1 3 5 6 5 5 5 5 5 5 5 5 5 44 49 7 63 19 15 15 31 14 9 60 100 100 100 100 100 100 100 100 100
7 11 7 4 5 5 5 5 5 5 5 5 5 5 5 5 5 5 5 5 5 11 5 5 5 66 66 90 100 100 100 100 99 5 21 64 89 100 100 100 100 100 100
99 100 98 58 40 62 57 17 4 4 2 0 2 4 5 5 5 5 5 5 5 72 73 62 61 47 89 52 56 64 80 94 99 8 8 92 100 100 100 100 100 100 100
100 84 11 63 62 71 56 13 5 5 5 5 5 23 7 5 52 86 89 80 68 79 71 39 20 54 68 62 66 64 65 73 74 96 42 99 100 100 83 100 100 100 100
100 100 100 100 100 96 91 72 86 100 100 100 97 95 99 94 77 77 90 97 100 100 93 45 9 96 62 86 14 39 75 95 88 76 100 100 100 100 100 100 100 100 100
81 100 100 100 100 100 100 100 100 100 96 100 96 99 93 77 62 42 89 99 86 93 94 28 52 98 95 18 27 68 82 91 90 91 100 100 100 100 100 100 100 100 100
100 100 100 100 100 100 100 100 78 72 78 96 98 100 95 100 100 97 100 97 83 94 91 54 99 100 99 69 69 67 79 96 70 32 100 100 100 100 100 100 100 100 100
100 94 100 100 100 99 100 100 100 100 78 100 100 99 100 100 100 100 94 100 100 100 99 98 98 100 100 34 46 95 98 90 6 98 100 100 100 100 100 100 100 100 100
100 100 100 100 96 97 99 98 100 100 100 100 48 98 100 100 99 100 100 100 90 99 100 98 100 95 81 50 29 90 100 94 6 98 100 100 100 100 100 100 100 100 100
100 100 100 98 100 100 100 100 100 100 100 100 99 93 100 100 100 100 100 99 100 98 100 98 98 74 78 84 79 86 98 96 87 85 100 100 100 100 100 100 100 100 100
100 99 100 100 100 100 100 100 100 100 100 100 100 100 100 100 93 87 100 99 99 100 100 100 100 100 96 91 90 100 100 100 95 98 83 100 100 100 100 100 100 100 100
100 100 98 100 100 100 100 100 100 100 100 100 100 100 100 100 100 95 100 100 100 100 100 100 100 100 100 100 100 100 100 100 100 100 98 100 100 100 100 100 100 100 100
100 100 100 100 100 100 100 100 100 100 100 100 100 100 100 100 100 100 100 100 100 99 100 100 100 100 100 100 100 100 100 100 100 100 99 92 100 100 100 100 100 100 100
100 100 100 100 100 97 99 100 100 100 100 100 100 100 100 100 100 100 100 100 100 100 100 100 100 100 100 100 100 100 100 100 100 100 87 100 100 100 100 100 100 100 100
100 100 100 100 100 100 100 100 100 100 100 100 100 100 100 100 100 100 100 98 98 88 96 92 94 100 100 99 100 100 97 100 97 98 99 100 100 100 100 98 99 100 100
100 100 98 100 100 100 100 100 100 100 100 100 100 98 100 100 99 99 100 100 97 100 95 99 99 100 100 99 98 90 67 59 100 98 100 100 100 100 100 100 100 100 100
96 100 100 100 100 100 100 100 100 100 100 100 100 100 100 100 100 100 100 100 100 100 100 100 100 96 100 100 100 100 98 100 100 100 100 100 100 100 100 100 100 100 100

GFSGL_prec_cloud_111.txt.gz
Cloud_Cover
92 100 100 100 100 100 99 87 100 100 100 100 100 100 100 100 100 100 100 100 100 100 100 100 100 100 100 100 100 100 100 100 100 100 100 100 100 100 100 100 100 100 100
100 100 100 100 99 100 100 100 99 100 100 100 100 100 100 100 100 99 100 100 100 100 100 100 100 100 100 100 100 100 100 100 100 100 100 100 100 100 100 100 100 100 100
98 100 100 100 100 100 100 100 100 100 100 100 100 100 90 100 100 100 100 100 100 100 100 100 100 100 100 100 100 100 100 100 100 100 100 100 100 100 100 100 100 100 100
100 100 100 100 100 98 88 90 99 100 89 100 100 100 100 100 100 100 100 100 100 100 100 100 100 100 100 100 100 100 100 100 100 100 100 100 100 100 100 100 100 100 100
55 100 100 100 100 100 100 100 100 100 100 100 100 100 100 100 100 100 100 100 100 100 100 100 100 100 100 100 100 100 100 100 100 100 100 100 100 100 100 100 100 100 100
1 4 5 31 99 100 100 100 100 100 100 100 100 100 100 100 100 100 100 100 100 100 100 100 100 100 100 100 100 100 100 100 100 100 100 100 100 100 100 100 100 100 100
0 0 0 0 1 0 3 39 90 23 62 92 100 100 100 100 100 94 100 100 97 100 96 88 100 100 100 100 100 100 100 100 99 100 100 100 100 100 100 100 100 100 100
5 4 3 1 0 0 0 0 0 0 1 5 3 34 77 100 100 100 100 100 91 64 68 98 100 93 79 100 100 100 100 100 100 100 100 100 100 100 100 100 100 100 100
5 5 5 5 5 2 0 0 0 0 0 0 2 5 5 5 5 8 13 5 10 31 25 7 21 10 42 99 99 100 100 83 93 99 100 100 100 100 100 100 100 100 100
10 8 6 5 6 8 5 5 5 5 20 69 83 54 29 41 7 79 71 60 40 29 5 5 15 58 81 87 38 96 100 39 9 8 20 42 96 100 100 100 100 100 100
100 100 100 100 100 100 100 100 100 100 100 100 100 87 45 14 7 40 68 85 70 35 5 5 5 74 50 74 88 76 47 59 46 54 5 5 5 5 5 39 44 88 100
100 100 100 100 100 100 100 100 100 100 100 100 100 100 100 91 50 15 58 72 83 86 31 5 5 5 5 82 91 80 78 67 5 5 60 69 53 12 28 91 100 100 89
59 99 100 100 100 100 100 100 100 79 94 100 100 100 100 100 99 45 67 73 26 38 6 57 91 78 24 16 5 5 5 5 5 8 6 6 14 83 100 95 89 100 100
0 22 91 100 100 100 100 100 100 94 58 14 16 62 84 75 30 31 98 96 77 75 96 99 57 70 40 5 28 6 5 5 96 99 71 87 28 100 100 100 100 100 100
0 6 70 100 100 98 100 92 100 99 99 100 99 96 100 99 80 96 100 100 100 99 100 96 58 16 40 64 19 5 5 6 7 90 80 8 58 82 100 100 100 100 100
4 21 100 100 100 100 100 100 93 69 82 85 92 100 100 100 100 98 86 55 68 100 100 42 5 5 66 48 5 5 5 20 67 80 18 27 100 100 100 100 100 100 100
74 100 100 100 100 100 73 100 100 100 61 67 92 99 99 100 100 98 99 100 100 100 100 100 100 100 99 89 75 5 17 61 70 84 96 64 85 100 100 100 100 100 100
33 5 35 83 65 100 100 94 97 100 100 96 84 100 100 100 100 100 100 100 96 100 100 100 100 100 100 87 53 99 100 95 99 79 89 98 88 100 100 100 100 100 100
61 15 18 14 89 82 90 100 98 100 100 92 61 18 13 65 100 100 100 100 98 99 100 100 99 92 96 100 100 100 100 100 100 100 100 100 100 100 100 100 100 100 100
36 48 45 83 75 83 97 100 100 100 100 100 99 90 54 77 93 49 33 98 100 100 100 100 100 100 100 100 100 100 100 100 100 100 100 100 100 100 100 100 100 100 100
5 5 60 99 72 100 100 100 100 100 100 100 97 91 100 100 95 98 100 99 96 100 100 99 100 100 100 100 100 100 97 98 98 100 100 100 100 86 100 100 100 100 100
5 22 80 80 92 100 99 100 100 100 100 100 84 88 100 99 99 100 99 97 97 100 98 100 100 100 100 100 100 100 100 96 100 100 100 100 100 89 100 100 100 100 100
46 90 90 79 67 63 100 100 100 100 100 94 97 98 98 100 100 96 73 47 88 95 98 99 100 97 100 100 100 100 100 95 98 100 100 100 100 95 100 100 100 100 100
66 100 88 68 68 78 98 100 100 100 100 100 99 71 88 99 97 85 86 83 85 95 100 100 100 85 78 85 90 98 100 100 100 99 100 100 100 100 100 100 100 100 100
100 93 75 17 58 92 100 100 100 100 97 95 93 90 98 100 100 95 95 96 99 100 99 100 99 90 80 90 98 99 100 100 100 100 100 95 99 100 100 100 96 100 100
89 63 5 23 81 100 100 100 99 100 96 94 98 100 100 100 100 100 100 98 99 95 99 100 94 85 80 96 100 100 100 100 100 100 100 100 100 100 100 100 99 100 100

GFSGL_prec_cloud_114.txt.gz
Cloud_Cover
100 100 100 99 100 98 100 100 100 100 100 95 79 77 100 92 100 100 100 100 100 100 100 100 90 100 100 100 100 100 100 100 100 100 90 100 100 100 100 100 100 100 100
100 100 100 100 100 100 100 98 66 100 92 51 91 75 12 75 60 91 83 100 100 100 100 100 100 100 100 100 100 100 100 100 100 100 100 100 100 100 100 100 100 100 100
77 86 99 100 100 100 95 98 88 98 100 100 100 99 99 70 66 96 98 100 100 100 100 100 100 100 100 100 100 100 100 100 100 100 100 100 100 100 100 100 100 100 100
0 4 5 24 38 84 74 100 98 99 100 100 100 100 97 83 100 100 100 100 100 100 100 100 100 100 100 100 100 100 100 100 100 100 100 100 100 100 100 100 100 100 100
0 0 0 1 8 86 98 59 28 70 73 100 100 100 100 100 100 100 100 100 100 100 100 100 100 100 100 100 100 100 100 100 100 100 100 100 100 100 100 100 100 100 100
4 4 0 0 0 0 1 12 85 100 92 30 60 37 88 57 100 86 99 100 100 100 100 100 100 100 100 100 100 100 100 100 100 100 100 100 100 100 100 100 100 100 100
66 60 11 5 2 3 0 0 0 0 3 92 87 97 98 100 100 100 100 100 100 100 100 100 100 100 100 100 100 59 100 100 100 100 100 100 100 100 100 100 100 100 100
100 100 86 21 5 5 5 8 2 1 0 0 0 14 17 4 33 95 100 100 100 100 100 97 100 100 100 100 100 100 41 100 100 100 100 100 98 100 100 100 100 88 100
41 98 100 100 100 100 100 100 96 88 70 51 14 5 1 4 47 93 50 10 17 86 99 100 99 80 87 8 39 92 100 100 100 100 100 100 100 100 100 100 100 100 100
0 0 0 20 96 100 100 100 100 100 100 100 100 100 100 100 99 80 100 100 100 100 100 52 9 20 79 92 100 88 48 7 21 85 97 91 99 100 100 100 39 89 100
0 0 0 0 0 0 20 78 100 99 99 93 100 98 96 98 100 100 100 100 100 100 100 100 88 82 80 77 78 79 67 100 85 5 5 5 12 5 5 98 98 65 98
0 0 0 0 0 0 0 0 0 19 88 100 95 84 78 50 15 15 30 77 94 100 90 48 62 69 65 89 50 5 12 96 29 5 5 5 5 5 5 5 19 88 42
0 0 0 0 0 0 4 42 72 72 56 31 10 65 96 44 27 5 7 58 76 94 94 89 84 66 66 64 5 5 27 22 5 5 5 5 5 5 5 5 5 19 100
3 0 0 0 0 7 88 99 95 60 5 5 5 6 11 6 37 46 48 37 23 8 12 16 34 50 62 5 5 4 5 5 5 5 5 5 5 5 16 99 100 100 100
5 0 0 8 39 52 5 5 5 5 14 65 88 90 100 100 100 99 100 100 100 100 100 84 56 5 5 5 5 5 5 5 5 5 5 5 5 5 5 15 93 98 100
25 0 0 2 6 9 5 5 14 40 74 90 97 96 100 100 100 100 100 100 100 100 100 98 75 68 5 20 75 93 5 5 5 5 5 10 52 22 30 43 86 87 96
7 2 0 0 0 0 1 9 100 100 23 32 51 100 97 98 96 98 99 100 100 100 73 77 97 51 17 60 98 77 43 5 5 12 6 93 80 80 95 61 66 100 92
19 4 5 5 5 5 5 46 98 100 100 66 10 54 89 100 100 100 100 99 14 5 8 23 30 38 46 72 26 5 5 6 60 12 15 88 100 100 96 99 98 100 100
57 5 0 2 5 6 14 63 100 100 100 100 100 100 100 82 100 100 98 26 24 53 80 51 5 5 17 27 41 62 100 94 97 100 99 100 100 100 96 99 97 100 100
91 13 5 5 5 5 45 26 99 82 88 96 77 8 15 79 99 86 8 38 78 61 11 84 98 90 98 76 96 100 99 87 85 85 86 91 100 100 100 100 93 100 100
100 22 12 5 5 5 5 45 52 70 81 87 71 17 100 100 33 5 14 62 74 81 79 77 59 54 67 72 62 53 78 75 76 82 91 100 100 100 100 100 100 100 100
100 42 19 5 5 6 16 52 86 65 59 87 24 8 98 59 5 13 80 95 99 99 97 95 81 77 90 98 99 100 100 100 99 99 100 99 98 97 100 97 100 100 100
64 81 77 16 11 45 7 5 75 99 98 92 22 34 65 6 32 80 96 100 100 99 86 100 100 100 99 100 99 100 100 95 91 99 100 98 100 92 92 100 100 100 100
59 100 87 94 65 13 11 23 28 100 100 78 15 61 18 57 89 99 99 99 100 88 100 100 100 93 94 96 100 100 92 91 100 100 100 100 98 100 98 100 100 100 100
100 100 100 85 7 5 5 7 89 97 99 69 78 75 64 93 100 98 88 95 98 100 92 98 100 100 100 100 100 100 100 100 100 100 100 100 100 100 100 100 100 100 100
88 100 100 8 52 55 22 53 98 96 100 100 98 80 100 100 100 100 90 98 100 100 99 100 97 100 100 100 100 99 100 100 100 100 100 100 100 100 100 100 100 100 100

GFSGL_prec_cloud_117.txt.gz
Cloud_Cover
100 99 96 100 100 100 100 100 100 100 100 100 100 100 100 100 100 100 100 90 95 72 88 18 100 98 92 100 100 100 100 100 100 100 100 100 100 100 100 100 100 100 100
5 5 5 5 7 57 89 92 100 100 95 100 100 100 100 100 100 100 41 7 29 78 60 41 100 98 100 100 100 100 100 100 100 100 100 100 100 100 100 100 100 100 100
7 5 5 5 1 4 20 6 88 100 100 100 100 100 100 100 89 60 36 70 67 32 87 77 88 100 93 100 100 100 100 100 100 100 100 100 100 99 100 100 100 100 100
98 99 63 20 5 5 1 1 3 4 4 32 94 97 100 100 100 98 95 38 66 81 81 100 100 100 100 100 100 100 100 100 100 100 100 100 100 91 99 88 100 100 100
87 78 100 100 100 90 45 8 4 0 3 5 5 5 14 63 50 85 93 27 57 99 100 100 100 100 100 100 100 99 100 100 100 97 100 100 100 100 100 100 100 100 100
0 1 7 50 97 99 100 100 100 95 30 3 0 2 5 92 30 98 74 90 100 100 100 100 100 100 100 100 100 100 100 100 100 100 100 100 100 100 100 100 100 100 100
3 0 0 0 0 0 4 16 74 94 100 100 100 95 28 3 50 100 100 100 100 100 100 100 100 100 100 100 100 98 99 100 100 100 100 100 100 100 100 100 99 100 100
4 0 0 0 0 0 0 0 0 0 5 10 33 72 99 100 82 40 11 36 24 64 90 99 100 100 100 100 100 100 100 100 100 100 100 100 93 100 100 100 100 100 100
1 5 5 5 0 0 0 0 0 0 0 0 5 45 16 21 84 100 100 100 100 100 100 92 81 35 100 100 100 100 100 100 100 100 100 100 100 100 91 58 100 100 100
4 0 1 5 5 0 0 0 0 0 0 0 0 2 5 97 98 73 49 57 94 91 95 32 7 5 38 70 100 100 100 89 97 60 82 100 100 100 100 100 100 100 100
5 5 5 5 5 5 2 0 0 0 0 2 4 4 0 1 1 56 96 100 84 100 100 100 100 96 77 76 57 82 88 77 87 60 84 84 35 30 85 100 44 89 100
5 5 5 5 5 5 5 0 0 0 0 0 0 2 1 1 4 5 20 87 87 90 81 76 90 94 96 84 93 100 100 100 100 98 47 6 18 20 8 24 19 6 50
5 5 5 5 5 5 4 0 0 0 3 3 1 5 5 5 5 4 5 29 71 99 98 71 90 98 77 64 17 5 82 31 5 8 5 5 10 38 58 12 5 5 5
5 5 5 5 5 5 4 0 0 0 4 5 9 58 10 5 5 6 36 73 28 14 11 20 70 89 37 5 5 5 5 7 97 55 5 5 5 17 5 10 6 5 61
13 10 5 5 5 5 5 0 0 2 5 50 83 100 100 100 85 100 100 100 100 100 100 74 46 7 32 11 6 5 5 6 80 53 5 5 8 5 74 55 5 50 96
11 50 79 5 5 5 5 5 0 4 5 12 74 93 99 100 100 100 100 100 100 100 97 79 33 75 99 97 97 88 99 96 61 50 5 47 5 30 78 26 61 26 63
87 68 100 7 5 5 4 5 5 5 5 5 7 77 99 100 100 100 100 100 100 98 5 5 44 62 55 13 87 98 67 5 5 5 75 12 5 83 86 11 66 90 100
69 74 100 25 5 5 5 5 5 5 5 5 5 14 97 100 100 100 100 94 6 5 6 36 33 45 14 16 70 67 22 5 5 5 15 18 72 81 88 87 86 100 100
100 100 100 100 86 14 5 11 5 5 5 5 5 18 32 54 75 90 84 5 5 14 23 60 5 20 83 85 60 34 41 46 70 100 92 60 7 42 91 99 93 87 99
100 100 100 100 95 9 5 38 5 5 5 5 70 90 14 70 90 57 5 5 5 27 68 73 24 48 26 33 35 77 99 95 65 39 5 48 69 96 100 100 99 100 98
100 100 100 100 100 26 5 83 12 5 35 58 71 20 100 100 36 5 5 5 58 98 92 84 82 89 89 94 100 100 100 100 100 100 100 98 94 100 93 99 96 100 100
100 100 100 100 100 66 5 86 46 5 5 62 90 37 77 38 5 5 22 36 40 82 97 100 99 100 100 100 99 99 100 100 100 100 97 99 100 99 100 100 97 100 100
100 100 100 100 100 83 63 69 5 5 11 65 100 99 12 5 5 70 75 76 99 97 100 100 100 100 100 100 93 99 100 97 94 100 100 100 100 97 96 99 100 100 100
100 100 100 100 100 95 94 99 5 31 89 98 100 100 68 5 58 99 94 90 100 97 100 100 100 99 97 99 100 100 100 96 99 100 100 100 100 100 100 100 100 100 100
100 100 100 100 100 100 100 100 5 8 85 98 100 99 53 73 98 100 96 85 99 100 99 97 100 100 100 100 100 100 100 100 100 100 100 100 100 100 100 100 100 100 100
100 100 100 100 100 98 100 100 15 7 94 100 100 100 93 99 100 100 99 95 100 99 98 100 100 100 100 100 100 100 100 100 100 100 100 100 100 100 100 99 98 100 100

GFSGL_prec_cloud_120.txt.gz
Cloud_Cover
5 5 5 5 4 5 5 5 33 40 100 95 100 100 100 100 100 100 100 100 100 100 100 100 100 100 100 99 97 100 100 97 100 100 100 100 100 100 100 100 100 100 100
5 49 92 95 46 5 5 5 5 5 5 100 100 100 100 100 100 100 100 100 100 100 100 100 98 100 82 42 34 61 100 33 98 100 100 97 100 100 100 100 100 100 73
0 0 2 19 65 94 100 56 11 5 5 1 14 94 100 100 100 100 100 92 100 100 99 46 8 5 5 24 89 74 96 92 69 11 57 99 98 100 100 100 100 100 100
0 0 0 0 0 0 0 25 95 100 96 55 16 1 18 94 100 100 100 100 100 100 98 98 89 96 85 99 60 96 79 77 99 52 98 99 98 100 100 100 100 100 100
5 4 0 0 0 0 0 0 0 0 2 18 31 70 41 4 2 5 5 8 13 43 94 100 22 11 91 94 100 96 91 92 98 100 100 100 100 100 100 100 100 100 100
5 5 5 4 0 0 5 0 0 0 0 0 0 0 4 46 63 42 5 5 0 4 5 12 97 58 100 100 100 100 96 85 100 100 100 100 100 100 100 100 100 100 100
5 5 5 5 5 5 0 5 4 0 0 0 0 0 0 0 4 36 98 100 100 66 21 11 6 58 92 99 100 100 100 100 99 96 100 100 100 100 100 100 100 100 100
5 5 5 5 5 5 0 0 1 5 5 0 0 0 0 0 0 5 5 12 92 100 100 100 96 36 23 70 62 94 100 100 100 100 100 100 69 88 100 100 100 100 100
5 5 5 5 5 5 5 0 0 0 0 0 1 2 3 1 0 5 5 5 5 10 31 100 100 100 99 60 27 98 42 71 92 100 100 100 100 100 98 67 100 100 97
5 5 5 5 5 5 5 5 0 0 0 2 0 0 0 0 0 5 6 5 5 5 5 5 7 26 93 99 100 94 36 19 11 85 100 94 98 100 100 100 80 100 100
38 5 10 5 5 5 5 5 5 1 0 1 0 0 0 0 3 5 5 5 5 10 5 5 5 5 74 75 90 100 99 87 100 98 23 25 89 96 100 100 100 100 100
92 16 6 43 13 5 5 5 5 5 1 5 5 3 0 5 2 5 5 83 84 100 90 23 7 54 99 100 100 93 99 96 82 100 98 99 56 13 13 98 76 86 100
100 94 5 35 56 9 5 5 5 5 5 3 1 5 5 5 5 4 5 11 60 93 75 55 97 89 65 99 66 44 98 48 8 5 9 46 49 75 64 15 8 73 92
99 100 26 82 94 83 5 11 10 7 5 4 5 5 5 5 5 5 12 79 40 15 5 27 69 77 47 5 5 5 5 5 40 85 100 100 75 19 5 5 6 5 12
100 100 100 100 100 100 9 26 90 68 48 5 5 68 28 5 15 95 99 98 98 92 98 69 5 6 5 5 5 5 17 100 99 98 99 76 22 16 25 5 13 30 93
87 100 100 100 100 100 57 16 63 68 100 5 17 74 33 70 90 89 98 100 100 100 94 7 5 5 14 27 12 9 5 5 24 40 17 5 11 8 23 68 90 94 90
100 100 100 100 100 100 100 84 97 41 72 5 5 57 71 92 100 93 100 99 99 68 5 5 5 13 52 55 44 50 66 62 65 63 18 5 23 68 98 84 86 93 100
100 100 100 100 100 98 100 99 100 100 97 16 4 5 63 96 91 99 99 88 4 5 5 5 5 49 60 73 88 99 100 98 90 56 63 72 99 99 80 98 98 100 100
100 82 100 100 100 100 100 100 100 100 93 98 5 5 9 57 89 95 82 5 5 5 17 76 6 6 5 59 70 69 63 84 93 99 92 84 75 93 100 100 100 100 100
100 100 100 100 100 100 100 100 98 100 73 100 13 12 67 47 87 16 5 5 5 5 55 75 61 76 93 94 94 100 100 100 100 100 95 75 52 73 100 100 100 100 100
100 100 100 100 100 100 100 100 100 100 85 97 34 20 99 100 61 43 6 5 10 65 80 97 100 99 100 100 100 100 100 100 100 100 100 100 100 100 97 100 100 100 100
100 100 100 100 100 100 100 100 100 100 80 100 71 9 91 50 43 35 5 5 5 50 88 100 100 100 99 100 100 100 100 100 100 100 100 100 97 96 100 100 100 100 100
100 100 100 100 100 100 100 100 100 100 79 100 100 5 94 77 65 24 5 5 41 89 90 100 100 100 91 100 100 100 100 100 99 100 100 100 100 100 100 96 99 100 100
100 100 100 100 100 100 100 100 100 100 86 88 100 6 85 100 100 57 5 51 93 98 100 97 99 100 99 100 100 100 100 100 100 100 100 100 99 100 100 100 100 100 100
100 100 100 100 100 100 100 100 100 100 100 84 100 55 97 100 100 67 59 69 96 99 94 93 100 98 96 97 100 100 100 100 100 100 100 100 93 100 100 100 99 100 100
100 100 100 100 100 100 100 100 100 100 100 100 100 100 100 100 100 83 69 78 99 88 83 100 75 100 97 100 100 100 100 100 100 100 100 100 100 100 98 99 96 100 100

GFSGL_prec_cloud_123.txt.gz
Cloud_Cover
0 0 0 0 0 0 0 0 0 2 5 4 4 5 87 100 99 73 100 100 100 100 100 100 100 100 100 100 100 100 100 95 100 100 97 72 36 100 100 88 92 78 75
0 0 0 1 0 0 0 0 0 0 0 0 0 3 5 91 100 100 100 100 100 100 100 100 100 100 100 100 100 100 100 100 100 100 100 94 96 100 95 93 52 100 100
0 0 0 3 5 5 5 4 1 3 0 0 0 0 0 0 46 100 100 100 100 49 24 73 100 100 100 100 100 100 100 100 100 100 72 79 90 30 36 49 39 90 88
5 5 5 5 3 0 2 5 5 1 0 4 4 1 0 0 0 5 11 88 99 100 100 93 67 27 88 97 88 84 67 99 44 42 63 58 35 53 86 36 46 22 34
5 5 5 5 5 5 5 5 2 4 2 0 0 0 0 0 5 5 5 3 2 39 88 84 100 100 99 99 98 94 98 84 60 78 87 8 16 62 84 91 87 93 71
5 8 5 5 5 17 5 5 5 5 1 0 0 0 0 0 4 5 5 5 0 0 0 30 99 100 36 99 100 100 100 100 97 100 100 45 25 5 99 98 44 100 100
96 8 64 68 18 5 5 5 5 5 5 0 0 0 1 0 5 5 9 5 1 5 5 4 0 2 52 99 100 37 12 21 84 25 48 53 35 25 70 73 100 100 100
8 82 28 15 100 16 5 5 5 5 3 0 0 4 5 0 4 5 5 5 5 5 2 1 5 5 5 5 60 99 100 100 49 60 96 43 26 67 62 19 40 61 100
5 22 24 96 91 44 6 0 5 5 5 0 3 5 5 2 2 5 6 5 5 0 4 5 5 5 5 27 12 76 100 100 97 22 5 7 54 63 62 13 96 71 89
85 9 6 9 37 54 9 8 5 5 5 5 3 5 5 4 0 5 5 5 5 5 5 5 5 5 54 81 81 83 38 99 100 100 100 95 34 6 5 24 13 93 95
69 73 51 6 5 32 99 64 5 10 5 5 3 3 5 3 4 5 5 6 5 13 5 5 5 5 78 100 100 99 76 95 92 96 100 100 100 77 45 5 5 32 76
94 95 62 9 11 5 73 67 9 100 56 5 5 5 5 5 2 5 7 82 100 95 20 32 5 60 94 86 96 83 96 90 40 5 5 32 99 98 46 26 5 6 18
93 65 69 5 44 7 19 54 99 92 100 72 7 5 5 5 5 5 5 18 68 83 76 11 92 96 100 46 6 74 90 10 5 5 7 7 5 50 71 14 5 5 5
100 100 98 100 37 95 100 100 100 100 100 100 70 5 5 5 5 5 38 64 16 42 8 20 95 66 38 5 5 5 5 5 78 100 100 74 17 17 43 13 25 5 45
100 100 100 100 100 100 100 100 100 100 100 100 99 9 20 10 5 76 100 100 100 100 100 33 17 5 5 5 5 5 5 5 27 16 50 40 5 5 5 14 21 22 97
100 100 100 100 100 97 100 100 100 100 100 100 100 84 10 32 84 94 100 100 100 100 98 7 5 5 5 5 13 35 36 23 5 5 5 8 40 14 26 45 60 100 100
100 100 100 100 100 100 100 100 100 100 100 100 100 59 58 81 94 99 100 100 100 97 6 5 5 5 5 5 5 5 68 12 15 10 77 51 67 65 97 100 100 100 98
100 100 100 100 100 100 100 100 100 100 100 100 91 45 19 80 98 94 100 99 23 3 5 5 5 5 5 35 31 64 91 100 91 85 89 81 84 99 97 98 92 100 100
100 100 100 100 100 100 100 100 100 100 100 100 100 98 91 46 91 92 89 20 5 5 5 5 5 5 12 59 84 95 98 100 100 99 99 99 91 99 96 100 99 98 100
100 100 100 100 100 100 100 100 100 100 100 100 100 100 97 70 76 66 6 5 5 5 5 5 25 79 99 94 91 99 99 100 99 100 100 100 96 98 93 97 98 100 100
100 100 100 100 100 100 100 100 100 100 100 100 100 96 95 100 100 99 5 5 5 5 5 81 100 100 97 100 100 100 99 94 98 100 100 100 99 99 91 99 100 100 100
100 100 100 100 100 100 100 100 100 100 100 100 100 94 100 100 100 100 48 5 5 5 39 100 100 100 100 100 100 100 100 100 100 100 100 100 99 97 98 100 100 100 100
100 100 100 100 100 100 100 100 100 100 100 100 100 97 100 100 100 100 9 5 6 54 64 94 99 89 99 100 100 100 100 100 100 100 100 100 98 100 100 100 100 100 98
100 100 100 100 100 100 100 100 100 100 100 100 100 100 100 100 100 35 5 5 62 70 86 99 87 95 99 99 100 100 100 100 100 100 100 100 100 98 100 100 100 100 100
100 100 100 100 100 100 100 100 100 100 100 100 100 100 100 100 100 97 12 47 85 98 96 91 96 93 93 99 100 100 100 100 100 100 100 100 100 95 100 100 100 100 100
100 100 100 100 100 100 100 100 100 100 100 100 100 100 100 100 100 100 39 75 99 100 91 90 86 92 87 99 100 100 100 100 100 100 100 100 99 96 97 100 100 100 100

GFSGL_prec_cloud_126.txt.gz
Cloud_Cover
5 6 7 5 5 5 5 5 0 0 0 0 0 0 0 0 0 0 6 100 98 96 100 100 100 100 100 100 100 100 100 100 100 100 100 100 100 100 99 88 82 4 27
5 5 5 5 5 0 0 4 5 5 1 5 5 1 0 0 0 0 0 0 79 56 99 100 100 100 100 100 100 100 100 100 100 100 100 100 100 96 84 12 32 52 67
5 25 65 71 8 5 5 5 5 4 5 5 5 2 5 1 0 2 0 2 5 4 31 73 97 97 100 100 100 100 100 100 100 100 100 100 100 100 100 100 100 97 37
5 87 5 52 44 22 29 5 5 4 2 3 4 0 0 0 2 5 5 2 4 0 0 0 2 4 6 36 91 100 100 100 100 100 100 100 100 100 37 93 93 84 51
5 87 94 65 23 16 6 52 43 5 4 0 0 0 0 0 2 5 5 5 0 0 0 0 0 0 0 4 12 26 5 5 12 44 100 100 100 100 100 85 100 89 39
52 100 100 100 100 100 63 14 5 58 27 5 4 1 5 0 2 4 7 5 3 5 5 0 0 0 0 1 5 4 51 100 77 8 66 98 100 100 100 96 100 26 75
12 22 31 28 72 97 93 78 10 41 81 29 5 5 5 3 4 5 5 5 5 5 2 0 1 2 5 5 5 5 5 5 23 85 98 23 66 58 100 100 95 98 99
75 88 100 100 99 100 99 100 83 58 55 100 85 56 5 5 5 5 13 5 5 2 1 1 5 5 5 5 14 5 5 5 5 5 50 100 100 77 92 100 100 80 98
97 63 100 96 97 100 100 86 100 66 99 92 100 35 5 5 5 5 6 5 5 5 5 5 5 5 4 26 5 5 5 5 5 5 31 34 39 98 100 93 7 53 60
64 54 68 100 96 100 100 100 100 93 45 70 99 100 17 5 5 6 5 5 5 5 5 5 5 5 58 85 100 82 34 5 5 11 44 7 44 96 100 90 93 65 85
100 100 100 89 86 100 100 100 100 100 100 100 79 39 32 25 5 32 6 9 10 39 94 35 5 5 81 100 100 100 81 98 99 86 62 5 5 5 5 5 60 100 98
100 100 100 100 100 100 100 100 100 100 100 100 100 100 40 96 5 5 5 75 88 100 100 76 7 78 100 100 100 84 92 96 46 5 5 5 5 5 5 5 76 98 33
100 100 100 100 100 100 100 100 100 100 100 100 100 100 58 98 5 5 5 5 64 100 100 82 100 100 100 67 5 25 41 6 5 44 47 14 14 6 7 13 90 100 78
100 100 100 100 100 100 100 100 100 100 100 100 100 100 93 5 37 8 14 20 80 30 5 7 55 70 5 0 2 3 5 5 30 88 65 37 52 56 12 6 11 6 64
100 100 100 100 97 100 100 100 100 100 100 100 100 100 77 66 99 71 92 100 100 100 99 66 5 5 5 5 5 5 5 5 5 5 7 21 33 62 37 20 22 65 87
100 100 86 100 100 100 100 100 100 100 100 100 100 100 77 53 94 96 100 100 100 100 94 7 5 5 5 5 5 5 5 11 5 5 12 44 85 83 93 87 86 97 100
100 100 100 100 100 100 100 100 100 100 100 100 100 100 82 99 100 100 100 100 100 98 8 5 5 5 5 5 13 57 83 60 65 81 92 80 88 100 99 90 97 100 99
100 100 100 100 100 100 100 100 100 100 100 100 100 100 57 100 100 100 94 100 38 4 5 10 5 5 5 59 75 94 100 100 100 100 100 98 91 99 100 100 100 100 100
100 100 100 100 100 100 100 100 100 100 100 100 100 100 48 100 100 100 96 61 86 5 5 8 5 22 42 78 98 100 100 98 99 98 98 100 100 100 94 100 100 99 100
100 100 100 100 100 100 100 100 100 100 100 100 100 100 99 100 100 100 60 24 17 5 25 5 5 63 99 97 100 100 100 100 100 100 99 100 100 100 100 98 94 100 94
100 100 100 100 100 100 100 100 100 100 100 100 100 100 100 100 100 99 89 5 5 5 81 28 82 98 89 98 100 100 100 100 100 100 98 100 100 100 94 99 100 100 100
100 100 100 100 100 100 100 100 100 100 100 100 100 100 100 100 100 100 51 23 5 11 71 76 97 96 100 100 100 100 100 100 100 100 99 100 100 100 99 100 94 97 100
100 100 100 100 100 100 100 100 100 100 100 100 100 100 100 100 100 100 36 89 5 67 27 68 95 87 98 98 100 100 100 100 100 100 100 100 100 100 100 97 96 100 100
100 100 93 100 100 100 100 100 100 100 100 100 100 100 100 100 100 100 96 98 7 97 58 81 98 94 98 97 100 100 100 100 100 100 100 100 100 100 100 100 100 100 100
100 100 100 86 100 100 100 100 100 100 100 100 100 100 100 100 100 100 100 88 69 99 69 64 84 90 86 86 93 93 100 100 100 100 100 100 100 100 100 99 100 100 100
100 100 100 96 100 100 100 100 100 100 100 100 100 100 100 100 100 100 100 97 100 89 63 69 84 85 89 98 96 99 100 100 100 100 100 100 100 100 100 100 100 100 100

GFSGL_prec_cloud_129.txt.gz
Cloud_Cover
5 92 87 80 51 5 30 5 5 1 1 5 5 2 0 0 0 0 0 0 0 0 1 4 0 49 100 93 68 74 99 82 84 100 60 98 100 100 100 100 100 100 100
35 71 19 8 8 8 82 62 100 100 90 10 5 11 6 5 0 0 5 0 0 1 5 5 5 3 13 100 100 58 100 100 100 99 96 91 100 100 100 100 100 100 100
100 93 92 98 83 72 22 41 9 66 5 5 5 5 5 5 5 3 0 0 0 2 5 5 2 3 5 5 75 100 64 100 100 100 94 100 100 100 100 100 100 100 100
3 1 28 6 5 63 99 99 100 93 58 27 84 8 5 21 24 5 5 5 5 5 1 0 0 0 2 5 5 5 76 63 94 100 100 65 100 98 100 100 100 100 100
1 4 5 5 5 25 34 76 72 78 100 100 100 14 5 7 62 65 6 5 5 5 5 0 0 0 2 5 5 5 19 47 8 17 100 94 50 100 100 100 100 100 100
5 5 5 5 5 30 8 70 70 10 72 99 87 95 54 6 6 6 94 5 5 2 5 2 0 0 4 3 5 17 35 98 100 100 97 48 99 100 100 100 100 100 100
26 54 100 100 45 89 100 100 100 100 100 100 100 100 100 100 100 54 5 5 5 5 5 5 5 5 5 5 5 5 5 5 8 47 93 76 46 8 40 68 100 100 100
8 55 95 100 100 100 100 100 100 100 100 100 98 85 100 100 100 100 100 73 14 5 5 5 5 5 5 5 9 8 5 5 5 5 5 18 28 61 77 100 99 93 100
5 27 100 100 99 82 100 100 100 100 100 100 100 100 83 56 100 100 100 100 97 5 5 5 5 5 5 77 76 92 86 8 5 5 5 5 28 67 62 98 100 98 98
46 6 62 97 95 100 100 100 100 100 100 100 100 100 100 100 100 100 100 100 40 9 5 5 5 7 77 95 100 93 89 47 8 30 25 38 5 5 5 8 12 60 96
48 79 56 90 100 100 100 100 100 100 100 100 100 100 100 100 100 100 100 100 53 36 98 100 87 5 88 97 98 79 47 99 88 56 7 5 5 5 5 5 5 25 85
100 99 95 100 100 100 100 100 100 100 100 100 100 100 100 100 100 100 100 100 68 95 100 100 100 93 100 100 94 10 7 71 38 37 5 5 31 5 5 16 10 99 100
100 100 100 100 100 100 100 100 100 100 100 100 100 100 100 100 100 100 100 100 100 83 100 53 99 80 90 42 5 5 5 5 5 5 5 48 86 35 7 5 5 5 44
100 93 99 100 100 100 100 100 100 100 100 100 100 100 100 100 100 100 100 100 100 100 38 63 71 99 62 5 1 3 5 7 78 75 90 59 22 80 79 85 92 86 88
100 100 100 100 100 100 100 99 97 100 100 100 100 100 100 100 100 100 100 100 98 100 98 93 62 5 5 5 5 5 5 6 63 71 83 83 72 72 77 90 98 94 97
100 100 100 96 100 100 100 100 100 100 100 100 100 100 100 100 100 100 100 100 96 100 97 98 62 5 5 5 5 6 59 73 71 90 88 95 91 93 94 85 97 97 99
45 11 6 88 100 100 100 100 100 100 100 100 100 100 100 100 100 100 100 98 99 97 100 53 12 5 5 42 82 92 96 93 97 96 97 94 96 100 100 100 100 100 100
5 5 62 100 100 100 100 100 100 100 100 100 100 100 100 100 100 100 100 100 100 100 100 27 50 5 45 86 92 100 96 92 92 100 100 100 100 100 100 100 100 100 100
78 88 100 100 100 100 100 100 100 100 100 100 100 100 100 100 100 100 100 100 100 100 72 8 22 5 68 96 97 96 100 95 100 100 99 100 100 100 100 100 100 99 100
98 100 100 100 100 100 100 100 100 100 100 100 100 100 100 100 98 100 100 100 100 100 43 40 7 70 94 86 100 100 100 92 98 93 96 100 100 100 100 100 100 100 100
57 91 100 100 100 100 100 100 100 100 100 100 100 100 100 100 100 100 100 100 100 100 61 60 68 97 92 100 100 100 100 97 99 100 100 100 100 100 99 100 100 100 100
85 71 99 94 96 100 100 100 100 100 100 100 100 100 100 100 100 100 100 100 100 84 44 55 89 98 90 100 100 100 100 98 96 100 100 100 100 100 100 100 100 100 100
100 100 98 99 100 99 100 100 100 100 100 100 100 100 100 100 100 100 100 100 99 79 94 72 97 90 94 94 99 100 100 96 99 100 100 100 100 100 100 100 100 100 100
71 100 100 100 92 100 100 100 100 100 100 100 100 100 100 100 100 100 100 86 91 78 90 76 86 82 91 97 98 100 100 100 100 100 100 100 100 100 100 100 100 100 100
8 99 92 100 100 86 32 100 100 100 100 100 100 100 100 100 100 100 100 87 84 100 98 24 90 80 82 99 93 88 100 100 100 100 100 100 100 100 100 100 100 100 100
5 18 94 100 100 100 100 100 100 100 100 100 100 100 100 100 100 100 100 78 100 100 99 50 100 29 74 80 44 89 100 100 100 100 100 100 100 100 100 100 100 100 100